GEFSNGP_500_meanwind_000.txt.gz
Wind_Speed
17 20 23 22 21 24 28 29 29 28 32 37 37 36 38 40 43 47 49 50 51 50 50 49 50 49 46 44 41 38 33 32 33 34 35 31 28 28 26 21 18 18 20 17
17 21 23 22 25 28 30 31 33 36 37 37 40 40 43 47 49 50 49 50 52 53 53 53 52 49 47 48 44 40 37 32 30 33 35 31 27 26 22 18 16 13 15 12
21 22 23 25 27 28 30 31 32 34 37 38 41 45 50 54 58 56 58 62 65 63 58 57 55 52 50 49 44 41 38 35 31 33 35 32 27 25 24 20 14 11 14 13
26 26 26 30 32 32 33 35 36 38 41 44 48 51 52 58 63 65 67 67 71 68 62 57 56 58 55 50 45 41 39 37 31 31 32 32 28 24 24 21 18 13 13 14
32 32 30 31 33 33 36 39 39 42 45 47 50 56 56 62 68 72 74 72 73 72 69 66 64 66 66 61 51 42 40 38 32 32 30 31 28 24 23 22 20 15 16 16
33 35 36 34 36 40 43 43 41 47 50 55 56 58 58 64 68 75 76 73 74 76 73 71 71 70 68 68 60 50 44 40 37 34 31 31 29 26 23 22 21 18 18 19
36 39 40 40 39 39 43 45 49 54 54 62 64 62 68 68 75 82 79 79 80 77 75 77 77 75 74 68 62 54 50 46 41 39 35 30 28 28 26 21 19 18 18 20
39 40 40 39 40 40 47 49 53 59 63 67 68 70 74 77 80 80 79 79 77 72 69 71 74 74 72 66 62 60 54 47 40 38 34 27 28 29 28 21 19 17 15 16
37 39 41 42 44 47 52 55 59 63 68 72 75 77 78 80 81 80 78 77 66 58 59 63 65 62 61 60 62 58 55 52 46 38 35 31 33 31 30 23 18 15 12 11
38 40 42 45 49 53 57 60 65 69 70 74 79 83 84 82 81 77 68 56 56 58 60 65 64 58 52 50 60 59 54 50 46 45 35 34 36 34 30 24 20 18 14 12
39 43 47 50 55 60 64 66 71 73 75 75 80 78 76 71 62 51 48 53 50 52 58 63 61 56 47 38 51 58 56 54 47 41 38 35 35 35 32 26 23 23 19 16
43 50 55 60 65 70 73 75 79 78 75 70 65 64 60 52 46 45 48 50 52 53 53 54 54 52 45 37 37 50 57 51 50 50 43 38 38 36 35 30 26 25 22 20
55 60 64 70 74 77 77 77 76 71 64 62 61 57 51 48 49 50 50 51 51 52 50 42 39 38 33 30 29 42 54 55 55 57 48 38 36 36 34 32 29 28 25 23
63 68 71 77 79 79 78 73 64 57 56 51 47 43 44 47 50 51 51 49 50 51 50 40 34 31 29 27 27 39 48 48 48 54 46 38 37 37 36 33 31 30 28 26
69 75 78 80 79 77 70 61 55 50 42 40 40 40 43 46 47 48 51 52 53 53 47 40 36 32 26 25 26 34 43 41 38 41 44 43 41 39 37 34 32 30 29 28
75 78 78 80 77 67 59 54 49 43 40 39 40 41 43 46 49 52 55 58 56 51 43 36 35 34 30 26 27 32 41 42 39 41 46 46 40 40 39 36 31 28 26 26
76 78 77 73 65 56 51 45 40 38 39 41 43 47 50 52 57 60 57 53 48 42 32 27 29 33 30 27 28 32 41 41 42 46 44 43 39 40 40 36 30 28 27 27
75 74 68 60 54 51 46 38 33 36 41 43 47 56 61 62 64 58 50 47 42 34 31 30 30 30 26 25 26 32 40 41 43 43 41 40 40 40 41 37 31 30 29 29
73 65 57 52 49 45 38 32 33 37 40 45 56 66 68 63 55 50 47 44 36 29 27 28 28 24 23 25 27 35 36 35 38 40 40 41 39 38 39 38 32 29 26 24
65 57 50 46 42 35 31 32 35 39 45 52 62 64 56 52 50 46 40 37 30 24 21 20 14 13 17 21 33 36 33 34 33 33 36 41 40 36 35 35 32 28 23 22
60 54 45 40 34 30 32 34 38 45 52 60 64 58 52 48 45 40 33 30 24 15 11 8 9 10 18 33 40 39 37 37 36 35 37 39 38 37 35 35 33 28 21 21
57 48 40 34 27 27 31 37 43 48 54 58 56 53 50 51 42 27 23 25 25 17 8 4 11 22 35 40 40 39 41 41 38 34 34 33 31 33 36 36 35 31 25 20
52 44 38 30 26 25 30 36 39 45 52 52 47 46 46 49 43 32 26 27 27 26 25 26 29 31 34 34 35 37 36 33 34 35 31 30 28 29 36 39 36 33 30 24
47 43 35 26 23 24 27 30 33 39 46 45 40 37 37 36 33 34 36 34 32 29 24 22 24 28 31 33 35 39 37 32 32 32 27 25 26 27 33 40 39 34 33 31
47 40 31 23 21 23 26 28 31 36 39 39 35 29 30 28 26 28 27 24 23 24 23 19 19 26 31 32 34 35 33 28 25 24 22 21 18 20 30 35 34 31 30 28
44 36 29 24 23 25 26 27 29 34 37 37 32 27 26 26 25 25 23 20 19 18 21 22 25 28 29 29 32 31 28 26 22 20 20 19 17 20 24 27 26 25 24 22
40 32 24 21 21 21 21 23 28 33 35 36 32 27 24 23 25 26 28 27 22 19 21 25 27 29 32 31 30 28 25 22 21 22 21 18 18 19 21 23 24 23 21 18

GEFSNGP_500_meanwind_006.txt.gz
Wind_Speed
21 24 25 25 25 26 29 32 34 34 35 36 38 40 43 45 46 48 50 52 54 56 59 60 60 60 61 61 61 61 61 59 55 50 45 44 44 44 43 41 40 37 34 33
23 26 27 28 29 29 30 32 34 36 37 38 39 42 45 48 50 52 55 57 59 60 61 60 59 58 58 58 59 61 62 61 59 55 51 50 49 48 46 44 41 38 33 32
25 25 27 28 29 30 32 34 37 39 40 41 43 47 51 54 54 55 58 61 62 61 60 62 65 67 69 69 68 69 69 68 65 62 59 56 52 48 46 45 42 39 33 30
28 28 31 33 34 36 38 39 41 42 42 44 47 51 54 55 55 56 59 62 65 70 74 77 79 79 79 78 77 76 75 73 70 66 62 57 52 47 46 45 42 39 34 30
31 32 34 36 39 41 43 44 44 45 46 49 53 57 59 65 72 75 76 78 82 85 87 87 87 86 85 84 83 81 79 76 72 68 62 55 50 47 46 45 42 39 34 30
32 35 36 38 40 42 43 45 48 50 53 56 60 64 66 71 75 78 81 83 86 87 89 89 90 90 88 85 82 79 75 71 66 62 56 51 47 46 47 46 43 40 36 31
31 33 36 37 38 40 44 49 53 57 62 66 69 73 75 77 80 83 86 88 88 87 85 81 78 76 75 72 69 65 61 56 51 48 46 44 44 45 46 45 44 42 39 33
30 32 35 38 42 46 51 57 61 66 70 74 78 81 83 84 85 85 83 79 74 70 64 58 55 54 52 49 47 46 43 40 39 40 40 40 41 42 45 47 45 43 41 36
32 36 41 46 51 56 61 65 70 74 78 81 83 83 82 79 73 66 59 55 52 49 45 41 39 39 39 39 39 37 35 34 35 38 41 42 43 44 46 50 47 42 41 37
39 44 48 53 58 63 68 72 76 79 80 79 76 72 66 61 56 50 46 44 43 42 39 37 36 35 36 37 38 37 35 35 37 39 42 43 45 45 47 52 51 43 41 38
46 50 54 58 63 68 73 77 80 79 74 69 64 59 55 50 46 44 44 44 43 43 42 41 41 41 40 41 41 39 38 37 39 40 40 40 40 41 47 54 54 47 42 37
50 55 60 63 68 73 77 79 77 72 64 56 51 47 45 46 47 48 48 48 49 51 52 52 51 50 48 47 46 44 42 39 38 37 37 35 32 34 45 53 56 48 42 37
55 59 64 68 72 75 77 74 68 59 51 43 40 42 45 48 50 53 55 57 58 59 59 59 57 55 53 52 50 47 43 39 36 35 32 29 24 28 42 51 51 48 44 39
58 63 67 71 74 75 73 67 56 44 38 37 40 43 48 52 54 55 57 59 59 59 58 56 54 51 49 48 45 42 37 34 32 30 27 20 18 28 41 44 46 48 44 41
60 66 71 75 75 72 68 57 43 34 34 36 41 46 50 53 53 55 56 57 57 55 53 50 46 43 40 38 36 32 29 27 25 24 20 17 22 32 37 42 47 47 43 40
64 69 74 77 77 73 64 47 35 31 34 39 43 48 51 53 53 55 56 56 55 51 45 40 35 31 29 27 25 23 22 22 21 19 17 20 28 33 36 44 47 46 42 38
67 72 76 78 78 70 54 38 32 32 37 42 46 50 52 52 53 55 55 55 53 48 41 33 26 20 18 17 17 17 19 19 19 18 19 25 29 33 40 45 46 44 39 34
70 75 78 78 74 63 45 33 31 35 40 44 47 51 52 53 53 52 52 52 49 45 39 30 22 14 10 10 12 15 17 18 19 20 24 28 31 35 40 43 44 41 37 33
71 75 76 73 68 58 41 32 33 37 41 44 48 51 52 53 52 49 48 48 47 43 38 30 20 11 4 8 12 15 17 19 21 24 29 32 33 35 39 41 41 38 35 31
71 74 74 70 64 52 39 33 35 38 41 45 48 50 51 52 50 47 45 44 44 42 38 31 21 12 3 7 12 15 19 22 25 30 33 34 33 34 36 38 39 37 33 29
71 73 74 69 60 48 38 34 35 38 42 46 48 49 51 50 48 45 41 40 38 38 38 33 23 14 9 11 16 20 24 28 33 35 35 33 33 34 34 36 36 34 30 27
70 72 72 68 60 47 37 33 35 38 42 45 47 48 48 48 45 40 39 38 36 36 36 32 24 15 13 18 24 29 34 36 36 35 33 31 30 30 31 33 33 30 27 24
69 71 70 66 60 47 35 32 34 38 42 45 46 47 46 45 42 39 37 36 36 35 33 28 22 19 23 29 34 37 38 37 35 33 31 29 27 27 29 30 30 28 24 21
67 69 68 65 59 49 36 31 32 36 40 43 44 44 42 39 36 35 34 33 32 30 25 21 21 26 32 37 39 39 38 35 32 30 28 27 26 26 27 28 28 27 24 21
66 67 66 63 56 47 35 29 30 34 38 40 40 38 36 34 32 32 32 31 28 24 21 20 25 31 35 37 38 37 36 33 31 28 26 25 24 23 23 24 26 26 24 22
65 66 65 61 54 46 36 31 31 34 36 38 37 33 29 28 28 29 29 27 23 22 21 23 26 29 31 32 33 32 31 30 27 24 21 19 18 18 20 21 23 24 24 22
64 65 63 57 49 44 36 30 30 32 35 37 36 30 25 24 25 26 24 22 20 21 23 24 25 25 26 27 27 27 26 24 21 18 16 13 13 15 18 21 22 23 22 20

GEFSNGP_500_meanwind_012.txt.gz
Wind_Speed
21 23 26 27 28 28 30 31 33 36 39 41 43 44 45 45 45 46 48 51 52 54 56 59 62 65 67 69 70 72 74 76 76 76 75 71 66 61 58 53 48 44 42 41
22 24 27 29 29 31 32 33 36 38 41 43 46 48 49 51 53 56 59 62 65 66 67 69 70 72 74 76 77 76 78 79 78 75 74 73 69 65 62 58 54 50 47 46
24 26 29 30 29 32 33 34 36 40 45 48 51 54 57 59 62 65 69 72 76 78 80 81 82 82 84 85 85 86 86 87 87 86 84 83 81 78 74 68 62 57 54 51
24 26 27 28 30 32 35 37 41 47 50 54 58 61 64 68 72 75 77 79 80 81 81 80 78 77 77 78 79 82 84 87 89 90 89 86 84 82 78 73 67 62 56 52
24 26 30 30 33 37 41 44 48 52 56 60 64 67 71 75 78 79 78 75 70 65 60 55 52 50 49 49 50 52 55 59 62 66 69 69 69 70 69 67 65 62 58 53
26 27 30 35 37 41 46 51 55 58 62 67 71 74 75 77 76 70 60 52 45 40 38 37 38 39 40 40 40 40 41 42 42 42 43 44 47 51 54 57 58 56 54 51
27 30 33 36 40 44 49 54 58 62 67 71 75 77 76 68 55 46 39 35 35 36 39 41 42 43 43 44 44 44 44 43 41 38 36 34 34 36 41 46 50 52 52 50
30 33 38 42 45 50 54 59 63 67 71 75 76 71 59 46 38 35 35 37 40 42 43 44 45 46 46 47 47 48 48 46 43 39 34 30 28 29 31 35 41 47 51 53
34 36 41 46 50 54 58 62 66 71 76 77 71 57 42 35 34 36 40 43 45 46 46 47 48 49 49 49 50 50 50 48 45 42 37 32 27 26 27 28 31 36 45 53
37 40 44 48 52 56 60 65 71 76 78 73 59 44 36 35 37 40 43 46 49 49 49 50 51 52 53 52 51 51 51 48 45 42 39 35 30 26 24 24 25 28 33 45
42 45 48 52 56 60 64 69 74 78 75 63 48 38 37 38 41 44 47 50 51 52 52 52 52 53 53 52 51 51 48 46 45 43 40 37 32 28 25 24 24 26 29 37
44 48 51 55 59 63 67 71 76 77 69 53 42 38 39 42 46 49 51 53 54 54 54 53 52 51 49 49 48 47 44 41 40 41 40 38 34 30 27 26 26 27 30 33
47 50 54 58 61 65 69 74 77 73 62 47 39 38 42 46 49 52 54 55 55 55 54 52 50 47 46 45 44 41 37 33 32 35 36 36 33 31 29 28 29 30 32 34
51 54 56 59 62 66 71 75 76 68 55 44 39 40 44 49 52 54 56 56 56 55 53 50 47 44 42 40 37 33 28 25 25 28 31 32 31 30 29 29 30 33 35 36
51 55 57 60 63 67 72 76 74 64 51 41 39 42 47 51 53 54 55 55 54 52 49 45 42 39 36 33 29 24 19 16 17 21 25 26 27 27 28 29 30 33 36 38
52 55 58 61 64 68 74 77 74 61 46 38 39 44 49 52 54 54 53 53 51 47 43 40 36 33 30 25 20 14 7 8 13 18 21 22 23 24 24 25 28 31 35 39
52 55 59 62 65 69 75 76 69 56 43 39 42 47 50 53 52 51 51 49 47 44 39 35 31 28 23 18 11 5 3 9 13 17 19 19 19 19 21 22 25 30 35 40
53 56 60 63 66 70 75 74 65 51 42 42 45 49 51 52 50 49 48 46 45 40 36 31 27 23 18 13 9 8 9 13 16 17 17 17 17 18 20 23 27 33 39 41
53 56 59 63 66 70 74 73 62 48 42 43 47 50 52 51 48 47 47 45 44 39 34 28 24 20 17 14 13 15 16 18 18 19 20 21 22 24 26 29 34 39 42 42
52 55 58 62 66 69 73 71 60 46 42 44 48 50 50 48 46 46 44 44 43 39 33 27 23 20 19 19 19 21 22 23 25 26 27 28 30 31 33 36 39 41 41 40
51 54 57 61 64 68 71 70 60 46 41 44 48 49 47 45 44 43 42 42 40 36 31 26 24 23 23 24 26 27 29 30 32 33 35 35 35 36 37 39 40 40 39 37
50 53 56 60 63 66 69 68 58 46 41 43 46 46 43 41 41 41 41 41 39 36 31 27 27 27 29 31 32 34 35 36 37 37 36 35 35 37 38 38 37 35 34 33
49 52 54 58 61 65 67 66 56 43 38 41 43 42 40 39 39 39 39 38 37 35 33 31 31 32 33 34 35 36 36 36 36 36 35 34 34 34 34 34 33 31 30 30
48 50 53 56 60 62 65 63 53 40 35 38 39 38 35 34 34 35 35 34 35 35 34 34 33 34 34 34 34 34 33 33 33 32 31 30 29 29 29 28 27 27 27 27
47 49 51 55 57 60 62 62 52 37 31 33 34 33 31 29 29 30 30 30 30 30 30 30 30 31 32 31 31 30 30 29 28 27 27 26 25 24 24 23 23 23 22 22
46 47 50 53 56 58 60 60 52 37 28 28 29 27 25 23 23 24 24 25 24 25 25 25 25 26 26 27 27 26 26 25 25 24 23 22 21 21 20 20 20 19 19 19
45 46 49 52 54 56 57 58 52 39 28 24 24 23 21 19 17 17 19 19 19 18 19 20 20 20 20 21 21 21 21 21 20 19 19 19 19 19 18 18 17 17 17 17

GEFSNGP_500_meanwind_018.txt.gz
Wind_Speed
15 15 16 18 20 22 26 29 32 36 39 47 48 50 53 56 59 63 66 69 70 71 73 76 77 78 77 76 74 73 73 75 77 80 81 80 80 79 78 77 75 72 70 67
16 16 17 20 20 24 30 35 38 41 43 50 54 57 59 62 65 68 71 72 74 76 77 76 73 68 62 57 53 51 49 48 50 54 60 66 72 76 79 80 81 80 77 75
17 16 19 23 25 30 35 39 44 47 49 52 55 58 61 64 67 71 73 76 78 75 69 60 50 43 39 37 36 36 35 34 34 34 34 35 39 46 54 62 70 75 78 78
19 20 22 26 28 34 38 42 47 50 53 56 59 61 63 66 71 75 77 76 69 59 48 41 37 37 38 40 41 42 41 41 41 39 36 34 33 32 33 35 41 49 57 64
22 22 28 32 34 39 44 48 53 55 57 60 63 65 67 71 75 75 70 62 52 44 39 38 39 40 42 43 45 45 45 45 44 43 41 39 36 34 34 34 34 34 37 43
25 28 31 36 41 45 49 51 56 58 60 62 65 68 70 72 71 64 56 48 42 39 39 40 43 45 47 48 49 49 49 48 47 46 45 43 42 40 38 37 35 34 32 32
28 30 36 39 44 46 49 52 54 56 59 64 68 72 72 68 60 52 45 41 40 42 44 47 49 51 52 52 52 52 51 50 49 48 47 46 45 43 40 39 37 35 33 31
30 33 38 42 46 50 53 57 59 62 65 69 71 71 66 59 51 45 42 42 44 47 50 52 54 56 55 55 54 53 52 51 50 48 48 47 45 43 41 39 38 36 34 32
33 36 40 45 49 52 56 59 62 65 68 71 72 68 60 52 46 45 46 47 50 53 55 57 58 58 58 57 55 54 52 50 49 47 45 44 42 41 40 38 37 35 34 31
34 38 42 47 50 53 56 60 63 66 70 71 69 62 54 49 48 49 51 54 56 58 59 58 57 57 56 55 53 51 48 46 44 43 41 39 38 38 37 36 35 33 32 30
38 42 44 47 51 54 57 61 64 68 70 70 65 57 51 50 51 54 56 57 57 57 55 54 53 52 50 49 47 45 44 42 39 37 35 34 33 33 32 31 31 30 29 28
40 44 47 50 52 56 59 62 65 68 69 67 59 53 51 53 56 57 57 57 55 54 53 51 49 46 44 43 42 40 37 35 32 31 30 29 28 28 27 27 27 27 26 24
41 44 47 50 52 56 59 62 65 67 68 63 55 51 52 55 56 56 57 56 54 52 49 47 45 42 38 36 34 32 29 27 25 24 23 23 23 23 23 24 25 25 24 22
43 45 47 49 52 56 60 62 64 66 64 58 52 51 53 54 55 55 56 55 53 51 48 46 42 38 34 30 26 23 21 20 17 15 14 15 16 18 20 21 22 22 20 18
44 46 47 49 51 55 58 60 63 63 62 54 50 50 51 53 53 54 55 54 52 50 46 43 41 37 32 28 24 21 18 15 11 7 5 8 12 15 18 19 19 18 16 15
42 44 46 47 50 54 57 60 62 62 59 51 47 47 49 51 52 53 53 53 52 49 45 43 41 38 34 29 25 21 18 14 10 5 5 9 13 16 19 19 18 17 16 16
41 44 45 47 50 54 57 59 61 61 56 48 44 44 46 49 50 51 52 52 51 49 47 43 40 38 35 31 27 23 20 17 15 13 12 14 16 18 19 19 18 17 16 17
42 44 46 48 50 54 56 57 59 58 54 46 41 41 43 46 48 50 50 49 48 48 46 44 42 39 36 34 30 27 23 20 17 15 15 15 16 17 17 17 17 17 17 19
41 43 45 47 49 53 55 56 57 57 52 44 38 38 39 41 43 46 47 46 45 44 44 43 42 41 39 36 33 30 27 23 19 15 13 12 13 14 16 16 17 19 20 20
41 43 44 45 48 51 53 54 55 55 51 44 37 35 35 36 38 40 42 43 43 42 42 42 42 42 41 39 37 35 31 28 24 20 17 14 14 15 16 18 19 21 22 23
40 42 43 44 46 50 52 52 52 53 51 44 36 32 31 32 34 36 37 38 38 39 39 39 39 40 41 40 39 39 37 34 31 27 25 23 22 21 21 23 24 25 26 26
40 42 42 42 44 48 50 50 51 52 51 45 36 30 28 27 28 30 32 33 34 34 34 35 35 35 36 37 37 38 38 37 36 34 32 31 30 29 29 29 29 28 28 28
40 41 41 41 43 46 48 48 49 50 50 46 38 31 27 25 24 25 26 28 28 29 30 30 30 30 30 31 33 34 34 35 35 35 35 34 34 33 32 32 31 30 30 30
40 41 40 41 42 44 45 46 46 47 49 48 42 33 26 23 22 21 22 23 24 24 25 25 26 26 25 26 27 28 28 29 30 30 30 30 30 31 31 31 30 30 29 28
40 40 40 40 41 43 44 44 43 44 46 47 44 37 28 22 20 18 18 18 18 19 20 21 20 21 21 21 21 21 22 22 23 23 24 24 25 25 25 25 25 25 24 24
40 40 40 40 41 42 42 42 42 42 43 45 44 39 31 24 20 17 16 15 14 14 15 16 16 16 16 16 17 17 16 16 17 17 18 18 18 18 18 18 19 19 19 19
39 39 39 39 40 41 41 41 41 41 41 43 43 40 33 25 19 17 15 14 12 11 11 11 12 12 11 12 12 12 11 11 11 11 11 12 12 13 13 13 14 14 14 14

GEFSNGP_500_meanwind_024.txt.gz
Wind_Speed
13 14 14 14 15 18 22 26 30 33 36 40 44 47 51 54 57 60 63 65 67 68 68 67 65 63 60 57 54 51 48 43 39 36 34 32 32 32 33 35 40 47 55 64
14 16 15 15 18 22 25 28 31 34 38 42 45 48 51 55 57 60 62 64 63 62 61 60 58 56 54 52 50 47 45 43 41 40 38 37 35 34 33 32 32 33 37 44
15 18 18 18 21 25 29 32 35 39 43 46 48 51 55 58 60 62 62 59 58 57 57 56 55 54 53 52 51 49 48 46 46 45 44 43 41 39 37 36 36 35 33 34
19 20 20 22 26 30 34 37 40 43 46 49 53 54 56 59 60 58 55 55 56 56 57 57 57 56 55 54 53 52 52 52 51 51 49 47 46 44 41 40 38 37 35 33
24 26 26 27 30 33 37 40 43 45 48 51 53 53 54 56 55 54 54 55 56 57 58 58 57 57 56 54 53 53 52 53 53 53 53 51 49 47 45 42 40 39 37 35
25 27 29 31 33 36 39 41 43 46 49 52 55 56 55 54 52 51 52 53 55 56 57 57 57 56 54 52 51 50 50 50 50 52 52 51 49 47 46 44 42 40 39 38
25 27 29 32 35 37 39 42 45 49 53 56 57 57 56 52 49 49 50 53 55 56 56 56 56 54 52 50 49 47 46 45 45 46 48 48 48 46 45 44 42 40 39 38
27 30 32 34 36 39 42 45 48 51 54 55 56 55 53 50 48 48 50 53 55 56 57 57 56 54 51 48 45 43 41 39 38 39 40 41 42 42 42 42 40 39 39 39
27 30 32 34 38 42 45 47 48 51 53 55 55 54 51 48 47 48 50 53 55 56 57 56 55 54 50 47 44 41 38 35 33 32 32 34 35 36 37 37 37 37 37 37
26 29 32 35 39 42 43 44 47 50 53 54 54 53 49 46 46 47 50 52 54 56 56 56 55 53 51 47 44 40 35 30 27 25 25 25 27 29 30 31 32 32 33 34
25 29 32 34 37 39 41 43 46 49 52 54 54 53 49 45 45 47 49 51 53 55 56 56 55 53 51 48 44 40 34 28 24 21 19 19 19 22 24 26 27 28 29 31
27 30 32 34 37 40 42 44 47 50 52 53 54 52 48 45 44 45 47 50 52 54 56 56 55 54 52 48 45 40 34 28 23 20 15 12 11 12 16 19 22 24 25 27
29 31 33 35 38 41 43 45 47 50 52 52 53 52 47 44 43 44 45 49 51 53 55 56 55 53 52 49 44 40 35 29 24 19 14 8 2 5 9 13 16 19 21 23
29 31 33 34 37 40 42 44 46 49 51 51 52 51 47 44 42 42 44 47 49 52 54 55 54 53 51 49 44 41 36 30 25 20 16 11 7 5 7 9 12 15 18 20
31 32 33 34 37 40 42 44 46 48 50 50 51 51 48 44 42 40 42 44 46 49 51 53 54 53 51 48 44 41 37 32 27 22 18 15 12 10 10 11 11 13 15 16
32 33 34 35 37 41 43 44 45 48 49 49 50 51 49 45 42 39 40 42 43 46 48 51 53 53 51 47 43 39 36 33 29 25 21 19 17 15 13 11 10 11 12 13
32 33 34 35 37 40 43 44 45 48 50 50 49 50 50 46 42 38 38 39 41 43 45 48 50 52 51 47 42 39 35 32 29 26 24 22 20 17 15 13 11 11 11 12
32 33 34 36 38 40 42 43 45 47 49 50 49 49 50 48 43 39 36 36 37 39 41 44 47 49 50 48 43 38 35 30 27 25 23 21 20 19 18 16 15 14 14 14
33 34 35 37 38 40 42 43 44 46 48 49 48 48 49 48 45 40 36 33 34 35 37 39 42 44 47 47 44 40 36 32 28 25 23 22 21 20 19 18 18 18 19 20
34 35 36 38 39 41 42 43 44 45 47 48 48 47 47 47 45 41 36 33 32 33 34 35 37 39 41 43 43 39 36 33 30 26 24 23 22 21 21 21 21 22 23 24
35 36 37 39 40 42 43 43 44 45 46 47 47 46 45 46 45 42 36 31 29 29 30 31 32 34 36 38 39 37 35 32 30 27 25 24 23 23 23 24 25 25 26 28
37 38 39 40 41 42 43 44 44 44 45 46 46 45 43 43 44 43 38 32 28 26 26 26 28 29 30 32 34 34 33 31 29 27 26 24 24 23 23 23 24 25 27 28
38 39 40 41 42 43 43 44 44 44 44 44 44 43 42 41 41 41 39 33 28 24 23 23 23 24 25 26 27 29 30 29 27 26 25 24 23 22 22 22 23 24 26 26
42 43 43 43 43 44 44 44 44 44 44 43 43 42 41 40 40 40 39 34 29 23 20 19 19 20 20 20 21 23 24 25 25 24 22 22 21 21 20 20 20 22 23 23
45 46 45 44 44 44 43 43 42 42 42 42 41 41 40 39 38 38 38 35 30 24 20 17 16 16 16 16 16 17 17 19 20 21 20 20 19 20 19 19 19 19 19 20
44 46 46 45 44 44 42 41 41 40 40 39 39 39 38 37 36 37 37 35 30 24 19 16 15 14 13 12 12 12 12 12 14 15 16 16 17 17 18 19 19 19 19 20
43 44 46 45 44 43 41 40 39 38 37 37 37 36 36 35 35 35 35 34 31 26 20 16 14 13 12 11 10 8 7 7 8 9 10 11 11 13 14 15 16 17 17 17

GEFSNGP_500_meanwind_030.txt.gz
Wind_Speed
12 12 13 15 17 20 22 25 27 29 31 33 36 38 41 43 45 47 47 48 47 45 44 45 47 49 52 55 57 59 61 61 61 60 57 54 51 49 46 45 45 44 44 45
14 15 16 18 21 22 24 26 28 30 32 35 37 40 43 45 47 47 48 47 45 43 43 44 47 50 53 56 58 60 61 62 61 60 58 54 50 47 45 45 45 45 44 42
16 16 17 20 22 24 25 27 30 32 34 36 38 41 45 46 47 48 48 46 44 42 43 45 48 51 54 58 60 61 62 61 60 58 55 52 49 45 44 44 46 47 46 44
17 18 20 22 24 25 26 28 31 34 36 38 40 42 46 48 49 49 47 45 42 42 43 47 50 53 57 59 61 62 61 61 59 56 53 50 47 44 42 42 44 46 47 46
19 21 22 24 26 27 29 30 33 36 39 41 41 41 44 46 48 48 47 45 43 43 45 48 51 54 58 60 61 61 61 60 57 55 51 47 43 40 38 38 39 43 46 46
22 23 25 26 27 29 31 32 35 38 40 43 44 45 45 46 48 49 48 46 45 45 46 49 52 55 58 60 60 60 59 57 55 51 46 41 36 34 33 33 35 37 41 43
23 23 24 26 28 31 33 35 37 39 41 44 46 48 49 49 51 52 50 48 46 45 47 49 52 56 57 59 59 59 57 55 52 48 43 37 32 28 27 27 31 35 37 39
23 23 25 26 29 31 32 34 36 39 41 43 45 47 49 49 51 52 51 48 46 45 46 49 53 56 57 58 58 56 55 52 49 46 40 34 28 23 22 22 26 31 34 36
22 23 25 27 29 31 33 34 37 39 41 43 45 47 49 50 50 52 52 49 46 45 46 49 52 55 56 57 55 53 52 50 47 44 38 32 26 20 17 18 21 26 30 33
22 23 25 27 29 31 33 35 37 40 42 44 46 48 50 50 51 51 52 50 47 45 45 47 50 53 55 55 53 51 51 48 46 42 37 31 24 18 13 11 13 19 25 28
22 24 26 28 30 32 34 36 38 40 43 44 46 48 50 50 51 51 52 50 47 45 44 46 48 51 53 53 51 50 49 47 44 41 37 31 25 19 13 7 6 11 18 23
23 25 27 29 31 33 35 36 38 40 43 44 46 47 49 50 51 51 51 51 47 44 43 44 47 49 50 51 49 48 47 45 42 40 36 32 27 21 15 9 3 5 12 17
24 26 28 30 32 33 35 37 38 40 42 44 45 47 49 50 51 51 51 51 47 43 41 42 45 47 48 49 48 47 46 44 41 38 36 32 28 22 17 12 7 3 7 12
26 28 29 31 32 34 36 37 39 41 43 44 45 47 49 50 50 50 50 49 47 43 41 41 42 45 45 47 46 45 44 43 40 37 35 32 27 23 19 15 10 6 6 9
28 30 31 32 34 36 37 38 40 41 43 44 46 46 48 49 49 49 49 49 47 44 40 39 40 42 43 44 45 44 43 41 39 36 34 32 28 24 19 15 12 9 7 9
30 31 32 33 35 37 38 40 41 42 44 45 45 46 47 48 48 49 49 48 47 44 39 37 37 39 41 42 42 42 41 40 39 36 34 32 28 24 20 16 13 10 9 9
32 33 34 35 36 38 40 41 42 43 45 46 47 46 46 46 46 47 47 47 46 44 40 36 35 36 38 39 40 39 39 38 37 36 33 31 29 26 21 17 14 11 8 8
35 35 36 37 38 39 41 42 43 44 46 47 47 47 46 45 45 45 45 44 44 43 39 35 33 33 35 36 37 37 37 36 35 34 33 31 28 26 24 19 16 13 11 10
37 37 38 39 40 41 42 42 44 45 46 46 46 46 46 45 44 45 44 43 42 41 37 33 30 29 31 32 33 34 34 34 33 33 32 30 28 27 25 21 18 16 14 13
39 40 40 41 41 41 41 42 44 45 45 45 45 45 44 43 43 42 43 42 41 39 37 34 29 27 28 28 30 30 31 31 30 29 30 30 28 26 25 24 21 18 16 15
41 41 41 41 41 40 40 41 42 43 45 45 46 45 43 42 42 41 41 40 39 38 36 33 29 25 24 25 26 27 27 27 27 26 26 26 27 26 25 24 23 21 20 19
41 41 41 40 40 39 39 40 41 43 45 46 46 45 43 41 40 40 40 39 37 36 35 32 28 24 21 21 22 23 24 24 24 24 23 22 23 24 23 23 23 23 23 23
42 42 41 39 38 38 39 40 41 43 45 47 46 45 43 41 39 38 37 37 36 35 34 31 28 23 19 18 18 19 20 21 21 21 21 20 20 20 20 20 21 22 22 23
42 41 39 37 36 39 41 41 42 44 46 47 46 44 42 40 39 38 36 35 34 33 32 30 27 23 18 15 14 15 16 16 17 18 18 18 17 17 18 18 18 19 20 20
43 41 39 36 38 39 41 42 44 46 46 46 45 43 41 39 37 36 35 34 33 31 30 29 27 22 18 14 12 11 11 12 12 13 15 15 15 15 15 15 15 16 17 18
46 43 41 40 41 42 43 44 45 45 44 44 43 41 40 38 37 36 35 34 32 30 29 28 26 22 17 13 11 9 8 8 8 8 10 11 12 12 12 13 13 14 15 16
48 44 41 41 40 41 43 44 44 44 43 41 40 39 38 37 36 35 34 33 31 29 27 26 25 22 17 13 10 9 7 6 5 4 5 6 7 8 9 10 10 11 12 13

GEFSNGP_500_meanwind_036.txt.gz
Wind_Speed
9 11 13 14 14 15 15 16 17 20 22 25 28 31 34 35 37 39 41 42 43 43 43 42 42 41 40 39 40 41 44 47 49 51 54 55 56 56 55 55 54 54 55 56
12 13 15 15 15 16 16 18 19 21 24 27 29 32 35 36 38 40 42 43 43 44 43 43 43 42 40 39 40 42 45 48 50 52 54 55 55 55 54 53 52 51 50 51
14 15 16 15 15 16 17 20 21 24 26 29 30 33 36 38 40 42 43 44 44 44 44 44 43 42 40 40 41 43 47 49 52 53 54 54 54 53 51 49 48 46 45 46
15 16 16 16 16 16 18 21 23 25 27 29 31 34 36 38 40 42 44 45 46 46 45 45 44 43 41 41 42 45 48 50 52 53 53 53 52 50 48 46 43 40 38 39
17 18 17 17 16 18 20 21 24 26 28 30 32 36 38 40 42 44 46 47 48 48 47 47 45 43 42 42 43 46 49 51 52 53 52 52 50 47 44 40 36 34 33 33
19 19 18 19 19 20 22 23 25 27 29 31 33 36 39 42 44 46 47 48 49 49 48 48 46 44 43 43 44 47 49 51 52 52 52 50 47 44 40 35 31 27 26 26
19 20 20 20 20 22 24 26 27 29 31 33 36 38 40 42 44 47 48 49 49 49 49 48 47 45 44 43 45 47 49 50 51 51 51 48 45 41 36 32 27 23 20 19
19 19 22 21 22 23 24 26 28 30 32 34 37 40 42 44 46 48 49 49 49 48 48 48 47 45 44 43 44 46 48 49 49 49 49 46 43 39 34 30 24 19 15 14
20 20 21 22 23 24 26 27 29 31 33 36 38 41 44 46 48 49 50 49 48 48 47 47 47 46 44 43 44 46 47 48 48 47 47 44 42 37 32 28 22 16 12 11
20 21 22 23 24 25 27 28 30 32 34 37 40 43 45 48 49 50 50 49 48 47 47 46 46 45 44 43 43 45 46 46 46 45 44 43 40 36 31 26 21 15 9 7
20 21 22 23 24 26 28 29 31 33 35 38 41 44 47 49 50 49 49 49 48 47 46 46 45 44 43 42 42 43 44 45 44 44 43 41 38 34 31 26 21 14 8 3
20 21 22 24 25 27 29 30 32 34 37 39 43 46 48 49 49 49 49 48 47 46 46 45 44 43 42 41 41 42 42 43 43 42 41 39 36 33 29 26 21 16 9 1
20 21 22 24 26 27 30 32 34 36 39 41 44 47 48 48 48 48 48 47 46 45 44 44 43 42 41 40 40 40 41 41 41 41 39 37 34 31 28 25 21 16 10 5
20 21 23 25 27 29 31 34 36 38 41 43 45 46 46 46 47 48 48 47 46 45 44 43 42 41 40 38 38 39 39 39 39 39 37 35 32 29 27 23 19 16 12 7
22 23 25 27 29 32 34 36 39 41 42 44 45 45 44 44 46 47 48 47 46 44 43 43 42 40 39 37 36 37 37 37 37 37 36 34 31 28 25 22 18 14 11 8
25 27 29 30 32 34 37 39 40 42 43 44 44 43 43 43 45 47 48 48 46 44 43 42 41 39 38 36 35 35 35 36 35 35 35 33 31 28 25 21 18 14 10 8
30 31 32 34 35 37 39 40 41 42 43 42 42 41 41 42 44 46 47 47 46 44 43 41 40 38 37 35 33 33 33 34 33 33 33 32 30 27 24 21 17 14 11 9
34 35 36 36 38 39 40 40 40 41 41 41 40 40 40 42 43 44 45 45 45 44 43 41 39 37 36 34 32 31 31 31 31 31 31 31 29 26 24 20 16 13 11 9
37 37 38 39 39 40 39 39 39 39 40 39 39 38 39 41 42 43 44 44 43 43 42 40 38 37 35 33 30 28 28 29 29 28 29 29 28 26 24 21 16 14 11 9
40 40 40 40 40 39 39 39 38 39 39 39 38 38 38 40 41 42 43 42 42 42 41 39 37 35 33 31 29 26 26 26 26 26 26 26 26 25 24 22 18 16 14 11
43 42 42 41 41 39 39 38 38 39 39 38 38 38 38 40 40 41 41 41 41 41 39 37 35 34 32 29 27 24 23 23 23 24 24 24 24 24 23 22 20 17 16 15
45 44 43 42 42 40 39 38 38 39 39 39 38 38 38 38 38 39 39 38 38 38 38 36 34 32 30 28 25 22 20 20 20 21 21 21 21 21 22 21 20 18 17 16
46 46 45 45 44 42 39 39 39 39 39 39 39 39 39 37 36 36 36 36 36 36 36 35 33 31 29 26 23 20 18 17 17 17 18 19 18 19 19 20 19 19 17 16
51 49 47 46 46 41 39 39 39 39 39 39 38 38 37 36 35 34 33 33 33 34 34 33 31 29 27 25 22 19 16 14 13 13 15 16 16 16 16 17 18 18 17 17
54 53 51 48 45 42 40 41 41 40 39 38 38 37 36 35 33 33 32 32 32 32 32 31 29 27 25 23 21 17 15 12 10 10 11 12 13 13 13 14 15 16 16 16
57 55 52 49 46 44 43 43 41 40 38 37 37 37 35 34 33 32 31 30 30 30 30 29 28 25 24 22 20 17 14 11 8 7 7 8 9 10 10 10 11 12 13 14
58 56 54 52 50 48 46 44 41 40 39 38 38 38 37 35 33 31 30 29 29 28 28 27 26 24 23 21 19 16 13 10 8 6 5 5 5 5 6 7 8 9 9 10

GEFSNGP_500_meanwind_042.txt.gz
Wind_Speed
8 10 11 12 13 14 14 14 14 17 20 24 24 25 27 28 30 33 35 38 40 42 43 43 44 44 45 45 45 45 45 44 43 43 42 42 43 44 47 49 50 51 52 53
8 9 11 13 15 16 16 17 18 19 21 24 25 27 28 29 32 34 37 39 41 43 44 44 45 45 45 46 46 46 45 44 44 43 42 42 44 45 47 49 49 50 51 51
9 9 10 13 16 18 19 19 21 22 24 25 25 28 29 30 33 35 38 40 42 44 45 45 46 46 46 46 46 46 45 45 44 43 42 43 44 46 47 48 49 49 48 47
11 9 10 15 18 20 21 21 21 23 25 26 28 31 31 31 34 37 40 42 44 45 45 46 46 46 47 47 47 46 46 45 44 43 43 43 45 46 47 47 47 46 44 42
14 12 11 15 22 21 22 23 21 22 24 25 28 32 35 34 37 40 42 43 44 45 46 46 46 47 47 47 47 47 46 44 44 43 43 44 45 46 46 46 44 42 40 39
17 16 13 16 21 21 24 27 23 24 26 28 29 30 34 36 38 40 42 43 44 44 46 46 47 47 47 48 47 46 45 44 43 43 44 44 45 45 44 43 41 39 38 36
20 19 18 23 23 23 26 27 26 27 28 29 30 31 33 35 38 40 42 43 43 45 46 47 48 48 48 48 47 46 45 44 43 43 44 44 44 43 43 41 39 38 36 33
22 21 22 27 27 27 27 26 26 27 28 29 30 31 34 36 39 41 42 42 43 44 46 48 49 48 48 48 47 46 45 43 42 43 43 43 42 41 40 38 37 36 34 30
21 24 28 29 29 29 28 27 26 27 28 29 30 32 35 37 39 41 42 42 43 44 46 47 49 49 49 48 47 45 44 42 42 42 42 41 40 39 38 37 36 35 32 28
22 22 26 28 29 29 28 27 27 27 28 29 31 33 36 38 39 40 41 42 43 43 45 47 48 49 49 48 46 45 44 42 41 41 41 39 39 39 37 35 35 33 30 25
25 24 26 26 27 28 28 27 27 27 29 30 32 34 37 38 39 40 41 41 42 43 45 47 48 49 49 48 46 44 43 42 40 40 40 38 37 37 36 34 33 31 28 24
25 26 27 27 28 28 27 27 27 28 30 32 34 36 37 39 39 40 40 41 42 43 45 47 49 49 49 48 46 44 43 41 40 39 38 37 36 36 35 33 30 28 25 22
27 26 26 27 28 28 28 28 29 30 32 33 35 37 38 39 39 40 41 41 42 43 45 47 48 49 49 48 45 44 42 40 39 38 37 36 35 34 33 31 28 26 23 20
28 28 27 26 27 29 30 31 32 33 35 36 37 38 39 40 40 41 41 42 43 44 45 47 48 48 48 47 45 43 41 39 38 37 36 35 34 34 32 29 26 23 21 18
28 29 28 28 29 30 31 33 34 36 38 39 40 40 41 41 41 41 41 42 43 43 44 46 47 47 47 46 44 42 40 38 36 35 35 34 33 33 30 27 24 21 19 17
30 31 31 32 33 34 35 37 38 39 41 42 43 42 42 42 42 41 41 42 42 42 44 45 46 46 45 45 43 41 39 37 35 34 33 33 33 31 29 26 23 20 18 15
34 35 36 37 37 38 40 41 42 42 43 44 44 44 43 43 42 42 42 42 42 42 43 44 44 44 44 43 42 39 37 35 33 32 32 32 32 31 27 24 23 21 18 15
39 40 41 41 42 42 43 43 43 43 44 44 44 44 43 43 42 42 42 42 42 42 42 42 42 42 42 42 40 38 36 33 31 30 30 30 30 29 26 24 22 21 19 16
42 44 44 45 45 46 45 44 44 44 45 44 44 44 44 44 43 42 42 41 41 42 41 40 39 40 40 40 39 36 34 32 30 29 28 28 28 27 25 22 21 20 18 17
45 46 47 47 48 48 48 47 47 46 46 45 45 45 45 45 44 43 43 41 41 40 39 37 37 37 38 38 37 35 32 30 28 26 25 25 26 25 23 20 20 20 18 18
48 48 49 50 51 51 51 51 50 49 48 47 47 46 47 46 44 43 42 41 39 37 36 35 35 35 35 35 34 33 30 28 26 24 22 22 23 23 21 19 18 18 18 17
52 52 52 53 53 54 53 53 53 51 51 50 49 49 48 47 45 44 42 40 38 36 34 33 33 33 33 33 32 31 29 26 24 22 20 19 20 20 20 18 17 17 17 17
57 57 57 57 57 57 56 55 55 54 54 53 52 50 48 47 47 46 44 41 38 35 34 32 31 30 30 30 30 29 27 24 22 19 18 17 17 17 17 17 16 15 16 16
60 61 61 61 60 59 58 57 56 56 55 55 53 51 49 47 46 44 42 40 38 35 33 31 30 29 28 28 27 26 25 23 20 18 16 15 14 14 14 15 14 14 13 14
61 62 61 61 60 59 58 57 56 56 55 54 52 50 48 45 44 43 42 38 36 35 33 31 29 28 27 26 25 24 23 21 19 16 14 13 12 11 11 11 11 11 11 12
61 60 59 59 58 57 56 55 54 54 53 52 50 48 46 44 43 41 40 38 35 34 33 31 29 27 25 24 23 22 21 20 17 15 13 11 10 9 8 8 9 9 9 9
61 60 59 57 56 54 53 51 50 49 48 47 46 44 44 42 41 40 38 37 36 34 32 30 27 24 22 22 21 20 20 18 16 14 12 11 9 8 7 6 6 6 6 7

GEFSNGP_500_meanwind_048.txt.gz
Wind_Speed
8 9 10 10 10 12 14 15 16 17 18 20 21 23 24 25 28 30 31 33 35 37 37 38 38 39 39 40 42 43 44 44 45 44 44 43 42 41 41 40 40 39 39 40
8 10 11 12 12 13 15 16 18 19 20 22 23 24 25 27 29 30 31 33 36 37 38 38 39 40 41 42 43 44 46 46 46 46 44 43 42 41 40 40 39 39 40 40
8 10 11 12 13 13 14 16 19 20 22 23 24 25 25 27 29 30 31 34 36 37 38 39 40 41 42 43 45 46 47 47 47 46 45 44 42 41 41 40 39 39 39 39
10 10 11 12 14 15 16 18 19 20 22 24 26 25 25 27 29 30 32 35 37 38 39 40 41 42 43 44 46 47 48 48 48 47 45 44 43 42 41 40 39 39 38 39
11 12 12 13 14 15 17 19 20 23 25 26 26 26 26 28 30 31 33 36 37 39 40 41 42 42 43 45 46 48 49 49 48 47 46 45 43 42 41 40 39 38 38 39
13 13 12 11 12 16 19 21 22 24 25 26 27 27 28 29 30 32 34 36 38 39 40 41 42 43 44 45 47 48 49 49 48 48 46 45 43 42 40 39 38 38 38 38
15 16 16 16 17 19 21 23 23 23 24 25 26 27 28 29 31 33 35 37 38 40 41 42 43 44 45 46 47 48 49 49 49 48 46 45 43 42 40 39 38 38 38 36
20 21 22 21 22 22 23 23 23 23 23 24 25 27 28 30 32 34 36 37 39 41 42 42 43 44 45 46 47 48 48 49 49 48 46 44 43 41 40 39 38 37 36 35
23 23 23 24 25 25 25 25 24 24 23 24 26 27 29 31 33 35 37 38 39 41 42 43 43 44 45 46 47 48 48 48 48 48 46 44 42 40 39 38 37 36 34 32
26 25 25 26 26 27 26 26 25 24 24 25 27 28 30 32 35 36 38 39 40 42 42 43 43 44 45 46 47 48 48 48 48 47 45 43 42 40 38 38 36 34 32 31
26 26 25 25 25 26 27 27 26 26 26 27 28 30 32 34 37 38 39 41 42 42 42 42 43 44 45 45 46 47 47 47 47 46 44 42 40 39 38 37 35 32 31 29
27 26 26 26 26 27 28 29 29 29 29 29 30 32 34 37 39 40 41 42 43 43 43 43 44 44 45 45 46 47 47 46 46 45 43 41 39 38 38 36 34 31 30 28
28 28 28 28 29 29 30 31 32 32 32 32 33 35 37 39 41 42 43 43 44 44 44 44 45 45 45 46 46 47 46 45 44 44 42 40 38 37 35 34 32 31 29 28
29 29 30 30 30 31 31 32 33 33 34 35 37 38 40 41 42 43 44 44 45 45 45 45 46 47 47 46 46 46 45 44 43 42 41 39 37 36 34 32 31 29 28 26
29 30 31 31 32 32 33 33 34 35 37 38 40 40 41 41 43 44 45 46 47 47 47 47 48 48 48 46 46 45 44 43 42 41 39 37 35 34 32 31 29 28 26 25
30 31 32 32 33 34 35 37 38 40 41 42 42 43 43 43 44 46 47 48 49 49 48 50 50 50 48 46 45 44 43 42 40 39 37 35 34 32 30 29 27 26 25 24
31 32 33 34 35 37 39 41 42 43 44 45 45 46 47 47 47 48 50 51 51 51 51 52 51 49 47 45 44 43 42 40 38 37 35 33 32 30 28 26 26 26 25 23
33 34 36 37 39 41 43 44 46 47 47 48 48 49 49 50 50 52 53 52 52 52 52 52 50 50 48 46 44 43 40 38 36 35 33 32 29 28 26 24 24 24 24 23
37 39 40 42 44 45 47 48 49 50 51 52 52 52 52 53 54 55 55 54 53 52 52 51 50 49 47 45 43 40 37 35 34 32 31 29 27 25 24 23 22 23 23 22
42 43 44 45 47 49 50 51 52 53 53 54 55 56 56 57 57 57 56 54 52 51 50 49 48 47 45 42 39 37 35 33 31 30 29 27 25 23 22 21 20 21 21 21
47 47 48 49 50 51 53 54 55 55 56 57 59 59 59 58 57 56 54 52 50 49 48 46 45 43 40 39 37 34 32 30 29 27 27 25 23 21 20 19 19 18 19 19
50 50 50 51 52 54 56 57 58 59 59 60 60 60 59 57 55 53 51 49 47 46 44 43 40 39 37 35 33 32 31 29 27 25 25 23 21 19 18 17 16 16 17 17
51 52 53 54 56 57 58 59 60 60 60 59 59 57 56 54 51 49 47 46 44 43 41 39 37 35 34 33 31 30 28 27 25 24 23 21 19 17 16 15 14 14 15 15
56 57 58 59 59 60 60 60 60 60 59 57 56 54 52 49 47 46 45 43 41 39 37 35 34 32 31 30 29 28 27 25 23 22 21 19 17 15 13 12 12 11 12 13
60 60 61 61 60 60 60 60 59 58 56 55 53 51 49 47 45 43 41 38 36 34 33 31 29 28 27 26 26 25 24 22 21 20 20 18 16 14 12 11 10 9 10 11
63 63 63 63 62 62 61 60 58 57 55 53 51 49 47 45 42 40 37 35 33 32 29 27 26 25 25 24 23 23 22 20 19 19 18 17 15 13 11 9 8 8 8 8
64 64 64 64 63 63 62 61 59 57 55 52 50 48 45 43 40 37 34 33 31 29 27 25 23 22 22 21 21 21 20 18 18 18 17 16 14 12 10 8 7 6 6 6

GEFSNGP_500_meanwind_054.txt.gz
Wind_Speed
13 14 14 13 14 14 13 13 13 12 14 16 18 20 21 22 22 21 21 22 23 24 26 28 30 33 35 37 38 39 39 40 41 43 44 45 46 46 46 45 45 45 43 42
13 14 14 13 14 14 14 15 14 14 16 18 20 22 23 23 22 22 22 23 24 25 28 30 32 34 37 39 39 40 40 41 42 44 45 46 46 47 46 46 46 45 43 41
13 15 15 15 15 14 14 14 14 15 18 20 22 23 23 23 22 22 23 24 25 27 29 32 34 36 39 40 41 41 41 42 43 45 46 47 47 47 47 46 45 44 42 40
13 13 14 13 14 13 13 13 14 17 19 21 23 24 23 23 22 23 23 25 26 29 31 33 35 37 39 41 41 42 42 43 44 46 47 48 48 47 47 46 45 43 42 40
13 13 11 11 13 13 13 14 16 18 20 22 23 23 23 23 23 24 25 26 28 30 32 34 36 38 40 41 41 42 43 44 45 47 48 48 48 47 46 46 44 43 42 41
15 14 12 11 13 13 14 14 17 19 21 22 23 23 23 24 24 25 26 28 30 32 34 35 37 39 40 41 42 43 44 45 46 48 48 48 47 46 46 45 44 43 42 40
17 16 13 14 15 15 16 17 18 19 21 23 24 25 25 25 26 27 28 30 31 33 35 37 38 40 41 42 43 44 45 46 48 49 48 48 47 47 46 45 43 42 41 39
19 18 18 18 18 18 19 19 20 22 23 24 25 26 27 27 28 29 30 31 33 35 37 38 40 41 42 43 44 45 46 48 49 49 49 48 47 47 45 44 43 41 40 38
22 21 21 21 21 21 22 22 23 24 25 26 26 27 28 29 30 31 32 33 35 37 39 40 41 42 43 44 46 47 48 49 50 49 49 48 47 45 44 43 41 39 38 37
26 24 24 24 24 24 25 26 26 26 27 28 28 29 30 31 32 33 34 36 37 39 40 42 43 43 44 46 48 50 51 51 50 49 49 48 47 45 43 42 40 38 37 35
29 27 27 26 26 27 27 28 29 29 29 30 31 31 31 32 34 35 36 38 39 40 42 43 44 45 46 49 51 52 52 52 51 50 48 47 46 44 42 41 38 36 35 34
30 29 30 29 28 29 29 30 31 31 31 32 32 32 33 34 35 37 38 40 41 42 43 44 45 47 49 51 53 54 54 53 51 49 47 45 44 42 41 39 37 35 34 33
32 32 32 31 31 31 31 32 33 33 33 33 34 34 35 35 36 38 39 40 41 42 44 46 47 49 51 54 55 56 55 53 50 47 45 44 42 39 38 37 36 35 33 32
33 34 34 34 34 34 34 35 35 36 36 36 36 36 36 37 38 39 40 41 42 44 46 48 49 51 53 55 56 55 54 52 49 45 43 42 40 38 36 34 33 33 32 31
33 34 35 36 36 37 37 38 38 38 38 39 39 39 39 40 41 41 41 44 46 47 49 51 53 54 55 56 56 54 52 49 46 44 41 39 38 36 34 33 32 31 31 30
35 36 37 38 39 40 40 40 40 41 41 41 42 43 43 43 43 45 46 47 48 49 51 53 55 57 57 56 55 53 50 47 44 41 39 37 36 34 33 32 31 30 30 29
38 38 39 40 41 42 42 42 42 42 43 44 44 45 46 47 48 48 50 51 51 51 53 55 57 58 57 56 53 50 48 45 42 39 37 35 34 33 32 31 29 29 28 27
39 40 41 42 42 43 43 43 44 45 45 46 48 49 50 51 51 52 53 54 54 54 55 57 58 58 56 54 51 48 45 43 39 37 35 33 32 31 30 29 27 27 26 26
40 41 42 42 43 44 44 45 46 48 49 51 52 54 54 55 55 56 57 57 57 57 57 57 57 56 53 51 49 46 43 40 37 35 33 31 30 29 28 27 26 25 24 24
42 43 44 45 46 46 47 49 51 52 54 55 56 57 58 59 59 60 60 59 58 58 57 56 55 53 51 48 46 43 40 38 35 33 31 30 29 27 26 24 24 23 22 23
45 46 47 48 49 51 52 54 55 57 58 59 60 61 61 61 62 62 61 60 58 57 56 54 52 50 48 45 42 40 38 35 33 31 29 27 26 25 24 23 22 21 21 21
49 50 51 52 54 55 57 58 60 61 62 62 63 63 63 63 63 62 61 60 58 56 53 51 49 47 45 42 39 37 35 33 31 29 27 25 24 23 22 21 20 19 19 19
53 54 55 57 58 59 60 61 62 63 63 64 64 64 64 63 62 61 58 57 55 53 50 48 46 44 42 39 36 34 33 31 29 26 25 24 23 21 20 19 18 17 16 17
57 58 59 60 61 62 62 63 63 64 64 64 64 63 63 61 60 59 57 54 52 49 47 45 43 41 39 36 34 31 30 28 26 24 23 22 21 19 18 17 16 15 14 14
59 60 61 62 62 63 64 64 64 65 64 64 63 63 62 61 59 56 54 51 49 47 45 42 41 38 36 33 30 28 26 25 23 22 21 20 18 17 16 15 14 13 12 12
60 61 62 63 63 64 65 65 65 65 65 64 63 61 60 58 55 53 51 48 46 43 41 39 36 34 32 29 27 26 24 22 21 20 18 17 16 15 14 13 12 10 10 10
60 61 62 63 63 64 64 64 64 63 62 61 59 57 55 52 50 48 45 43 41 39 36 34 32 30 28 26 25 24 22 21 19 18 16 15 14 14 13 12 10 9 8 8

GEFSNGP_500_meanwind_060.txt.gz
Wind_Speed
13 14 14 13 14 14 14 14 14 14 15 17 18 17 17 17 17 16 16 16 16 17 18 19 21 22 23 25 26 28 30 31 33 34 35 36 37 40 42 43 43 44 43 42
14 14 14 13 14 15 15 15 16 16 16 17 17 17 17 17 17 17 17 17 17 18 19 21 22 23 24 26 28 30 31 32 34 35 36 37 40 42 44 44 45 45 43 42
13 14 15 13 14 15 15 15 15 15 16 17 17 18 18 18 17 17 17 18 18 19 21 22 23 25 26 28 29 31 32 33 35 36 38 40 42 44 45 46 46 45 43 42
14 15 15 13 16 15 14 14 15 15 16 17 18 19 19 18 18 18 18 19 20 21 22 24 25 26 28 29 30 32 33 34 36 38 40 42 44 46 47 47 46 45 43 42
16 15 15 15 17 16 14 14 16 17 17 18 19 20 20 19 19 19 19 20 21 22 24 25 27 28 29 30 31 32 33 35 36 39 41 44 46 48 48 47 46 45 43 41
18 17 15 16 20 18 16 15 19 19 20 21 21 20 21 21 20 21 21 22 23 24 26 27 28 29 31 32 32 33 35 36 39 41 43 46 48 49 49 48 46 44 41 39
20 19 17 21 21 19 17 19 21 22 22 22 22 21 22 22 22 23 24 25 26 27 28 29 30 31 32 33 34 35 37 39 41 44 46 47 49 50 50 48 45 43 40 38
22 20 20 24 22 22 23 22 23 23 23 24 23 24 24 24 25 25 26 27 28 29 30 31 32 33 34 34 35 36 39 41 44 47 48 50 51 51 50 47 44 41 38 37
25 24 26 25 24 24 23 23 23 24 24 25 25 25 26 27 28 28 29 30 31 32 33 33 34 36 36 36 37 39 41 44 47 49 50 51 52 51 49 46 43 39 37 36
27 27 27 26 26 26 25 25 25 26 26 27 27 28 28 29 30 31 32 33 34 35 35 36 37 37 39 40 41 42 44 46 48 50 51 52 52 50 48 45 42 38 36 35
28 29 28 28 28 28 28 28 28 28 29 29 30 30 30 31 32 33 34 35 36 37 38 39 40 40 41 43 44 44 46 49 50 51 52 53 51 49 46 44 41 38 36 34
30 30 30 30 30 30 30 30 30 30 31 32 32 32 32 33 34 35 36 37 38 40 42 43 43 44 44 45 46 47 49 51 51 52 53 52 50 47 44 42 40 37 34 33
29 31 31 31 31 31 31 32 32 32 32 33 33 34 34 35 36 37 38 39 41 42 44 45 47 47 48 48 49 51 51 52 52 53 52 51 49 46 43 41 38 36 34 32
30 31 31 32 32 32 32 32 33 33 34 35 35 36 36 37 38 40 41 42 44 45 46 47 48 51 52 51 52 53 53 53 53 52 51 49 46 44 41 39 37 35 34 32
30 31 32 33 33 34 34 35 35 36 37 37 38 39 40 41 42 43 44 46 48 48 49 51 53 53 54 54 55 55 55 54 52 50 48 46 44 41 39 37 35 33 32 31
32 33 34 34 35 36 36 37 38 38 39 40 41 42 43 45 46 47 48 49 50 51 53 55 55 55 55 56 56 56 55 53 51 49 47 44 41 39 37 35 33 32 31 30
34 35 36 37 37 38 39 40 40 41 42 43 44 46 47 48 49 50 51 52 53 54 56 56 56 56 57 56 56 55 54 52 50 47 44 42 40 37 36 34 32 31 30 29
36 37 38 39 39 40 41 42 43 44 46 47 48 49 50 51 52 53 54 55 56 56 57 58 58 58 57 56 55 54 52 50 47 45 42 40 38 36 34 33 31 30 29 28
38 39 40 41 42 43 44 45 46 47 48 49 50 52 53 54 55 55 56 57 58 58 58 58 58 57 57 56 54 52 50 48 45 43 40 38 36 34 33 31 30 28 26 26
41 42 43 44 45 45 46 47 48 50 51 52 53 54 55 56 57 58 58 59 59 59 59 59 58 57 56 55 53 50 48 45 43 41 39 36 34 33 31 29 27 26 24 23
42 43 44 45 46 47 48 50 51 52 53 54 55 56 57 58 59 59 59 60 60 60 60 59 58 57 56 53 51 48 46 43 41 39 36 34 32 30 28 26 25 24 22 21
44 46 47 48 49 49 50 51 53 54 55 56 57 58 59 59 60 60 60 61 61 60 60 59 58 56 54 52 49 46 43 41 38 36 33 31 29 27 25 24 23 22 20 19
47 48 48 49 50 51 52 53 54 55 56 57 58 58 59 60 60 60 60 60 60 59 58 57 55 54 52 49 46 43 40 37 35 32 30 28 26 25 23 22 20 20 19 18
48 49 50 51 52 53 53 54 55 56 56 57 58 59 59 59 59 59 58 58 57 56 55 53 51 49 47 44 41 38 36 33 30 28 26 25 23 21 20 19 18 18 17 16
50 50 51 52 53 54 54 55 55 55 56 56 56 56 56 56 55 54 53 53 52 51 49 46 43 41 39 36 34 32 30 28 26 24 23 21 20 19 18 18 17 16 15 14
50 51 51 52 52 53 53 53 53 53 53 52 51 50 50 49 49 48 48 48 46 44 41 37 34 33 31 29 27 25 24 23 22 21 19 18 18 17 17 16 15 14 13 12
50 50 50 50 50 50 50 49 49 48 47 46 46 45 45 45 44 44 43 42 39 36 32 30 29 27 25 24 22 20 19 19 18 18 17 17 16 16 15 14 13 12 11 11

GEFSNGP_500_meanwind_066.txt.gz
Wind_Speed
15 16 17 12 8 10 13 15 15 16 16 17 20 23 24 24 22 21 20 19 19 18 18 18 19 19 19 20 21 23 24 25 26 26 27 28 30 32 34 35 36 38 40 41
14 13 13 15 13 14 14 15 16 15 16 20 23 23 23 22 22 21 20 20 19 18 19 19 20 20 21 22 23 24 26 26 27 28 30 31 32 34 36 37 38 40 42 43
15 13 15 16 15 16 17 16 15 16 20 22 23 23 22 21 21 20 20 20 19 20 20 20 21 22 22 23 25 26 27 28 29 30 31 33 35 36 37 39 41 42 44 44
16 14 16 15 16 16 15 14 16 19 20 20 22 20 19 20 20 20 20 21 21 22 22 22 22 23 24 25 26 28 28 29 31 32 33 35 36 38 39 41 43 44 45 45
16 16 16 17 19 19 18 17 18 18 19 20 21 20 20 21 20 21 21 22 23 24 24 24 24 25 26 27 28 29 30 31 33 34 36 37 39 40 41 43 45 46 46 46
17 16 16 21 24 22 21 21 20 19 19 19 20 19 21 23 24 24 24 25 25 25 26 26 26 26 27 28 30 31 32 33 35 36 38 39 41 43 44 45 46 47 47 47
16 16 18 24 24 24 22 23 20 20 21 22 24 25 25 25 26 27 27 27 27 27 28 28 28 29 30 31 32 34 35 36 38 40 40 40 42 45 46 46 47 48 48 47
20 20 24 26 26 25 23 23 23 23 25 26 28 29 28 28 28 29 28 29 29 29 30 30 30 32 32 34 35 37 38 39 40 41 42 44 45 46 48 48 48 49 48 47
26 26 27 27 27 27 25 24 26 27 28 29 29 29 30 30 30 30 29 30 31 32 32 32 33 34 35 37 39 40 41 43 43 44 45 47 48 49 49 49 50 51 50 49
29 30 28 27 29 29 29 28 29 30 30 30 30 30 30 31 30 31 31 33 34 35 35 36 36 37 39 40 41 42 44 46 47 48 49 49 49 50 50 51 52 53 52 49
30 32 32 31 31 31 31 32 32 31 32 32 32 32 33 32 32 34 35 35 36 37 38 39 40 40 41 43 44 45 48 49 49 50 50 50 50 51 52 52 52 52 50 48
31 31 32 34 34 33 33 33 32 32 33 33 33 34 34 34 35 36 37 37 38 39 40 42 43 44 45 46 47 48 49 51 51 51 52 52 52 53 52 52 51 50 49 46
30 31 34 34 34 34 35 35 34 33 33 33 34 35 36 36 37 37 38 39 40 41 42 44 45 46 47 48 49 50 51 52 53 53 54 54 54 54 53 52 51 49 47 44
32 32 34 34 34 35 36 37 37 36 35 35 36 37 38 39 39 40 41 42 43 44 45 46 47 48 50 50 51 52 53 54 55 55 55 55 54 54 54 52 50 47 45 43
32 34 36 36 36 36 37 37 38 39 39 39 39 40 40 41 42 43 43 44 45 46 47 48 49 50 51 52 53 54 55 56 56 56 56 56 55 54 53 51 48 46 45 43
34 36 37 37 37 38 39 39 40 41 42 42 42 43 43 44 44 45 46 47 48 49 50 51 52 53 53 54 56 57 57 57 57 57 57 56 54 53 52 49 47 45 43 41
35 35 36 38 38 39 40 41 42 42 43 44 44 45 45 46 47 48 49 50 51 52 53 54 55 55 56 57 57 58 58 58 58 58 57 56 54 52 50 48 45 43 41 39
36 36 37 38 39 40 41 42 42 43 44 45 46 47 48 48 49 50 51 52 53 54 56 57 57 57 58 59 59 59 59 59 59 58 57 56 53 51 49 46 43 41 38 36
36 37 38 39 40 41 42 43 44 45 46 47 48 49 50 51 52 53 54 54 55 56 57 58 59 60 60 61 61 61 61 60 59 58 57 54 52 49 46 43 40 38 36 35
36 37 38 40 41 42 43 44 45 47 48 49 50 51 52 53 53 54 55 56 57 58 59 59 60 61 61 61 61 61 60 60 58 56 54 51 49 46 42 39 37 36 34 32
38 39 40 41 43 44 45 46 47 48 49 50 51 52 53 54 55 56 57 57 58 59 59 60 60 61 61 60 60 60 59 58 55 52 49 47 44 40 37 35 33 31 30 29
41 41 42 44 45 46 46 47 48 49 50 51 52 53 54 55 56 56 57 58 59 59 59 59 59 59 59 59 58 57 55 53 50 46 43 40 37 35 32 30 29 27 27 27
43 44 44 45 46 47 48 49 50 51 51 52 53 54 54 55 55 56 56 56 57 57 57 57 56 56 55 55 53 51 49 45 41 38 35 33 31 30 28 26 25 25 24 24
46 47 47 48 48 49 50 50 50 51 51 52 52 53 53 54 54 53 53 53 53 52 52 52 51 51 49 48 46 43 40 37 34 32 29 27 25 24 23 23 23 23 22 22
49 49 49 49 49 50 50 50 50 50 50 50 50 50 49 49 49 48 48 47 47 47 47 47 47 45 44 42 39 36 34 31 29 26 24 22 20 19 19 19 20 20 19 19
48 48 48 48 48 48 47 47 47 47 46 46 45 44 43 43 43 42 42 42 43 43 43 42 41 40 38 35 33 31 29 26 23 21 19 18 17 16 16 17 18 17 17 16
45 46 46 46 45 45 44 43 43 42 42 41 39 38 37 37 37 37 38 39 39 39 38 38 36 34 31 29 27 24 22 20 17 16 14 14 14 15 15 14 14 14 14 13

GEFSNGP_500_meanwind_072.txt.gz
Wind_Speed
19 18 17 16 15 15 15 15 17 17 17 17 16 15 13 13 13 11 10 10 10 10 11 11 11 12 13 14 16 17 18 19 21 21 22 23 24 25 27 29 30 31 33 34
19 19 19 18 15 16 16 17 18 19 19 18 17 17 15 14 14 13 12 12 12 13 13 14 14 14 15 16 18 19 20 21 22 23 24 25 26 28 29 30 32 33 34 36
20 18 19 18 17 18 19 20 19 22 22 21 20 18 16 15 17 15 13 13 14 14 15 16 17 17 18 19 20 21 22 23 24 25 27 27 28 29 31 32 34 35 36 37
20 20 19 17 18 19 21 21 22 23 24 24 22 21 18 17 17 15 14 14 15 16 17 18 19 20 21 22 23 23 24 25 26 27 28 29 31 32 33 34 35 36 37 38
21 21 19 18 20 21 21 22 22 22 23 23 23 22 20 19 17 17 16 16 18 19 19 20 21 22 23 24 25 26 27 28 29 30 31 32 33 34 35 36 37 37 38 38
23 22 21 19 20 22 23 22 22 23 24 24 24 24 24 22 19 19 19 20 21 22 22 23 24 24 25 26 27 28 29 30 32 32 33 35 36 37 38 39 39 39 40 40
23 23 21 20 20 20 21 20 22 23 23 24 23 24 23 21 20 20 22 23 24 25 25 25 26 26 27 29 30 31 31 32 34 35 36 37 38 39 40 41 41 41 41 41
25 24 21 21 20 19 19 19 19 20 21 22 21 21 21 22 23 23 24 25 25 26 27 28 29 30 31 32 33 34 35 35 36 37 39 39 40 41 42 42 43 43 43 43
26 24 23 23 21 20 20 20 19 19 19 21 22 22 21 22 24 25 26 27 27 28 29 30 31 32 33 34 35 36 37 38 39 40 42 43 43 44 44 44 45 45 45 44
27 27 24 24 23 23 22 20 20 20 22 21 20 20 22 23 25 26 28 29 30 31 32 32 34 35 35 36 38 39 40 41 42 43 44 45 45 46 46 47 47 47 46 47
29 28 28 27 26 25 24 24 23 23 22 22 22 23 24 25 27 28 29 30 32 32 33 34 36 36 37 39 40 41 42 43 44 46 47 47 48 48 49 48 49 50 49 49
30 30 30 28 26 25 25 24 23 24 24 24 25 26 27 27 28 29 30 31 33 34 35 36 38 39 40 42 42 43 45 46 47 48 49 50 50 50 51 51 52 52 51 50
30 30 29 27 27 26 25 25 25 26 27 27 27 28 29 29 30 31 32 33 35 36 38 39 40 41 43 44 45 46 48 49 50 51 52 52 53 53 53 53 53 53 53 52
28 29 29 29 28 28 28 29 29 30 30 30 31 31 32 33 33 34 35 36 37 38 40 41 42 43 44 46 47 49 50 51 52 53 54 55 55 55 56 55 54 54 54 54
27 27 28 29 30 31 30 30 30 30 31 32 33 34 35 36 36 37 38 39 40 41 42 43 44 45 46 48 49 50 52 53 54 55 56 57 57 58 58 58 57 57 56 55
25 25 27 28 29 29 29 31 32 33 33 34 35 36 37 38 39 40 41 42 43 44 45 46 47 48 49 50 51 52 54 55 56 57 58 58 59 59 60 60 60 59 58 56
26 27 27 27 28 29 30 32 33 35 36 37 38 38 39 40 41 42 43 44 45 46 47 48 49 50 52 53 54 55 56 57 58 58 59 60 60 61 61 61 61 59 57 55
26 25 26 26 28 29 31 33 34 36 37 39 40 41 42 43 44 45 46 46 47 48 50 51 52 53 54 55 56 57 58 58 59 60 60 61 61 61 61 60 58 57 54 51
26 26 27 28 30 32 34 35 36 38 39 41 42 43 44 45 46 47 48 49 50 51 52 53 54 55 56 57 58 59 59 60 60 60 60 60 59 58 56 54 53 51 48 45
29 30 32 33 34 35 36 38 39 41 42 43 44 45 46 47 48 49 51 52 52 53 54 55 56 56 57 57 58 58 58 58 58 57 57 55 54 52 51 48 46 43 40 37
31 33 34 35 37 38 40 41 42 43 45 46 47 48 49 49 50 52 52 53 54 54 55 55 55 55 55 55 55 55 55 54 53 52 51 49 48 46 43 40 36 33 31 29
36 37 38 39 40 42 43 44 45 46 47 48 49 50 51 51 52 52 53 53 53 53 52 52 51 51 51 51 50 50 49 49 48 46 45 43 41 38 35 32 28 26 24 23
39 41 42 43 45 46 47 47 48 49 50 50 50 51 51 51 51 50 50 49 49 48 47 46 46 46 46 46 46 46 45 44 43 41 39 37 34 31 29 25 22 20 20 19
43 44 46 47 48 48 49 49 50 50 50 49 48 48 48 47 47 46 45 44 43 42 42 41 42 42 43 42 42 41 40 39 37 35 33 30 27 25 22 20 17 16 14 14
47 48 49 49 49 49 49 48 48 47 46 45 44 44 43 42 41 40 40 39 38 38 38 39 39 40 39 39 38 37 36 34 32 29 26 23 20 19 17 14 12 10 9 9
47 48 48 48 47 46 45 44 43 43 41 40 39 38 37 37 37 36 36 35 35 36 36 37 37 36 36 35 35 33 32 30 27 23 21 19 16 13 10 8 5 5 5 6
44 44 44 43 42 41 40 40 39 38 36 35 34 34 34 34 33 33 32 32 33 34 34 33 33 32 32 30 29 28 25 23 21 19 16 13 10 7 4 2 2 2 3 4

GEFSNGP_500_meanwind_078.txt.gz
Wind_Speed
17 18 18 18 18 19 19 19 18 16 15 15 16 16 16 16 16 16 16 16 16 16 16 16 16 16 16 17 18 18 19 19 20 21 21 22 23 24 25 26 26 27 28 28
18 19 20 19 18 19 20 20 20 19 18 17 17 17 17 18 19 19 19 18 18 18 18 17 18 18 18 18 19 20 20 21 21 22 23 24 25 26 27 28 28 29 30 31
18 19 21 20 19 20 20 20 21 20 18 19 19 18 19 19 20 21 20 20 20 20 20 19 19 19 20 20 20 21 22 22 24 25 26 27 28 28 29 30 31 32 32 33
19 19 20 19 20 20 20 20 20 19 19 19 20 20 20 20 19 20 21 21 21 22 22 21 21 21 20 21 22 23 24 25 26 27 28 29 30 31 32 33 33 34 35 36
19 20 19 18 19 20 20 20 20 19 19 19 20 21 22 21 21 21 22 23 24 25 25 24 24 23 23 24 24 24 25 26 28 29 30 31 32 33 34 35 36 37 38 39
19 20 19 18 19 19 20 20 19 19 19 19 20 20 21 22 22 23 24 25 26 27 27 26 26 26 26 26 26 27 28 29 31 32 32 33 35 36 37 38 39 40 41 41
20 20 19 19 18 19 20 20 19 19 19 18 18 19 20 21 21 21 23 25 26 27 27 27 27 26 26 27 28 30 32 33 33 34 35 36 38 39 41 42 43 43 43 44
20 20 19 19 18 19 19 19 19 18 18 19 19 19 19 20 20 21 23 24 25 26 27 27 27 27 28 29 30 32 33 34 36 37 38 40 41 42 44 45 46 46 46 47
21 20 19 19 19 20 20 19 19 19 19 20 20 20 19 20 20 21 22 23 25 26 27 27 28 29 31 32 34 35 36 37 39 40 41 42 44 45 46 48 48 49 50 51
22 21 21 20 20 21 20 20 20 20 21 21 21 21 20 19 19 20 21 23 24 26 26 27 28 30 32 34 36 37 38 39 41 42 43 45 46 48 49 49 51 53 54 54
24 23 23 22 22 23 23 23 24 23 22 22 23 22 20 20 20 21 23 24 25 26 26 28 30 32 33 35 37 38 40 41 43 44 46 47 49 51 52 54 55 56 56 57
25 24 24 24 24 24 24 24 24 23 23 24 25 23 23 23 23 24 25 26 26 28 29 31 32 34 36 37 39 41 42 44 45 47 48 50 52 53 55 56 57 58 59 60
26 26 25 25 25 25 25 25 25 25 25 26 25 25 25 25 26 26 27 28 29 30 32 33 35 36 38 39 41 42 44 46 47 49 51 52 54 55 56 58 59 60 62 63
25 25 25 26 26 25 25 25 25 26 26 26 26 26 26 26 27 28 29 30 31 32 34 35 37 38 40 41 43 45 46 48 50 51 53 55 56 58 59 60 61 62 63 64
25 25 26 26 27 27 26 26 26 26 26 26 26 27 28 28 29 30 30 32 33 34 36 38 39 41 42 44 46 47 49 50 52 54 56 57 59 60 62 63 64 64 65 65
25 25 26 27 27 28 28 28 27 27 27 27 28 28 29 29 30 31 32 34 36 38 39 41 42 44 46 47 49 50 52 53 55 57 58 60 61 62 63 64 65 65 65 65
24 24 25 26 26 26 27 26 26 26 27 27 27 29 30 31 32 34 36 38 40 41 43 44 45 47 49 51 52 54 55 57 58 60 60 61 62 63 63 64 64 64 63 62
24 25 25 24 23 24 25 25 25 25 26 27 29 31 33 35 36 38 40 41 43 44 46 48 49 51 53 54 55 57 58 58 59 59 60 60 61 61 61 61 61 60 59 57
24 24 22 22 22 22 22 24 25 27 29 31 33 35 36 38 40 41 43 45 47 48 49 51 52 54 55 56 56 57 57 57 57 57 57 58 58 57 57 57 55 54 53 51
24 23 22 22 22 24 26 28 29 31 33 35 36 38 40 42 44 45 47 49 50 51 52 53 53 54 54 55 55 54 54 54 54 54 54 53 53 52 51 50 48 47 46 44
26 26 27 28 28 28 30 32 34 35 37 38 40 42 44 46 47 49 50 51 51 51 52 52 52 52 52 52 51 50 50 50 50 49 48 48 47 47 45 44 42 40 37 34
28 28 30 31 32 33 35 37 38 39 40 42 44 46 47 48 49 50 50 50 50 49 49 49 49 48 47 46 46 46 46 45 45 44 44 43 42 41 40 37 34 31 29 27
31 32 33 35 36 37 39 40 42 43 44 46 47 47 48 48 48 47 47 46 46 45 45 44 44 43 42 42 42 42 42 41 40 39 39 38 37 35 32 29 26 24 22 20
35 37 38 39 40 41 42 44 45 46 46 46 46 46 46 45 44 44 43 43 42 41 41 40 39 39 39 39 38 38 37 36 35 35 34 33 31 29 26 23 20 19 17 15
39 40 41 42 43 44 45 46 46 46 46 45 44 43 42 41 40 40 39 39 38 37 37 36 36 36 36 35 34 33 32 32 32 31 30 28 25 22 20 17 16 14 12 11
42 42 43 44 44 44 44 44 43 43 41 40 39 38 37 37 37 36 36 35 35 34 34 34 33 33 32 31 30 30 29 28 28 27 23 20 18 16 15 13 12 11 9 7
42 43 43 42 42 41 40 39 38 37 37 36 35 34 34 34 33 33 32 32 32 31 31 30 30 29 28 28 27 27 26 25 24 21 18 15 14 13 12 12 10 8 7 7

GEFSNGP_500_meanwind_084.txt.gz
Wind_Speed
18 17 16 16 16 16 14 13 13 13 15 17 18 17 17 17 17 17 16 16 16 15 16 15 16 16 17 18 19 20 21 22 23 24 25 26 27 27 27 28 28 28 28 29
19 18 17 18 18 17 15 15 15 15 16 18 18 18 18 18 19 19 19 19 18 18 18 19 19 20 21 22 22 22 23 24 26 26 27 28 28 29 29 30 30 30 30 31
19 20 19 19 18 17 16 16 16 16 17 18 18 19 19 20 20 20 22 22 22 22 22 23 23 24 24 25 26 26 26 27 28 29 29 30 30 31 31 32 32 32 32 32
20 22 20 19 18 18 18 18 18 18 18 18 18 19 20 21 22 23 24 25 25 25 25 26 26 27 27 28 28 29 29 30 30 30 31 32 32 33 33 33 33 33 33 33
21 21 21 20 18 18 18 18 18 18 19 19 19 20 21 22 22 23 25 26 27 28 28 29 29 30 30 30 31 32 32 32 32 32 33 34 35 35 35 34 34 35 35 36
21 21 20 22 20 19 18 19 18 19 19 20 20 21 21 21 23 24 26 27 29 30 31 31 31 31 32 32 33 34 35 34 34 35 35 35 36 37 37 37 37 38 38 39
20 20 20 22 19 19 19 19 19 19 19 19 20 22 22 22 22 23 25 26 28 30 31 32 32 33 34 35 35 35 36 37 37 37 38 38 38 38 39 40 41 41 42 42
20 20 22 21 20 19 20 20 20 19 20 20 21 22 23 23 24 24 24 25 27 29 30 30 31 32 33 35 36 36 36 37 37 37 38 40 41 41 41 41 43 43 44 44
21 22 22 21 21 21 21 21 21 21 21 22 22 22 23 23 24 25 26 26 27 28 28 29 29 31 32 34 35 36 37 38 38 39 39 40 41 42 43 44 44 45 46 48
21 22 22 22 22 22 22 23 23 23 23 23 24 24 24 24 25 25 25 25 26 25 26 27 29 31 32 33 34 34 35 37 38 38 38 40 41 43 44 46 47 48 49 50
21 21 21 22 23 23 24 24 24 24 24 24 25 25 26 26 26 26 26 26 26 27 27 28 28 30 31 32 33 34 35 36 38 39 41 42 43 44 46 47 48 50 52 53
22 22 22 23 24 25 25 25 25 26 25 26 26 27 27 27 26 26 27 27 28 28 29 29 30 31 32 33 34 36 37 39 40 41 42 43 45 46 48 50 52 54 56 57
22 22 23 24 25 25 26 27 27 27 27 27 28 28 28 28 28 29 29 29 30 30 31 31 32 33 33 34 35 36 38 40 41 43 44 46 48 50 52 53 55 58 60 61
22 22 23 23 24 25 26 26 27 27 28 28 29 30 30 30 30 30 30 31 32 32 33 33 34 35 36 37 38 39 41 42 44 46 48 49 51 53 56 57 59 61 63 64
21 22 23 23 24 24 25 26 27 28 28 29 29 30 31 32 32 33 32 32 32 33 34 35 36 37 39 40 41 42 44 46 48 49 51 53 56 58 60 62 63 64 65 66
21 22 22 23 23 24 25 26 28 28 29 31 32 33 33 34 34 34 33 33 34 36 37 37 38 39 41 42 44 46 47 49 51 53 55 57 59 61 63 63 64 64 64 64
20 21 22 23 23 23 24 26 27 28 30 32 32 33 33 33 33 33 33 34 35 37 39 39 41 42 43 45 47 49 51 53 55 56 58 59 61 62 62 61 61 60 59 59
21 22 23 23 24 24 25 26 27 28 30 31 32 33 33 33 34 35 35 36 38 39 40 42 43 45 46 48 50 52 54 55 56 57 58 58 58 57 57 56 55 54 53 52
23 23 24 25 25 25 26 27 28 29 30 32 32 32 33 34 35 36 38 39 40 42 43 45 47 48 50 51 52 53 54 54 55 55 55 54 53 52 51 49 49 48 46 45
24 25 25 26 27 27 28 29 30 31 32 33 34 36 38 38 39 39 41 42 44 45 46 47 48 49 50 50 50 51 51 51 50 50 49 48 47 46 45 43 43 41 40 39
26 27 28 28 29 29 30 32 33 33 34 35 37 39 40 40 41 42 43 44 45 46 46 47 47 48 48 48 47 47 47 46 45 44 44 43 42 40 39 38 36 36 35 34
29 29 30 31 31 32 33 34 35 36 37 39 40 41 42 43 44 44 44 45 45 45 45 45 45 45 45 44 44 43 42 41 40 40 39 38 36 35 34 33 32 31 29 28
29 30 31 32 33 34 35 36 37 39 40 41 42 42 43 44 44 43 43 43 42 42 42 42 42 42 41 40 39 37 36 36 36 35 34 33 32 30 29 28 26 25 24 23
31 32 33 34 35 36 37 39 40 41 42 42 43 42 42 41 41 40 40 40 39 39 39 38 38 37 36 34 33 33 32 32 31 30 29 28 26 25 23 22 22 21 20 19
33 34 35 36 37 38 39 40 41 42 42 41 41 40 39 38 38 38 37 37 36 36 35 34 33 32 32 31 31 30 29 28 27 26 25 24 23 22 20 19 18 17 16 15
34 34 36 37 38 38 39 40 39 39 39 38 38 37 36 36 35 34 34 33 32 32 31 30 30 29 29 29 28 27 26 25 24 23 21 21 20 18 16 15 14 14 13 13
33 35 36 36 37 37 37 37 37 36 36 35 34 34 33 33 32 31 31 30 29 29 29 28 28 28 27 26 25 24 23 22 20 19 18 18 17 15 14 13 13 13 13 13

GEFSNGP_500_meanwind_090.txt.gz
Wind_Speed
25 24 23 20 16 15 15 15 15 19 21 23 22 21 19 19 19 18 18 17 16 15 14 13 13 13 14 14 14 15 15 16 17 18 19 20 21 22 23 24 25 26 26 27
26 23 22 21 16 14 15 16 16 19 22 23 24 22 21 21 19 19 19 18 18 18 18 17 16 17 17 18 18 19 19 20 21 21 22 23 24 24 25 27 28 28 29 29
27 23 23 22 19 18 19 19 19 22 24 24 24 23 21 20 19 19 20 20 20 20 20 20 20 20 20 21 22 22 23 24 25 25 26 27 27 28 29 30 30 30 31 31
28 26 26 23 24 23 21 21 23 26 26 25 25 24 24 23 21 21 21 21 22 22 23 23 23 24 24 25 26 26 27 28 29 30 31 31 31 31 32 31 32 32 33 33
28 27 26 25 24 25 24 23 24 25 24 24 24 25 24 23 23 22 22 22 23 24 24 25 25 26 26 27 29 30 30 30 30 31 33 34 33 33 33 34 35 36 37 37
29 27 26 27 26 25 24 24 24 25 26 26 26 25 23 22 22 22 23 23 24 24 25 26 27 28 29 29 31 32 32 31 32 32 33 33 34 34 35 35 36 37 38 38
28 27 28 29 27 25 26 27 26 24 24 24 24 24 22 22 22 23 23 24 25 26 26 27 28 28 29 30 31 32 32 33 34 35 36 36 37 36 36 36 37 38 39 40
29 29 31 31 27 26 26 25 22 22 24 23 24 24 23 23 24 24 24 25 25 26 27 28 28 29 29 30 32 33 34 34 35 35 36 36 36 35 36 37 38 40 41 42
29 30 30 28 26 24 23 24 24 24 25 25 26 25 25 25 25 25 26 26 26 26 27 28 29 30 30 30 31 33 34 35 36 35 35 35 36 37 38 38 38 39 40 41
23 24 25 25 26 25 24 24 26 26 26 26 27 27 26 26 26 26 27 27 28 28 28 29 29 30 31 31 31 32 34 34 34 34 35 36 36 36 37 37 38 40 41 42
23 23 21 23 23 22 22 24 25 25 26 26 27 27 27 27 27 28 28 29 29 29 29 29 29 29 30 30 31 31 31 32 32 33 34 34 35 36 37 39 41 42 43 44
19 20 21 22 22 22 23 24 24 25 25 26 26 27 27 27 27 28 29 29 29 29 29 30 30 30 31 31 32 32 32 33 34 35 35 36 37 38 40 41 42 44 45 47
20 20 20 22 23 23 23 24 24 25 26 26 27 27 27 28 28 29 30 31 31 31 32 32 32 32 32 33 34 35 35 36 36 37 38 39 40 41 43 44 46 47 49 51
20 20 21 21 22 23 24 24 25 26 26 26 27 27 28 29 29 29 30 31 31 31 32 33 34 35 35 35 36 37 37 38 38 39 40 42 43 44 46 48 49 51 53 55
19 19 20 21 22 23 24 24 25 25 26 26 27 27 28 29 29 30 30 31 32 32 32 33 34 35 35 35 36 37 38 39 40 41 43 44 46 48 50 51 53 55 56 57
19 20 20 21 22 23 24 24 24 25 26 26 27 27 28 28 29 30 31 32 33 33 33 34 35 35 36 36 37 38 39 41 42 43 45 47 48 50 51 53 54 56 56 56
19 20 21 21 22 23 23 24 24 25 26 27 28 29 29 30 31 31 32 33 33 34 35 36 37 37 37 38 39 41 42 44 45 46 48 49 50 51 52 53 53 53 53 53
20 20 20 21 22 23 24 24 25 25 26 27 28 29 30 30 31 33 34 35 36 36 37 37 38 39 39 41 42 43 45 46 47 48 49 49 49 50 50 50 50 50 49 48
20 21 21 22 23 24 25 26 26 27 28 29 29 30 32 33 34 35 36 37 37 38 38 39 40 41 42 43 44 45 46 47 47 47 47 47 47 47 47 46 46 45 44 43
22 22 23 24 24 25 26 27 27 29 30 31 32 32 33 34 35 36 37 38 39 39 40 41 42 43 44 44 45 45 45 45 45 45 44 44 44 44 43 42 41 40 40 39
23 24 24 25 26 27 28 28 29 31 31 32 33 33 35 36 37 38 38 39 39 41 41 42 43 43 44 44 44 43 43 43 42 41 41 41 40 39 38 37 36 36 35 34
24 25 26 27 27 28 29 30 31 32 33 34 35 36 37 38 39 39 39 39 40 41 42 42 42 42 42 41 41 41 41 40 39 38 38 37 35 35 34 33 32 31 30 28
25 26 28 29 30 30 31 32 33 34 35 36 37 38 38 39 39 39 39 40 40 40 40 39 39 39 39 39 39 38 38 37 36 35 34 33 32 32 31 30 29 28 27 25
27 28 29 30 31 32 33 34 35 37 38 38 39 39 38 38 39 38 39 39 39 39 38 38 38 38 38 37 37 36 35 34 33 32 31 30 30 29 28 27 26 25 24 23
28 30 31 32 33 34 35 36 37 38 38 38 38 38 37 37 37 36 36 37 37 38 38 37 37 36 35 35 34 33 31 30 29 29 29 28 27 25 25 25 24 23 22 20
29 31 32 33 34 35 36 37 37 38 37 37 37 37 36 36 35 35 35 36 36 36 35 34 34 33 33 32 31 29 28 27 26 26 25 24 23 23 22 21 21 20 19 18
31 32 32 33 34 35 35 36 36 37 37 36 35 35 35 35 34 34 34 34 33 32 31 31 31 31 30 29 27 26 25 25 24 24 23 21 21 20 20 19 19 18 17 17

GEFSNGP_500_meanwind_096.txt.gz
Wind_Speed
35 32 31 30 28 27 25 23 22 20 20 20 18 14 12 10 9 9 7 8 8 8 9 9 10 10 10 11 12 13 14 14 15 18 19 21 22 24 25 26 26 27 27 28
39 35 33 33 31 29 27 25 22 21 21 19 16 13 12 12 10 10 9 8 9 9 9 10 11 12 12 13 14 15 17 17 19 20 22 23 24 25 26 26 27 27 29 31
42 39 37 36 32 29 28 26 23 21 20 19 17 14 13 14 13 11 11 10 10 10 11 11 12 14 14 15 17 18 18 20 20 22 23 24 25 25 25 25 27 29 30 32
43 39 40 35 31 30 28 27 25 23 22 20 17 16 15 14 13 12 13 12 11 12 13 13 14 15 16 17 19 20 21 21 22 21 23 24 24 25 26 26 27 29 29 31
42 40 40 37 34 30 28 27 25 25 23 21 18 16 16 16 14 14 14 14 14 14 15 15 16 17 17 19 20 21 23 23 23 24 25 25 26 26 27 27 29 31 32 32
42 41 40 36 33 30 28 28 26 24 21 18 18 18 17 17 16 15 15 15 16 16 18 18 19 19 19 21 22 23 23 23 25 26 27 27 27 27 28 28 28 30 30 31
38 40 39 35 34 32 30 27 26 24 23 21 19 19 19 19 17 16 16 16 17 18 19 20 21 21 22 23 24 24 25 26 27 27 27 28 28 28 28 28 29 29 30 30
34 36 37 35 33 32 30 27 26 24 22 20 20 19 19 19 17 17 17 17 19 20 21 21 22 24 24 25 25 26 27 27 28 28 29 30 30 29 29 29 29 30 31 32
29 30 31 32 31 30 28 26 25 22 22 21 21 21 19 18 17 16 17 19 20 21 22 23 24 25 26 27 28 28 29 29 30 30 30 30 31 31 32 32 32 33 33 35
26 27 27 25 26 27 27 23 22 22 21 20 20 18 18 18 18 18 19 20 21 22 23 24 26 27 28 29 30 30 31 31 31 32 32 32 32 32 33 33 34 35 36 37
22 24 24 22 21 22 22 21 20 20 18 18 18 17 16 17 17 18 19 20 22 23 25 26 27 28 29 30 31 32 33 33 33 33 34 34 34 34 34 34 35 36 37 38
14 15 16 16 17 17 18 18 16 16 16 16 15 15 16 17 17 18 20 21 23 24 25 26 27 29 30 31 31 32 33 33 34 34 35 35 36 36 36 37 38 39 41 42
8 10 10 10 11 11 12 12 13 13 13 14 14 16 17 18 19 20 21 22 23 24 25 26 27 28 29 29 30 31 32 33 34 34 35 35 36 37 38 40 40 41 43 44
4 5 6 6 7 8 9 10 10 11 13 14 15 16 18 19 20 21 22 22 23 24 25 26 27 28 29 30 31 32 33 34 35 35 36 37 38 39 40 41 42 44 45 47
5 6 6 7 8 8 9 10 11 12 13 15 16 17 18 19 20 21 22 23 24 25 26 28 29 30 31 32 33 34 34 35 36 37 38 40 41 42 43 44 45 46 47 48
7 6 7 7 8 9 10 11 12 14 15 16 17 18 19 20 21 22 23 24 25 27 28 30 31 32 33 33 34 34 35 37 38 39 40 41 42 43 45 46 47 47 48 49
7 7 7 8 9 10 11 12 13 14 15 17 18 19 20 21 22 24 25 26 27 29 30 31 32 33 34 35 36 37 38 39 40 40 41 43 44 45 46 47 48 48 48 48
9 9 9 10 11 11 12 13 15 16 17 18 20 21 22 23 24 25 27 28 29 30 31 32 34 35 36 37 38 38 39 40 40 41 43 44 45 46 46 46 46 46 45 45
10 10 11 12 13 14 15 16 17 18 19 20 21 23 24 26 27 28 29 30 32 33 33 35 36 37 37 38 38 39 40 41 42 43 43 44 44 44 44 44 43 43 41 41
11 12 13 14 15 16 17 18 19 20 21 22 23 25 26 27 28 29 31 32 33 35 36 37 37 38 38 39 40 40 41 41 42 42 42 42 42 42 41 40 39 38 38 37
13 14 15 16 17 17 18 20 21 22 23 24 25 27 28 29 30 31 33 34 35 36 37 37 37 38 39 39 39 40 40 40 40 40 40 40 39 38 37 36 36 35 34 33
15 16 17 17 18 19 20 22 23 24 26 27 28 29 30 31 32 33 34 35 36 36 37 37 37 37 37 37 38 38 38 38 38 38 37 37 36 35 34 33 32 31 30 29
16 17 18 19 20 21 22 24 26 27 28 29 30 31 32 33 34 34 35 35 35 36 36 37 37 37 37 37 37 36 36 36 36 35 34 33 32 31 31 29 28 26 25 25
18 19 20 21 23 24 26 27 29 29 30 30 31 32 33 34 34 35 35 34 34 35 35 35 35 35 35 35 34 34 33 32 32 31 30 29 29 28 26 25 24 23 22 22
20 21 22 24 25 27 28 29 30 31 31 32 33 34 34 34 34 33 33 33 33 33 33 33 33 33 32 32 31 31 30 29 28 28 28 28 26 25 24 23 22 22 21 20
22 24 25 26 28 29 30 31 32 32 33 34 34 34 33 33 32 32 32 32 31 31 30 30 30 30 29 29 28 28 27 27 26 26 27 26 24 23 22 21 21 20 19 19
25 26 26 27 28 30 31 31 31 32 32 33 33 33 32 31 30 30 30 29 29 28 27 27 27 27 27 27 27 26 26 26 25 25 24 22 21 21 21 20 19 18 19 18

GEFSNGP_500_meanwind_102.txt.gz
Wind_Speed
36 33 31 30 29 29 28 27 25 22 20 18 16 15 13 13 13 13 14 12 11 11 11 11 11 10 10 11 12 13 14 15 16 17 18 19 21 23 25 26 27 28 29 31
40 38 37 35 33 32 31 30 27 25 22 19 17 15 14 13 13 13 14 13 12 13 13 12 12 12 12 12 12 13 15 17 17 17 18 19 21 23 24 25 25 27 28 30
43 41 41 40 35 34 33 31 30 27 23 21 20 18 16 15 15 15 14 14 13 14 14 13 13 13 13 14 14 15 15 16 17 19 20 20 21 22 22 23 25 28 30 30
42 42 44 39 36 35 34 32 30 28 25 23 21 19 18 17 16 16 16 16 15 15 15 15 15 15 15 16 16 16 17 19 20 20 21 21 22 24 25 26 28 29 30 31
41 42 42 39 37 36 35 34 31 28 26 25 22 21 20 19 18 18 18 17 16 16 16 16 16 16 17 16 17 18 18 19 20 21 21 22 23 24 26 28 29 31 32 33
39 40 40 37 35 36 36 35 31 29 27 26 24 23 21 21 20 20 19 18 17 17 17 18 18 17 17 18 18 19 20 20 21 22 23 24 25 26 28 29 30 31 33 33
37 38 37 35 34 34 35 32 30 29 28 26 25 24 23 22 20 20 20 20 19 18 18 18 19 19 19 20 20 20 21 21 22 23 24 25 25 26 27 28 30 30 31 32
32 34 33 31 30 31 30 29 29 29 28 26 26 25 24 22 22 21 21 20 19 20 20 19 20 20 21 21 21 21 22 22 23 24 25 26 27 27 28 29 30 30 32 34
28 28 27 27 28 27 26 26 27 28 27 26 25 24 24 24 24 22 21 21 21 21 21 21 21 22 22 23 22 23 24 24 25 26 27 28 29 30 30 31 32 33 34 35
23 22 22 23 24 25 25 25 27 28 28 27 26 24 23 23 22 21 20 20 21 21 21 22 22 23 23 23 24 24 25 26 27 28 29 30 30 31 32 33 34 35 36 37
20 19 19 20 21 22 23 23 24 26 28 27 25 23 23 22 21 21 21 20 21 21 22 22 23 23 23 24 25 26 27 28 29 30 31 31 32 33 33 34 35 37 37 38
18 17 17 18 20 21 22 21 22 23 24 24 23 23 21 19 20 21 20 20 20 21 22 22 23 23 24 25 27 28 29 30 31 31 32 33 34 35 35 36 37 38 39 40
14 14 14 16 17 19 20 21 22 22 22 21 21 21 20 19 20 20 19 19 19 20 21 22 23 24 25 27 28 29 30 31 32 33 34 35 36 37 38 39 40 41 42 42
10 11 12 14 14 14 15 17 17 18 18 18 18 17 17 17 18 17 17 18 19 20 21 22 24 25 26 28 29 30 32 33 34 35 36 37 39 40 41 42 42 43 44 46
9 10 11 12 11 11 12 14 15 15 14 14 15 15 15 15 15 16 17 18 19 20 21 23 25 26 27 29 31 32 34 35 36 38 39 41 42 43 44 45 46 47 48 49
8 9 10 10 10 11 12 12 12 12 11 11 11 12 13 13 14 15 17 18 20 22 23 25 27 28 29 31 33 34 36 37 39 40 42 43 44 45 46 47 48 49 50 50
7 8 9 9 9 9 10 10 10 9 9 9 10 11 12 13 15 17 18 20 22 24 25 27 29 30 32 34 35 37 38 40 41 42 43 44 45 46 47 48 49 49 49 49
7 7 7 6 6 7 8 8 8 8 8 9 11 12 14 15 17 19 21 22 24 26 27 29 31 33 34 36 37 39 40 42 43 44 44 45 46 47 47 47 47 47 47 47
8 7 7 7 7 7 7 8 8 9 10 12 13 15 16 18 20 21 23 25 26 28 29 31 33 35 36 38 39 40 41 42 43 43 44 44 45 45 45 44 44 44 44 43
9 9 9 8 8 8 9 10 11 12 13 14 16 17 19 21 22 24 26 28 29 31 32 34 35 37 37 38 39 40 41 41 42 42 43 43 42 42 41 41 40 40 40 39
9 10 10 10 10 10 11 12 13 15 16 17 19 21 22 24 25 27 29 30 32 33 35 36 37 37 38 39 39 40 40 40 41 41 40 39 38 38 37 37 36 36 36 35
9 9 10 10 11 12 13 14 16 18 19 21 22 24 25 26 28 30 31 32 34 35 36 36 37 37 38 39 39 39 39 38 38 37 37 36 36 35 35 34 34 34 33 32
9 10 11 12 13 14 15 16 18 20 21 23 24 25 27 29 30 31 33 34 35 36 36 37 37 37 38 38 37 37 36 36 36 35 35 34 33 33 32 32 32 32 31 30
11 12 13 14 15 17 18 20 21 23 24 26 27 28 29 31 32 33 34 35 35 36 36 36 36 36 36 36 35 34 34 34 34 33 32 32 32 31 31 31 31 30 29 28
13 14 15 17 18 20 21 22 24 25 27 28 29 30 31 31 33 33 34 34 34 34 34 34 34 34 34 33 32 32 32 32 32 31 31 31 31 30 29 29 28 28 27 25
16 17 19 20 21 22 24 25 26 27 28 29 30 31 32 33 33 33 33 33 33 33 32 32 31 31 31 30 30 30 31 31 30 29 29 29 28 28 27 27 26 26 25 24
19 20 21 22 23 24 25 26 27 28 29 30 31 32 32 32 32 32 32 31 30 30 29 28 28 28 28 28 27 27 27 27 27 26 26 26 26 26 25 25 25 24 24 24

GEFSNGP_500_meanwind_108.txt.gz
Wind_Speed
28 28 27 25 25 25 25 23 21 19 18 18 18 18 17 16 15 14 13 12 11 10 10 10 10 9 9 9 9 9 10 11 12 13 14 16 17 18 20 21 22 22 23 24
31 30 30 28 26 26 26 25 24 23 21 21 20 19 18 17 16 15 15 15 14 13 12 12 12 11 11 11 11 11 11 12 13 14 14 15 16 18 19 21 22 22 24 25
33 33 34 33 29 28 28 26 26 25 24 24 23 22 21 20 18 17 17 17 16 15 14 13 13 13 13 12 12 12 12 13 14 15 16 16 17 18 19 21 22 23 24 25
33 34 36 31 29 29 29 28 28 28 26 26 25 24 23 22 21 20 20 19 18 17 16 16 15 15 15 15 14 14 14 15 15 15 16 17 18 19 20 22 23 24 25 27
33 33 34 32 31 29 29 29 29 29 27 27 26 25 23 23 23 22 21 20 20 19 19 18 17 17 18 18 16 15 16 16 17 17 17 18 19 21 22 23 24 26 27 28
33 33 33 32 31 29 30 31 29 29 28 27 27 27 25 24 24 23 22 22 21 21 21 20 20 19 19 19 19 18 18 18 19 19 20 21 22 22 23 24 25 27 28 30
31 32 32 31 29 29 30 30 29 29 29 28 28 28 26 26 26 24 24 23 23 22 22 22 21 21 21 20 20 21 21 21 21 22 23 24 24 24 25 26 27 29 30 31
29 31 31 29 28 30 30 29 29 29 29 29 29 28 28 28 27 27 26 25 25 25 24 24 24 23 23 23 22 22 23 23 23 24 25 26 26 27 27 28 30 31 32 34
28 29 28 27 28 28 29 29 29 29 30 30 29 28 29 29 29 28 28 27 26 26 26 26 26 25 25 25 24 24 24 25 26 26 26 27 27 28 29 30 31 33 34 35
26 27 27 27 26 26 27 27 28 29 29 29 29 28 29 30 30 29 29 28 27 27 27 26 27 27 26 26 26 26 26 26 26 27 27 27 28 29 30 31 33 34 36 37
25 25 25 25 25 24 25 26 27 28 28 29 29 29 30 31 30 29 29 28 27 27 27 27 27 26 26 26 26 26 26 26 27 28 28 28 29 30 32 33 34 36 37 39
21 22 22 21 22 22 23 24 25 26 27 28 28 29 30 30 29 29 29 28 28 28 27 26 26 25 25 25 25 25 26 26 27 28 28 30 31 33 34 35 36 38 39 41
15 16 17 17 18 19 21 22 23 24 24 25 25 26 28 30 30 29 28 28 28 27 26 24 23 23 23 24 24 25 26 27 28 29 30 31 33 35 36 37 39 41 42 44
13 14 14 15 16 17 18 19 21 23 23 24 24 25 26 28 29 28 26 25 24 23 23 22 22 23 23 24 25 25 27 28 29 30 32 33 35 37 39 41 42 44 45 47
10 12 13 14 16 16 17 19 20 21 21 22 23 23 23 23 23 22 20 19 19 20 20 21 22 22 23 24 25 26 28 30 31 33 34 36 38 40 42 44 45 47 49 50
9 10 11 12 13 14 15 17 17 17 19 20 20 20 19 19 19 19 19 18 17 17 19 20 21 22 23 24 26 28 30 32 34 36 38 39 41 42 44 46 48 49 50 50
9 9 9 10 10 10 12 13 14 16 16 17 17 16 16 16 16 15 15 15 16 17 18 19 21 23 24 27 28 30 32 34 36 38 40 41 43 45 46 47 48 48 48 48
9 9 9 9 9 10 10 11 12 12 13 13 14 14 13 12 12 13 14 15 16 18 19 21 23 25 27 29 31 33 35 37 38 40 41 43 44 46 46 46 46 46 46 45
10 10 10 10 10 10 9 9 9 9 9 9 9 9 9 10 11 12 14 16 18 20 22 24 26 28 30 32 34 36 37 39 40 42 43 43 44 44 44 44 43 43 42 42
10 9 9 9 8 8 8 7 7 7 7 7 8 9 10 12 13 15 17 19 21 23 25 27 29 31 32 34 36 38 39 40 41 42 42 43 42 42 41 41 40 39 39 38
10 9 8 8 7 7 7 6 7 7 8 9 10 12 13 15 17 19 21 23 25 26 28 29 31 33 35 36 38 39 40 40 41 41 41 41 40 39 38 38 37 37 36 36
10 10 9 8 8 8 8 9 9 10 11 12 14 15 17 19 21 22 24 26 27 29 30 32 33 35 36 38 39 40 40 40 40 40 39 38 37 36 36 35 34 34 33 33
11 10 10 10 10 10 11 11 11 12 14 15 17 19 20 22 23 25 27 28 29 31 32 34 35 36 37 38 39 39 38 38 37 36 35 35 34 33 33 32 31 31 31 31
10 10 10 10 11 11 12 12 13 15 17 18 20 22 23 24 26 28 29 30 31 33 34 35 35 36 37 37 36 35 35 34 33 32 32 31 31 30 30 30 30 29 29 29
11 11 12 12 12 13 14 15 17 18 20 21 23 24 25 27 28 29 30 31 33 33 34 34 34 34 34 33 32 32 31 30 30 29 29 29 28 28 28 27 27 27 27 27
12 12 13 14 15 16 17 18 20 21 22 24 25 26 27 28 29 30 31 32 32 32 32 32 32 31 31 30 29 28 28 28 28 27 27 27 26 26 26 26 26 25 25 25
13 14 15 16 18 19 20 21 23 24 25 26 26 27 27 28 29 30 31 31 31 31 30 30 30 29 28 28 26 26 25 25 25 25 25 25 25 24 24 24 24 24 24 23

GEFSNGP_500_meanwind_114.txt.gz
Wind_Speed
29 26 25 24 24 25 25 23 23 24 24 25 25 21 19 18 17 17 17 16 16 15 13 12 11 11 10 10 9 8 8 8 9 11 13 14 16 17 18 18 19 20 21 22
32 30 29 28 25 23 22 22 25 27 26 27 28 25 22 21 19 18 18 18 17 16 15 14 13 13 12 11 10 10 9 9 10 11 12 13 15 16 17 17 18 19 20 21
32 31 32 31 25 23 23 25 26 28 29 30 29 29 27 25 22 21 22 21 19 18 17 16 15 14 14 13 12 12 12 12 12 12 13 14 15 16 17 19 19 19 20 21
31 32 34 30 28 28 29 30 30 31 32 33 33 30 29 26 25 25 24 22 21 20 19 18 17 16 16 15 14 14 14 14 14 14 14 14 15 16 17 18 19 19 19 21
30 31 31 29 29 29 30 31 33 34 33 34 36 34 32 30 29 27 25 25 24 22 21 19 18 18 18 17 16 16 16 17 17 17 17 17 18 18 19 19 21 21 21 22
30 30 29 29 30 30 30 33 33 33 35 36 35 34 33 32 31 29 28 26 25 24 23 21 20 20 20 20 19 19 19 19 19 19 19 19 19 20 20 21 22 24 25 25
29 30 29 31 31 30 31 34 34 34 35 36 37 36 34 33 32 32 30 28 27 26 25 24 23 22 22 21 22 21 21 21 20 21 21 21 21 22 22 23 24 26 27 28
27 28 30 33 32 32 34 34 34 34 35 35 35 35 35 34 33 32 31 29 29 28 27 26 25 24 23 24 23 22 22 22 23 24 23 22 23 24 25 26 27 28 29 29
28 30 33 33 34 33 34 35 35 35 35 34 34 34 35 34 33 33 32 31 29 29 28 27 26 26 26 26 25 25 25 25 26 27 26 26 26 26 26 28 29 29 30 31
29 31 32 32 32 33 33 33 34 35 35 35 34 34 34 34 34 33 32 31 30 30 29 28 27 28 28 27 27 27 27 27 28 28 28 27 27 27 27 29 30 31 32 33
27 28 30 31 32 32 32 32 32 33 34 33 33 33 32 32 33 33 32 31 31 31 31 30 29 28 29 30 29 29 29 29 28 28 28 28 28 28 29 30 31 32 34 35
27 27 28 29 30 30 30 30 30 30 31 31 32 32 32 31 31 31 32 32 30 30 30 30 29 29 30 30 29 30 30 29 28 27 28 28 29 30 31 32 32 33 35 37
26 26 26 27 27 26 27 27 27 28 28 28 28 29 30 30 31 30 31 30 29 29 29 29 29 30 30 30 30 29 29 28 28 28 28 29 30 31 31 32 33 35 37 39
24 24 23 23 22 22 22 23 24 26 26 26 26 27 27 27 28 28 28 29 30 29 29 29 28 28 28 27 26 26 27 27 28 28 28 29 30 31 33 34 35 36 39 41
19 19 19 19 18 19 20 21 22 23 24 24 24 24 24 24 25 26 27 28 28 28 27 27 26 25 24 24 24 25 26 26 27 27 28 29 31 33 34 35 37 39 41 43
16 16 16 16 16 16 16 17 18 19 20 20 21 21 21 22 23 24 24 24 23 23 23 22 22 23 23 23 24 24 24 25 25 27 28 30 32 34 36 38 39 41 43 45
13 12 12 13 13 14 15 15 15 15 16 18 19 18 18 18 19 21 20 19 18 18 19 19 19 20 20 20 21 22 22 24 25 28 30 32 34 36 39 40 42 43 45 46
10 10 10 9 8 9 11 12 12 12 12 13 13 13 14 14 14 14 14 13 13 15 16 15 16 16 18 19 21 23 25 27 29 31 33 35 37 39 40 42 43 44 45 44
9 7 6 7 6 5 6 7 7 7 8 7 7 7 8 9 10 11 12 12 13 14 14 14 15 17 19 21 23 25 27 29 31 33 35 37 39 40 41 42 42 42 42 42
7 7 6 5 5 4 4 5 4 4 5 6 6 6 6 7 7 8 9 10 11 12 13 15 17 20 22 24 26 28 30 32 34 35 37 38 39 40 40 41 40 40 40 39
8 7 7 7 6 5 4 4 4 4 5 4 4 3 3 4 5 7 9 10 12 14 16 19 21 23 25 27 29 31 32 34 35 36 38 38 39 39 39 39 38 38 38 37
9 8 8 7 6 6 5 4 4 3 3 3 4 5 6 7 9 10 12 14 16 18 20 22 24 26 28 30 31 32 33 35 36 36 37 36 36 37 37 36 36 35 34 34
10 9 8 7 7 6 4 4 4 5 5 6 7 8 9 10 12 13 15 17 19 21 23 25 27 28 30 31 32 33 34 35 35 35 34 34 34 34 33 33 32 32 31 31
8 7 6 6 6 5 5 6 6 7 7 9 10 12 13 14 15 17 19 21 23 24 26 27 29 30 31 32 32 32 33 33 33 32 32 31 31 30 30 30 30 29 29 29
8 8 7 7 7 7 8 8 8 10 11 13 14 15 16 17 19 20 22 24 25 26 28 29 30 30 31 31 31 31 31 30 30 29 29 28 28 28 28 28 28 28 28 28
9 8 8 8 9 9 10 11 12 13 14 16 17 18 19 20 21 23 25 26 27 28 29 29 30 30 30 30 29 29 28 28 27 27 26 26 26 26 26 26 26 26 26 26
9 9 10 10 11 11 12 14 15 16 17 19 20 21 22 23 24 25 26 27 27 28 28 28 28 28 28 27 27 26 26 26 25 24 24 24 24 24 24 24 24 24 25 25

GEFSNGP_500_meanwind_120.txt.gz
Wind_Speed
29 29 29 29 28 28 28 27 25 24 23 23 22 20 18 16 15 15 12 11 8 7 8 9 9 9 8 8 8 8 7 7 8 10 12 13 15 17 18 18 19 20 20 20
32 31 32 32 31 31 31 31 30 29 27 26 24 23 21 19 18 16 14 13 12 12 10 10 10 10 10 10 9 9 9 9 9 11 12 13 14 17 19 19 19 20 20 20
34 33 34 34 33 34 35 34 34 32 30 29 28 26 24 23 22 19 16 15 14 14 13 13 12 12 11 11 10 10 10 10 10 10 12 13 13 15 17 18 18 19 20 20
33 33 35 34 34 36 37 36 34 32 30 30 29 27 27 25 24 21 18 17 16 16 16 15 14 13 13 12 11 11 11 11 12 12 12 13 14 15 17 19 19 19 20 20
34 33 33 33 35 36 37 37 36 34 33 31 30 29 28 26 24 22 21 20 19 19 18 17 16 15 15 14 13 13 13 13 13 14 14 15 15 16 16 16 18 19 19 21
34 33 32 31 33 36 37 39 36 35 34 33 32 30 27 26 25 24 24 23 22 21 21 19 18 18 18 17 17 16 16 16 16 16 16 16 17 17 17 17 17 19 20 21
34 32 31 30 31 33 36 36 35 35 34 33 32 30 29 28 27 26 26 26 25 24 23 21 22 21 20 19 19 18 18 18 18 18 18 18 19 19 19 20 20 21 23 24
33 32 31 29 29 32 34 34 34 33 33 33 31 30 29 28 27 27 27 28 27 25 23 23 22 21 21 21 21 20 20 20 20 20 20 20 21 21 21 22 24 24 26 26
31 30 28 28 28 30 32 33 33 33 33 32 32 31 30 30 29 28 28 28 27 25 25 24 24 23 23 22 21 21 21 20 20 21 22 21 22 22 23 24 25 25 26 26
30 29 28 27 28 28 29 31 32 32 32 32 32 31 30 29 29 28 28 29 29 27 26 26 26 25 24 22 21 21 21 21 22 22 23 22 23 23 23 24 25 26 27 28
28 29 29 28 27 26 26 27 28 30 31 32 31 30 29 28 28 28 29 28 27 26 26 26 25 24 24 24 23 23 23 23 23 24 24 24 24 24 25 26 26 27 28 29
29 28 27 26 25 25 25 26 26 27 28 28 28 29 29 28 28 28 27 26 25 25 25 25 24 24 24 24 24 24 25 24 24 24 24 25 25 25 26 26 27 29 30 31
28 27 26 25 25 24 24 24 24 24 24 25 26 27 28 27 28 27 26 25 24 24 25 24 24 24 24 24 24 24 24 24 24 24 24 24 24 25 27 27 29 30 31 31
23 22 22 23 24 24 23 22 22 21 21 22 23 24 25 25 25 25 24 23 24 24 24 23 23 23 24 24 24 23 23 24 23 23 23 24 25 26 27 28 29 31 32 33
20 19 18 18 19 19 19 20 20 20 19 19 19 21 22 21 22 22 21 20 21 21 22 22 22 21 21 21 21 21 22 22 22 23 24 25 25 26 27 29 30 31 32 33
17 16 16 15 16 16 15 16 16 15 16 16 17 17 18 18 19 19 18 18 19 20 20 19 19 19 19 20 20 21 21 22 23 24 25 25 26 26 27 29 30 32 34 36
14 13 13 12 12 12 12 13 13 12 12 13 13 14 15 16 17 17 17 17 18 18 17 17 17 18 18 19 19 20 21 22 23 24 25 25 26 27 28 30 32 34 36 38
12 11 10 9 9 9 9 9 9 9 9 9 11 11 12 14 16 17 16 16 16 16 15 15 16 16 17 17 18 19 20 22 23 23 24 25 26 28 30 32 34 36 37 38
9 8 7 7 6 6 7 7 7 7 7 8 9 10 10 12 12 12 12 12 11 12 12 12 13 14 15 16 17 18 20 21 22 24 25 27 29 31 32 34 36 37 38 39
8 8 8 7 7 6 6 6 6 6 6 6 7 7 7 8 8 7 7 7 8 9 10 11 12 13 14 15 16 18 20 22 24 25 27 29 31 33 34 35 36 37 37 38
9 8 8 8 8 8 8 7 7 6 6 6 6 6 6 6 6 6 6 7 8 10 11 11 12 13 14 16 18 20 22 24 25 27 29 31 32 33 33 34 35 35 35 35
10 10 9 9 8 8 8 7 7 6 6 6 6 5 5 5 6 6 7 8 9 10 11 12 13 15 17 19 21 23 24 26 27 28 30 31 31 32 32 32 32 32 32 32
11 10 9 9 8 7 7 6 6 5 4 4 4 4 5 6 6 7 8 9 11 12 13 15 16 18 20 22 23 25 26 27 28 29 29 29 29 29 30 30 30 30 30 30
11 10 9 9 8 8 7 6 5 4 4 4 5 6 7 8 9 10 11 12 13 14 16 18 19 20 22 23 24 26 26 27 28 28 28 28 28 28 28 28 28 28 28 27
11 10 9 8 7 7 6 5 5 5 5 6 7 8 9 10 11 13 14 15 16 17 19 20 21 22 23 24 25 26 27 27 26 26 26 26 26 26 26 26 26 26 25 25
10 9 8 8 7 5 5 5 5 6 8 9 10 11 12 13 14 15 16 18 19 20 21 22 23 23 24 24 25 25 25 25 25 25 25 25 24 24 24 24 23 23 23 22
9 8 7 7 6 6 6 6 7 8 10 11 12 13 14 16 17 18 19 19 20 21 22 23 23 23 23 24 23 23 23 23 23 23 22 22 22 21 21 21 20 20 20 20

GEFSNGP_500_meanwind_126.txt.gz
Wind_Speed
24 25 26 26 25 24 23 22 22 20 19 16 15 15 14 13 13 12 11 11 10 8 8 7 7 8 8 8 9 9 9 10 10 11 13 14 15 16 17 19 20 22 22 22
26 26 27 28 28 27 27 26 25 24 22 20 18 18 17 16 16 15 14 14 12 10 10 10 10 10 9 9 9 9 10 11 11 12 13 14 15 16 17 18 19 21 22 22
29 28 28 30 29 29 29 28 27 26 24 22 20 19 19 19 18 17 17 16 15 14 13 12 11 11 11 11 11 11 11 12 12 12 12 13 14 16 17 18 19 20 22 23
34 33 34 31 30 30 30 30 30 29 27 25 23 22 22 21 20 19 18 18 18 18 17 16 15 14 14 14 13 13 13 13 13 13 13 14 14 14 15 18 20 20 21 23
38 37 36 34 32 31 31 31 29 29 27 25 24 24 24 24 22 20 19 20 21 21 20 19 18 17 17 16 16 15 14 14 14 14 14 14 15 15 16 17 18 19 19 22
40 39 39 35 33 33 32 32 29 27 27 26 25 25 25 25 24 22 22 22 21 21 20 20 20 19 19 19 18 18 16 16 16 16 16 15 16 17 18 18 18 19 20 21
39 39 38 36 35 34 33 30 28 27 27 26 26 26 26 26 26 24 24 23 22 21 22 22 22 21 20 21 20 19 19 19 19 18 18 18 18 18 19 19 19 20 21 21
37 37 37 35 34 32 31 30 29 27 27 26 26 26 26 26 26 26 25 24 24 23 24 24 23 22 22 22 21 22 21 21 21 21 20 20 20 21 21 20 20 21 22 23
35 35 34 33 33 32 31 30 29 28 27 26 25 25 25 26 26 26 27 26 25 24 24 24 23 23 23 23 23 23 23 23 22 22 22 22 22 21 21 22 23 23 24 25
32 32 31 30 30 30 29 29 28 28 27 27 26 25 25 25 25 25 26 26 25 25 25 25 24 24 23 23 24 24 24 23 23 22 22 23 23 23 24 25 25 25 26 26
29 29 28 28 28 28 28 28 28 27 27 26 25 26 25 25 25 25 26 26 25 25 24 24 24 24 24 24 24 23 23 23 22 22 22 23 24 25 26 26 26 27 27 28
28 28 28 27 27 27 27 26 26 25 25 25 24 24 25 25 24 25 25 25 25 25 25 25 25 24 24 23 23 23 24 23 23 23 24 25 26 27 27 27 27 27 28 29
27 27 27 27 26 25 25 25 25 25 25 25 24 24 25 24 24 24 25 24 24 24 24 24 24 24 23 22 22 22 23 23 23 24 24 25 26 26 26 27 27 27 28 30
26 26 26 26 26 25 25 25 25 24 24 24 25 24 24 23 23 22 22 23 23 23 24 23 23 22 22 21 21 22 23 23 23 24 24 24 25 26 26 27 27 29 29 30
24 25 25 24 24 24 23 23 23 23 22 22 22 22 22 22 21 21 20 20 21 22 22 22 21 20 21 21 21 22 23 24 24 24 24 26 26 26 27 28 29 30 31 32
22 23 23 22 22 21 20 20 19 18 19 19 19 19 19 20 19 19 19 18 19 19 19 20 20 20 21 21 22 23 23 23 23 24 25 26 26 26 27 28 30 31 32 33
21 20 20 19 18 17 16 16 16 16 15 16 16 16 16 17 17 16 16 17 17 18 19 19 19 20 20 21 21 21 22 22 22 23 23 24 26 27 29 30 30 32 33 33
19 19 18 17 17 16 16 15 14 13 13 13 14 14 15 15 15 15 15 15 15 16 17 19 19 19 19 19 19 20 20 21 21 22 23 25 27 29 29 29 30 31 32 33
16 16 15 15 15 15 14 13 13 13 13 13 13 13 13 14 14 14 13 14 15 16 17 17 16 16 16 16 17 18 19 20 21 23 24 25 26 27 27 28 30 31 32 33
14 13 13 13 13 12 11 11 11 10 10 10 11 11 11 10 10 11 11 12 12 12 12 12 13 13 14 15 16 17 18 20 21 22 23 24 26 27 28 29 30 31 32 32
14 12 12 12 11 11 10 10 9 9 8 8 8 8 7 7 8 8 8 8 9 9 10 11 12 13 15 16 16 17 19 20 22 23 25 26 27 28 29 29 30 30 31 31
14 12 11 11 11 10 10 9 9 8 8 8 7 7 7 7 8 8 8 9 9 10 11 12 14 15 16 17 18 19 20 22 24 25 26 27 28 29 29 29 29 29 29 29
14 13 13 12 11 10 9 9 8 8 8 7 7 7 7 7 7 7 8 9 10 11 13 14 15 17 18 19 20 21 23 24 26 27 27 28 29 29 29 28 28 28 28 28
14 13 13 12 11 9 9 8 7 7 7 7 6 6 6 7 8 9 10 11 12 14 15 16 17 19 20 21 23 24 25 26 26 27 28 28 28 28 27 26 26 26 26 27
14 13 13 12 10 9 8 7 7 7 6 6 7 7 8 8 9 10 12 13 15 16 17 19 20 21 22 24 25 25 26 26 26 27 27 27 26 25 24 24 25 25 25 25
13 12 12 11 9 9 8 7 7 6 7 7 8 9 10 11 12 13 15 17 18 19 20 21 22 23 24 25 26 26 26 26 26 26 25 25 24 23 24 24 24 24 23 23
12 11 10 9 8 7 7 7 7 8 9 9 10 11 12 14 15 17 18 19 20 21 22 23 24 25 26 26 26 26 25 25 25 24 24 23 23 23 23 23 22 22 22 21

GEFSNGP_500_meanwind_132.txt.gz
Wind_Speed
23 22 21 20 20 19 19 18 16 16 16 16 15 14 14 13 12 12 12 11 10 10 9 9 10 10 10 11 11 11 12 12 12 12 13 14 15 16 17 18 20 21 21 22
26 25 24 23 23 21 21 20 19 18 18 17 17 16 16 15 15 15 14 13 13 11 10 11 11 11 11 12 12 12 12 13 13 13 13 14 15 16 18 18 20 21 23 24
26 26 26 27 26 24 23 22 21 20 20 19 18 18 18 18 17 16 16 15 14 14 13 13 13 13 13 13 13 12 13 14 14 14 15 16 16 17 18 19 20 21 23 24
27 28 27 27 27 25 25 24 23 23 21 20 20 20 21 20 19 18 18 17 17 16 16 16 16 16 16 15 15 14 14 15 15 16 16 17 18 18 18 19 20 21 22 24
30 29 29 31 29 27 26 26 25 24 23 22 22 22 23 22 22 21 21 20 19 19 18 19 18 18 18 18 17 17 17 17 18 17 17 18 18 19 18 19 19 19 20 21
33 30 28 31 29 27 27 28 26 25 25 24 24 24 24 23 23 23 23 23 22 21 21 20 20 20 19 19 19 19 20 20 20 20 20 20 20 20 20 20 20 20 20 21
34 32 32 33 30 28 29 29 27 27 26 25 25 25 24 24 25 25 25 25 24 23 23 22 21 21 21 21 21 21 21 21 21 21 21 22 22 22 23 22 22 22 23 24
35 33 34 34 32 32 31 30 28 28 27 27 26 26 26 26 26 26 26 26 26 25 25 24 24 24 24 24 23 23 23 22 22 23 23 23 24 24 25 25 25 23 24 24
36 36 35 33 32 31 31 31 29 29 28 28 28 27 27 27 27 27 27 27 26 27 27 27 26 26 26 26 26 25 25 24 23 24 24 25 25 25 25 25 25 25 25 25
35 35 34 32 31 31 31 31 30 29 28 27 27 27 27 28 27 26 26 27 27 28 28 28 28 28 27 26 26 26 26 25 25 25 26 26 26 25 25 26 27 27 27 27
33 33 32 32 31 31 30 30 30 29 29 29 29 28 27 26 26 26 26 26 27 28 28 28 28 28 27 27 26 26 26 27 26 26 27 26 26 26 26 27 27 26 26 28
33 31 31 31 30 30 29 29 29 29 29 29 28 27 26 26 26 26 26 26 27 26 27 27 27 27 26 26 27 26 26 27 27 28 26 26 26 26 26 27 27 27 28 29
31 30 30 29 29 29 28 28 28 28 28 28 28 28 27 27 27 27 27 27 26 26 26 26 26 26 26 26 26 27 27 27 26 26 25 25 25 25 25 26 27 28 28 28
29 29 28 28 28 28 28 27 27 27 27 27 27 27 26 27 26 27 26 27 26 26 26 26 26 25 25 25 25 25 26 25 25 25 25 25 25 25 26 27 27 27 28 29
28 28 27 26 26 26 26 25 25 25 25 25 25 25 26 26 26 26 26 25 25 25 25 25 24 25 25 25 24 23 24 24 24 24 25 25 24 25 26 27 27 27 28 29
26 26 26 25 24 24 24 23 23 23 23 23 23 23 24 24 25 25 24 24 23 23 23 23 23 23 23 23 23 23 23 23 24 24 24 24 24 24 25 25 25 26 28 29
23 23 23 24 24 23 23 23 22 22 22 23 22 22 22 22 23 23 23 23 22 22 22 22 22 21 21 21 21 22 22 22 22 23 23 23 23 23 23 24 25 27 28 30
21 21 22 21 22 22 22 22 21 20 20 20 20 20 20 20 21 21 21 21 21 21 20 20 20 20 19 19 20 20 21 21 21 21 21 20 21 22 24 25 26 27 28 29
21 20 20 20 20 20 20 20 19 18 17 17 17 17 16 17 18 18 19 19 20 19 18 18 17 17 17 17 17 17 18 18 18 18 19 21 22 23 24 25 25 26 27 27
19 18 18 18 18 17 17 16 16 15 14 14 14 14 14 15 15 15 15 15 15 14 15 15 14 14 13 13 13 13 14 15 16 18 19 20 21 23 24 24 25 25 25 26
16 16 15 15 15 15 14 14 14 13 13 13 13 13 12 12 12 13 13 12 12 12 12 12 12 12 12 12 13 14 15 16 18 19 21 22 23 24 24 25 25 25 25 25
16 15 14 14 14 13 13 13 12 12 12 11 11 11 11 11 11 11 10 9 9 10 10 10 11 11 12 14 15 16 17 18 20 21 22 23 24 24 24 24 24 24 24 24
15 15 14 14 13 13 13 12 11 11 10 10 10 9 9 9 9 8 8 8 8 9 10 10 11 13 14 16 17 18 20 20 22 23 23 24 24 24 24 24 23 23 23 23
15 15 15 15 15 14 13 12 11 10 9 9 8 8 8 7 7 7 8 8 9 10 11 12 14 15 17 18 19 20 21 22 23 23 23 23 23 23 23 23 23 22 22 22
17 17 16 14 14 13 12 12 10 9 8 8 7 6 6 6 7 7 8 10 11 12 14 15 16 18 19 20 20 21 22 22 23 23 23 23 23 22 22 22 22 22 22 22
16 16 15 14 13 12 11 10 9 8 7 6 6 6 6 7 8 9 10 12 13 14 15 17 18 19 20 20 21 22 22 23 23 23 23 22 22 22 21 21 21 21 21 21
14 14 13 13 11 10 9 8 7 6 6 6 6 7 8 8 10 11 12 13 14 15 16 17 19 19 20 21 21 21 22 22 22 22 22 22 21 21 21 21 21 20 20 20

GEFSNGP_500_meanwind_138.txt.gz
Wind_Speed
27 22 18 17 17 19 21 21 21 21 23 23 23 22 19 17 17 17 16 15 15 14 13 13 13 12 12 11 11 11 11 12 12 12 12 12 12 13 13 14 15 16 17 18
29 27 21 19 19 18 20 21 22 22 25 24 24 21 20 19 18 17 18 17 16 15 15 14 14 14 13 13 13 12 13 13 13 13 13 13 13 13 14 14 15 16 17 18
29 28 24 24 22 20 20 21 22 24 26 23 24 25 22 22 21 20 20 20 19 17 16 16 16 15 15 15 15 14 14 14 14 14 14 14 14 15 15 16 17 17 17 18
31 27 27 24 23 23 23 23 23 26 27 26 26 26 25 24 23 23 22 22 21 19 18 18 18 17 17 17 17 17 17 17 16 16 15 16 15 16 17 18 18 18 19 19
32 29 29 26 25 25 26 27 28 30 30 29 28 28 28 27 25 23 23 23 22 22 21 20 20 20 20 20 20 19 19 19 18 17 17 17 17 18 19 19 19 20 20 21
34 31 28 28 29 28 27 29 31 32 32 32 31 31 30 28 26 25 24 23 23 24 23 23 23 22 21 21 21 21 21 20 20 19 19 19 19 19 20 21 21 22 23 23
35 33 31 31 31 31 32 34 34 33 33 32 32 32 31 29 28 27 26 25 25 25 25 25 25 24 23 22 23 23 22 22 22 21 21 21 22 22 21 22 22 23 23 24
37 35 35 34 32 33 34 33 34 32 32 32 33 32 31 30 29 28 27 27 26 26 25 26 26 26 25 25 25 25 25 25 24 24 24 23 23 23 23 23 23 24 24 25
38 40 40 38 38 37 36 35 35 34 33 33 33 31 31 31 29 28 28 27 27 27 26 26 26 26 26 26 26 26 26 27 27 26 25 25 25 25 25 25 26 26 26 26
39 39 41 42 40 38 37 36 35 35 34 34 34 32 32 31 31 30 29 28 28 28 28 27 27 27 26 27 27 27 27 27 27 28 27 27 26 26 27 27 27 27 28 28
39 41 41 41 40 38 37 37 37 36 36 35 34 34 33 32 31 30 30 29 29 28 27 27 27 27 27 27 28 28 28 28 28 28 28 27 27 27 28 28 28 29 29 29
41 40 39 39 38 37 35 35 35 35 34 34 34 34 33 32 31 31 30 30 29 28 27 26 27 28 28 28 28 28 28 27 27 26 27 27 27 28 28 28 28 28 27 28
38 37 36 37 37 36 35 34 34 35 35 33 33 32 31 31 31 31 30 29 28 28 27 27 28 28 28 28 28 27 27 27 26 25 26 26 26 27 27 27 27 27 26 27
34 35 35 35 35 35 34 33 33 34 34 33 32 31 30 30 30 30 30 29 28 27 27 27 26 26 26 27 26 26 26 26 26 25 25 25 25 25 25 25 26 26 27 27
31 30 31 32 32 31 31 32 31 30 30 31 30 30 29 28 28 28 28 27 27 27 27 26 26 26 26 25 25 26 26 26 25 24 24 24 24 24 25 25 27 27 28 29
28 29 30 31 31 30 30 30 28 28 29 29 29 29 28 27 26 26 26 26 26 26 26 26 26 25 24 24 24 24 24 24 24 24 23 23 23 23 24 25 27 28 28 28
26 26 27 29 29 29 28 28 27 27 27 27 27 26 25 25 24 23 23 23 24 24 24 23 23 23 22 22 23 24 23 23 22 22 22 22 22 23 24 25 26 26 26 26
24 24 25 27 27 27 26 26 26 26 26 25 24 24 23 23 22 22 22 22 22 22 22 21 20 21 21 21 21 20 20 21 22 22 21 22 22 23 23 23 23 24 24 25
23 24 24 24 24 24 24 24 23 23 23 22 22 22 22 22 22 22 21 21 21 20 20 19 19 19 19 18 18 18 19 19 20 21 21 21 21 21 22 23 23 24 25 26
23 23 22 22 21 21 21 21 21 21 21 21 21 20 19 19 19 19 19 19 19 18 18 18 18 18 17 17 17 18 18 18 18 18 18 19 20 21 22 22 23 24 25 26
22 21 20 20 20 19 19 19 19 19 19 18 18 18 17 17 17 16 16 16 16 16 16 16 16 15 15 15 16 16 16 17 17 17 18 19 20 22 23 23 25 26 26 27
20 20 18 18 17 17 16 16 16 16 16 16 16 16 15 15 14 14 13 13 11 11 11 11 12 13 14 15 15 15 16 17 17 19 20 21 22 23 24 25 26 26 27 27
16 16 16 16 14 14 14 14 14 14 14 13 12 12 12 12 11 11 11 11 11 11 11 11 12 12 13 14 15 16 17 18 19 21 22 22 23 25 26 26 27 27 27 27
14 14 14 14 13 12 12 12 11 12 12 11 11 10 10 10 10 11 10 10 10 11 11 11 12 13 15 16 17 18 19 20 21 22 23 23 24 25 26 26 27 27 26 26
13 13 13 12 12 12 12 12 11 11 10 10 9 9 9 9 9 10 10 10 10 10 11 13 14 16 17 18 19 19 20 21 22 22 23 24 25 25 25 25 25 25 25 25
12 12 12 12 12 12 12 11 11 9 8 8 9 8 8 7 7 8 8 9 10 12 13 14 15 17 18 18 19 20 21 21 22 22 23 23 23 23 24 24 25 25 25 24
11 11 11 11 11 11 10 10 9 8 7 7 7 6 6 6 7 8 9 11 12 13 14 15 16 17 18 18 19 19 20 21 21 22 22 22 22 23 23 24 24 24 24 24

GEFSNGP_500_meanwind_144.txt.gz
Wind_Speed
28 28 27 26 24 22 22 21 21 21 21 21 21 20 18 17 16 15 13 12 12 11 10 10 9 9 8 8 8 8 8 8 8 9 9 9 10 10 10 12 13 13 13 14
30 30 30 30 28 26 24 23 22 23 23 22 22 22 19 18 18 17 14 14 13 12 11 11 10 10 10 10 10 10 10 10 10 10 10 10 11 11 11 12 13 14 14 15
32 33 32 32 29 29 28 25 25 24 23 23 24 22 21 21 20 19 16 15 14 13 13 11 11 11 11 11 11 12 12 12 12 12 12 12 12 11 12 13 14 15 16 16
33 33 36 32 31 31 30 28 27 26 24 24 23 23 23 23 22 19 18 16 16 14 14 14 13 13 13 14 14 13 14 14 14 14 14 14 14 13 13 13 14 15 17 17
35 36 36 33 33 32 31 31 30 29 26 25 25 25 24 24 23 22 21 19 18 17 17 15 15 15 15 15 15 15 15 16 15 15 15 16 15 15 15 15 16 16 18 19
38 37 37 34 33 35 35 34 31 30 28 28 28 27 26 25 24 23 22 21 19 19 18 17 16 17 18 17 17 17 17 17 18 17 17 17 17 18 17 17 18 18 19 20
39 38 37 33 34 35 36 35 33 32 30 29 29 28 27 27 26 26 24 23 22 21 20 19 18 19 19 19 19 19 19 20 20 19 19 19 19 19 19 19 19 20 20 20
41 40 37 34 34 35 35 34 33 32 31 30 30 30 29 27 27 27 26 24 24 22 22 21 21 21 21 21 21 21 21 21 21 21 21 21 21 21 21 21 21 21 21 22
42 40 37 35 35 36 36 36 35 34 33 31 31 30 29 28 28 27 26 25 24 23 23 23 23 22 22 22 23 23 22 22 22 22 23 23 23 22 23 23 23 24 24 24
41 41 39 37 36 36 37 37 36 37 36 34 32 31 31 31 29 29 29 27 26 25 25 24 24 24 24 25 24 24 24 23 23 23 24 24 23 23 23 24 25 25 25 24
40 39 37 36 36 36 36 37 37 37 36 36 35 34 32 30 29 28 28 27 26 26 26 26 25 25 26 26 26 25 25 25 24 24 24 24 24 23 23 23 24 24 24 24
39 36 35 35 35 35 36 37 38 37 37 36 35 34 33 31 31 31 29 28 27 27 27 26 26 26 26 26 26 25 25 24 25 24 24 23 23 23 23 24 24 24 24 24
38 37 36 35 34 35 35 36 36 36 36 36 35 34 31 29 29 29 29 29 28 28 27 27 27 26 26 26 25 25 25 25 25 25 24 24 24 24 24 24 24 23 23 23
36 36 35 34 34 34 34 34 34 34 35 34 33 31 30 29 29 29 29 28 27 27 27 28 27 27 27 26 26 26 26 26 26 26 25 25 25 25 25 24 24 24 23 24
34 34 33 31 31 32 32 32 32 32 32 33 33 31 30 29 29 28 27 26 26 26 26 26 26 26 26 26 26 25 25 25 25 25 25 25 25 25 25 24 24 24 24 26
31 31 31 31 30 29 30 30 29 29 29 30 30 30 28 27 27 27 26 26 25 25 25 25 25 25 24 24 24 24 23 23 24 24 24 24 24 23 23 23 23 25 26 26
29 27 27 27 27 27 27 28 28 27 26 26 25 25 25 24 24 25 25 24 24 24 24 24 23 22 22 22 22 22 22 23 22 22 22 22 22 22 22 23 24 25 25 25
27 26 25 23 23 24 25 25 24 24 24 24 23 22 22 23 23 23 23 23 23 23 22 22 21 21 21 20 20 20 20 21 21 21 21 21 22 22 22 23 24 24 24 24
25 25 25 23 22 23 22 22 21 21 22 22 22 22 21 22 22 23 22 22 21 21 20 20 19 20 20 20 20 20 20 20 20 20 20 20 20 21 22 23 24 24 25 25
23 23 23 22 21 20 19 19 18 19 19 20 20 20 21 21 21 20 20 19 19 19 19 19 19 19 19 19 19 19 19 19 19 19 19 19 20 21 22 23 24 24 24 25
19 20 20 19 19 18 18 17 17 17 17 17 18 18 18 18 19 18 18 17 17 17 18 17 17 17 17 17 17 17 17 17 17 18 19 20 21 22 22 23 23 23 24 25
17 17 17 17 16 16 16 15 15 15 14 14 15 16 16 16 16 16 16 16 16 16 16 15 15 15 15 15 15 15 16 17 18 19 20 21 22 22 22 23 23 24 25 25
14 14 14 15 15 14 14 14 13 13 13 13 13 13 14 14 14 14 14 14 14 14 14 13 13 13 14 15 15 16 17 18 18 19 20 21 21 22 22 23 24 24 25 25
13 13 13 13 13 13 12 12 12 11 11 11 11 12 12 12 12 12 12 11 11 11 12 12 13 13 14 15 15 16 16 17 18 19 19 20 20 21 22 23 24 25 25 26
12 12 12 11 10 10 10 10 10 9 9 10 10 10 10 10 10 10 10 10 10 11 11 12 12 13 14 15 15 16 17 17 18 19 20 21 22 22 23 24 25 26 26 27
11 10 9 9 9 9 8 8 8 8 8 8 8 8 9 9 9 9 9 10 10 10 11 11 12 13 13 14 15 16 17 18 19 20 21 22 22 23 23 24 25 25 26 26
9 9 9 9 8 8 7 7 7 7 7 7 7 7 8 8 8 8 9 9 9 9 10 11 12 12 13 15 16 17 19 19 20 21 22 22 23 24 25 25 25 26 25 25

GEFSNGP_500_meanwind_150.txt.gz
Wind_Speed
27 26 27 26 25 24 23 22 21 19 17 15 15 15 14 14 14 12 11 11 11 11 11 10 9 9 8 9 9 9 8 8 9 9 10 10 11 11 12 12 13 14 15 16
27 27 27 27 26 25 24 24 23 21 20 17 17 17 16 15 14 13 12 12 12 12 12 12 11 10 10 10 11 11 11 10 10 11 11 11 12 13 14 14 15 15 16 17
27 27 28 29 28 27 25 24 24 23 21 20 19 18 17 16 15 14 13 13 14 13 12 11 11 10 10 11 11 12 12 12 12 12 12 13 14 15 16 16 16 16 17 18
29 28 30 28 28 28 27 26 25 24 23 22 20 19 18 17 17 16 16 15 14 13 12 13 13 12 12 12 13 13 14 13 13 13 14 15 15 16 16 17 17 18 19 19
32 32 31 30 28 28 28 28 27 25 23 23 22 21 20 19 18 18 17 15 15 15 15 14 14 13 13 14 14 14 15 16 15 15 16 16 17 17 17 18 18 19 20 21
37 35 35 32 30 30 29 29 27 26 25 24 24 23 22 21 20 20 18 17 16 16 16 16 16 15 15 16 15 16 17 17 17 17 17 18 18 19 19 19 20 20 21 22
40 39 37 34 32 31 31 29 27 27 26 26 25 24 23 23 22 21 20 19 18 18 18 18 17 17 17 17 17 17 18 18 18 19 19 20 20 20 20 21 22 23 23 24
42 41 40 36 34 32 31 29 28 27 26 26 25 25 25 25 24 22 21 21 21 21 21 20 19 20 19 18 19 19 20 20 21 21 22 22 22 22 22 23 23 23 24 25
43 42 40 38 37 35 33 31 30 28 27 27 27 27 28 27 26 25 24 24 24 24 24 23 23 22 22 21 21 21 22 22 23 23 24 24 24 23 23 23 24 25 26 26
43 43 42 40 39 37 35 33 31 30 29 28 28 28 27 27 27 27 26 25 25 25 24 24 24 23 22 22 22 23 24 24 24 24 25 25 24 24 24 25 26 27 27 27
41 42 41 40 39 37 36 34 33 31 31 31 30 29 29 28 28 27 28 28 27 26 25 24 22 22 22 22 23 24 25 25 25 25 25 25 25 25 26 26 27 28 28 27
40 40 40 40 39 38 37 35 34 33 32 32 32 31 31 31 30 29 29 28 28 27 26 25 25 24 23 24 25 25 26 26 26 27 27 27 27 27 27 28 29 30 29 29
37 38 38 38 38 38 37 36 35 34 33 33 32 32 32 32 31 31 30 29 27 26 26 25 25 25 25 25 26 26 27 27 28 28 28 28 28 29 29 29 29 29 29 29
36 36 36 36 37 37 36 35 35 34 33 32 32 31 31 31 30 30 29 28 27 26 26 26 26 26 26 27 27 27 27 28 28 29 29 29 28 28 28 28 28 28 28 29
34 33 33 34 35 35 34 34 33 33 32 31 31 30 30 31 30 29 28 27 26 26 27 27 26 26 27 27 27 27 26 27 27 27 27 27 27 27 28 28 27 27 28 28
32 31 31 31 32 32 32 32 32 31 31 31 31 30 29 29 29 30 29 27 27 27 27 27 27 27 26 26 26 26 26 25 25 26 26 26 26 26 27 27 27 27 28 28
29 29 29 30 31 31 31 31 31 30 29 29 29 29 29 28 28 28 27 27 27 26 26 26 26 25 25 25 25 25 25 25 26 26 26 26 26 26 27 27 27 28 28 29
28 28 28 26 26 26 27 28 29 29 27 27 28 28 27 26 26 25 25 25 24 24 24 24 24 24 24 24 24 24 25 25 25 25 25 26 26 27 27 27 27 27 27 28
26 26 26 25 25 24 25 26 25 26 26 25 25 24 24 24 23 23 23 22 22 22 22 22 22 22 22 22 23 24 24 24 24 24 25 25 25 25 25 25 26 26 27 27
23 23 23 23 23 22 21 22 21 21 21 21 21 20 20 21 20 20 20 20 20 21 21 22 22 22 22 22 22 22 23 23 23 24 24 24 23 23 24 24 25 26 26 27
21 21 21 21 21 20 19 19 18 18 19 18 19 19 18 19 19 19 19 19 19 20 21 21 22 22 22 22 21 21 21 22 22 23 22 22 22 22 23 23 24 24 24 24
18 18 18 18 18 18 17 17 17 18 18 17 17 17 17 17 17 18 19 19 19 20 20 20 20 20 20 19 19 19 20 20 21 21 21 21 21 22 22 23 22 23 23 24
16 16 16 16 16 15 15 16 16 17 16 16 16 16 16 16 16 17 17 17 17 17 18 17 17 18 18 18 19 18 19 19 20 20 20 20 21 21 21 21 22 23 23 24
14 14 14 14 14 14 14 14 14 15 15 15 15 15 15 15 15 15 16 16 16 15 16 16 16 17 18 17 17 17 18 19 19 19 20 20 20 20 21 22 22 23 23 24
13 13 13 13 13 13 13 13 13 13 13 13 13 14 14 14 14 14 14 14 14 14 14 15 15 16 16 16 17 17 17 18 18 19 19 19 20 21 22 23 23 24 25 25
12 12 12 12 11 11 11 12 11 11 11 11 11 12 12 12 12 12 12 12 12 12 13 13 14 15 15 15 16 17 17 18 18 19 20 20 21 22 23 23 24 24 25 26
11 11 10 9 9 9 9 9 9 9 9 9 9 9 9 9 9 10 10 11 11 12 13 13 14 14 14 15 16 16 17 18 19 20 21 22 23 24 24 24 25 25 26 26

GEFSNGP_500_meanwind_156.txt.gz
Wind_Speed
25 25 24 22 22 21 20 19 17 16 16 15 14 13 13 12 12 11 11 11 11 10 10 10 10 10 9 9 9 9 10 10 11 11 12 12 12 13 13 13 14 15 16 17
25 25 25 24 23 23 22 20 19 18 17 16 15 15 14 13 13 12 12 12 12 12 12 11 11 11 10 10 10 10 10 11 11 11 12 12 13 13 14 14 15 16 17 18
25 25 25 26 25 24 23 21 20 18 18 17 17 16 15 14 14 13 13 14 14 14 14 13 13 12 11 11 12 12 12 13 12 12 12 13 13 14 14 15 16 17 17 18
25 26 25 25 25 24 23 22 21 21 20 20 19 18 16 15 15 15 15 15 15 15 14 14 14 14 13 14 14 14 14 14 14 14 14 15 15 15 16 16 17 18 18 19
27 26 26 27 25 24 24 24 23 22 21 21 20 19 18 17 17 17 16 16 15 15 15 15 15 15 16 16 16 16 16 15 15 15 15 15 16 17 17 18 18 19 19 20
28 26 24 25 24 23 24 25 24 23 22 22 21 21 20 19 19 19 18 18 17 17 16 16 16 17 17 17 17 18 18 18 18 18 17 18 18 18 19 19 20 20 21 22
30 28 27 28 24 23 25 25 24 24 23 23 23 23 22 22 21 21 21 20 19 19 18 18 18 18 18 19 19 19 19 20 20 19 20 20 20 20 21 22 22 23 23 24
32 31 31 30 26 26 26 26 25 25 25 25 24 23 23 23 23 23 23 22 21 21 20 20 20 20 20 20 20 21 21 21 22 21 21 22 22 23 23 23 24 24 25 26
34 33 33 31 29 27 27 27 27 26 26 26 25 24 24 24 24 24 24 24 24 23 23 23 23 23 22 22 22 23 23 24 24 24 23 24 25 25 25 25 25 25 25 26
35 35 34 33 31 29 29 28 28 28 27 27 26 26 25 25 25 25 25 25 25 25 25 25 24 25 25 25 25 25 26 26 25 25 25 26 27 27 27 26 27 27 27 28
35 35 35 34 33 31 31 31 30 29 29 28 28 27 27 26 26 26 26 26 26 27 27 27 27 26 27 27 27 27 27 27 27 27 27 28 28 28 27 27 28 28 29 29
35 35 35 34 33 33 32 32 31 31 30 30 29 29 29 28 28 28 28 28 28 27 27 28 28 28 29 29 29 28 28 28 28 28 29 29 29 28 29 29 29 30 30 30
35 34 34 34 34 34 34 33 33 32 32 31 31 30 30 30 29 29 29 29 28 28 29 29 30 30 29 29 29 30 30 30 30 30 30 30 30 30 30 30 31 31 31 30
34 34 34 34 35 35 34 34 34 34 33 33 32 32 31 31 30 30 30 29 30 30 30 30 31 30 30 30 30 30 30 30 30 31 31 30 30 30 30 30 31 31 30 30
33 34 34 34 35 34 34 34 34 34 34 34 33 33 32 31 31 32 31 30 30 31 31 31 31 31 31 31 30 30 31 31 30 30 30 30 29 28 28 29 30 29 29 29
32 32 32 33 33 33 33 34 33 33 34 34 34 33 33 32 32 31 31 30 31 31 31 31 31 31 31 30 30 30 30 30 29 30 30 29 29 29 28 29 29 28 28 29
30 30 31 31 32 32 33 33 33 32 33 33 33 33 33 32 31 30 30 30 30 30 30 30 30 29 29 29 29 29 28 28 29 29 29 29 29 28 28 27 27 27 27 28
29 29 29 29 29 30 31 30 30 31 31 31 31 31 31 31 30 30 29 29 30 29 29 29 28 28 29 29 29 28 28 28 28 28 28 28 27 26 26 26 26 26 27 27
27 27 27 28 28 28 29 29 28 28 29 29 29 29 29 29 29 28 28 28 28 28 28 28 28 28 29 29 29 28 27 27 27 26 26 26 25 25 25 25 26 26 26 26
25 25 25 26 26 26 26 27 27 27 26 27 27 27 27 27 26 26 26 26 27 27 27 27 27 27 27 27 26 25 24 24 25 25 25 24 24 25 25 26 26 26 25 25
24 23 22 23 23 23 24 24 25 25 25 25 24 24 25 25 24 24 25 25 25 25 25 25 25 25 24 23 23 23 23 24 24 25 24 24 25 25 25 26 26 25 24 24
21 20 20 21 21 22 23 22 22 21 21 21 22 22 23 23 23 23 23 23 22 22 22 22 22 22 21 22 22 22 22 23 23 23 23 23 23 24 25 24 24 23 23 23
19 19 20 20 20 20 20 19 19 19 19 19 20 20 21 21 21 21 21 20 21 21 20 20 20 20 20 20 21 21 21 21 21 21 21 22 23 23 23 22 23 23 23 23
18 18 19 19 19 19 18 18 17 17 17 17 18 19 19 19 19 19 19 19 18 18 19 19 19 19 19 20 20 20 20 20 20 21 21 21 21 21 21 22 22 22 22 23
16 16 17 17 17 17 17 16 16 15 16 16 17 17 17 18 18 18 18 17 17 17 17 18 18 18 18 19 19 19 19 19 20 20 20 20 20 20 21 21 21 22 23 24
15 14 14 15 15 14 15 14 14 14 14 14 15 15 15 15 15 15 15 15 15 16 16 16 16 16 17 17 18 18 18 18 18 18 19 19 20 20 21 22 22 23 23 24
12 12 12 13 13 13 12 12 11 11 10 10 11 11 12 13 12 12 12 13 13 14 14 14 15 16 16 17 17 17 17 18 18 18 19 19 20 21 22 22 23 23 24 25

GEFSNGP_500_meanwind_162.txt.gz
Wind_Speed
25 22 16 16 17 18 20 20 18 17 19 22 20 20 20 18 18 17 16 16 15 14 14 14 14 14 14 14 14 13 12 11 11 12 12 13 13 13 15 15 16 16 16 17
28 25 22 19 18 18 18 19 20 19 21 21 22 22 21 20 19 17 17 17 16 16 15 15 15 15 14 15 14 14 14 13 13 13 13 13 14 14 15 15 15 16 16 17
28 26 25 23 21 19 18 19 20 21 24 24 24 25 22 20 20 19 18 18 18 17 17 17 17 17 16 15 15 15 15 15 15 15 14 14 15 15 16 16 15 16 17 18
26 25 24 22 21 21 21 21 21 23 25 25 26 27 24 22 22 21 20 19 19 18 17 17 17 18 17 17 17 16 17 16 16 15 16 16 17 17 17 17 17 17 19 19
27 25 22 21 22 22 22 24 24 24 26 27 28 26 25 24 23 22 21 20 20 19 19 18 18 19 18 17 18 18 17 18 18 18 18 19 19 19 19 20 20 20 21 21
29 26 22 22 24 23 23 26 28 27 28 28 26 25 25 24 23 22 22 22 21 21 21 20 19 19 19 19 20 20 20 20 20 20 20 21 21 21 22 23 22 22 23 23
30 29 27 27 26 25 26 28 28 28 27 28 27 26 26 25 25 24 24 24 24 24 23 22 22 21 21 21 21 22 21 22 22 22 22 22 23 23 24 24 23 23 23 24
32 31 30 31 29 28 28 28 29 28 27 27 27 27 27 26 26 26 25 25 26 26 25 24 24 24 23 23 23 23 23 23 23 23 24 24 25 25 25 25 26 25 26 26
32 34 35 33 32 30 29 28 27 27 28 28 29 28 27 27 27 27 27 26 26 26 26 26 26 26 25 25 25 25 24 24 25 25 26 27 26 27 27 27 27 27 28 28
32 33 34 33 33 32 31 30 30 30 30 30 30 29 29 29 28 28 28 27 27 27 27 27 27 27 27 26 26 26 26 27 27 28 28 29 28 29 29 29 29 29 29 29
35 34 34 35 35 34 33 32 32 32 32 31 31 31 30 30 29 28 29 29 28 28 28 28 28 27 28 28 28 28 29 29 29 29 29 30 30 30 30 30 30 30 30 31
37 37 36 36 35 34 34 34 34 33 33 32 32 32 31 31 30 30 29 29 29 29 29 29 29 29 29 30 31 31 31 31 31 31 31 32 32 32 32 32 32 32 32 32
38 37 37 37 36 35 35 35 35 34 33 33 33 32 31 31 31 31 31 31 31 31 31 31 31 31 31 31 31 32 32 32 32 32 32 32 32 33 33 32 32 32 32 33
36 37 38 38 38 37 36 36 36 35 34 34 33 33 33 33 33 33 33 33 33 33 32 32 32 32 32 32 32 32 33 33 33 33 33 33 33 33 33 33 32 32 32 32
36 36 37 37 36 37 36 36 36 36 35 35 35 34 34 34 34 34 33 33 34 34 33 33 33 33 33 32 32 32 33 33 33 33 33 34 34 33 33 32 31 31 31 32
35 36 36 36 36 36 37 37 37 37 36 36 35 35 35 34 34 34 34 34 34 34 34 34 34 33 32 32 32 33 33 33 33 33 33 33 33 32 32 32 31 31 30 31
34 35 35 35 36 37 37 36 36 37 36 36 36 35 35 35 35 35 35 34 34 34 34 33 33 33 33 33 33 32 32 33 33 33 33 32 32 32 31 31 30 30 30 30
33 33 34 35 35 36 36 36 36 35 35 34 35 35 35 35 35 34 34 34 34 33 33 33 32 32 32 33 32 32 31 31 32 32 31 31 31 31 30 30 30 29 29 30
32 32 33 34 34 34 34 35 35 35 35 34 35 35 34 34 34 34 34 33 33 32 31 31 31 31 31 32 32 31 31 30 30 30 30 30 30 30 30 30 30 31 30 30
30 31 31 32 32 32 32 33 33 34 34 33 33 33 33 33 32 32 32 32 31 31 30 30 30 30 30 30 30 29 29 29 30 30 30 30 30 29 30 30 30 30 30 30
29 30 30 30 30 30 30 30 31 31 31 31 31 31 31 31 30 30 30 30 30 29 29 29 28 27 26 26 27 27 28 29 29 29 29 28 28 29 29 29 29 29 29 29
27 28 28 28 28 28 27 28 28 28 28 28 28 29 29 29 29 28 28 27 27 26 26 26 26 26 26 26 26 26 26 26 26 27 27 28 28 28 28 28 29 28 28 28
25 25 26 26 26 26 26 25 25 25 25 26 26 27 27 27 26 25 25 24 24 24 24 24 25 25 25 25 25 25 24 24 25 25 25 26 26 26 26 27 27 26 26 26
23 23 23 23 22 22 22 22 22 21 22 22 23 23 23 23 22 22 22 21 21 21 21 21 22 22 23 23 23 23 23 23 23 23 23 24 25 25 25 26 26 26 26 26
21 21 21 21 20 20 20 19 19 19 19 19 19 18 18 18 18 19 19 19 19 19 19 19 19 20 21 21 22 22 22 22 22 22 23 24 24 24 25 25 25 25 26 26
16 17 18 18 18 18 18 18 18 17 17 16 16 16 16 16 17 18 18 17 17 17 17 18 19 19 20 20 20 20 20 21 22 22 23 23 24 25 26 26 26 26 26 26
14 14 14 14 14 14 14 15 15 15 15 15 14 15 15 15 15 14 14 15 15 16 17 17 17 17 18 18 19 19 20 20 21 22 23 24 24 24 25 25 26 26 26 26

GEFSNGP_500_meanwind_168.txt.gz
Wind_Speed
25 25 25 23 21 19 18 18 20 21 21 21 20 20 20 20 20 19 18 18 17 15 14 13 12 11 11 11 11 10 10 10 9 9 8 8 8 8 8 9 10 11 11 12
27 26 28 27 26 23 20 19 20 20 21 22 21 21 21 21 22 22 20 19 17 15 14 13 12 11 11 12 11 11 10 10 10 11 10 9 10 9 10 10 11 12 12 13
29 28 29 29 27 26 24 22 21 21 22 23 24 24 23 23 23 22 20 20 18 16 15 14 13 12 12 12 12 11 11 11 11 11 11 11 11 11 12 12 12 13 14 15
29 30 31 29 28 29 28 26 25 25 24 26 26 26 24 24 23 23 22 22 21 18 17 15 14 13 13 13 13 13 13 12 13 13 12 13 13 13 13 13 13 14 15 16
30 30 31 30 31 32 31 30 28 28 27 27 27 26 25 25 24 23 23 23 21 20 19 17 16 16 16 15 15 15 14 14 14 14 14 14 14 15 15 16 16 16 17 17
32 32 32 32 32 32 33 33 32 30 29 27 26 26 26 25 24 24 24 22 21 21 20 19 18 18 18 17 17 16 16 16 16 17 17 18 17 17 18 18 19 19 18 18
31 32 32 32 33 34 34 34 32 31 30 28 26 26 25 26 26 25 24 23 22 22 21 21 20 20 20 20 19 18 18 18 19 19 20 20 20 20 21 21 21 21 21 21
32 33 33 32 32 34 35 33 32 31 30 27 27 26 26 26 26 25 25 25 24 23 22 22 22 21 21 21 21 20 20 20 21 21 21 21 22 22 22 23 23 24 23 22
33 34 33 33 34 34 34 33 31 30 27 27 27 26 26 25 25 25 25 25 25 24 24 24 23 22 22 22 22 22 22 22 22 23 23 23 24 24 24 25 25 24 24 24
34 33 33 32 33 34 34 33 31 30 29 27 26 27 27 26 25 25 26 27 27 27 25 25 24 24 24 23 23 23 24 24 24 25 25 25 26 26 26 26 26 26 26 26
34 32 31 31 31 31 31 31 31 31 29 28 26 27 27 26 26 26 27 28 27 26 26 25 25 25 25 25 25 25 26 26 26 26 26 27 27 27 28 27 27 28 28 28
33 32 31 31 30 30 30 30 30 31 31 30 29 29 28 27 27 27 28 28 28 27 27 27 27 28 28 27 27 27 27 27 27 27 27 27 27 28 28 28 28 28 29 29
34 33 32 31 30 29 28 29 29 30 31 31 31 31 31 30 30 30 30 29 29 28 28 29 29 29 29 29 29 29 29 29 29 29 29 29 29 29 29 29 29 29 29 30
34 34 33 31 31 30 30 30 31 31 32 32 33 34 34 33 31 31 31 31 30 30 30 30 30 30 30 30 30 30 30 30 30 30 30 30 30 30 30 30 30 30 30 30
33 33 33 33 33 32 32 32 32 32 32 33 33 33 33 34 34 33 33 32 31 31 31 31 31 31 32 31 31 30 30 30 31 31 31 31 31 30 31 31 30 30 30 29
34 33 33 34 34 34 34 34 34 33 33 33 33 33 33 34 34 34 34 33 32 32 32 33 33 33 32 32 31 31 31 30 30 30 30 30 30 31 30 30 29 29 30 30
34 34 35 35 34 35 35 34 34 34 34 34 34 34 34 35 35 35 33 32 32 33 33 33 33 32 31 32 32 31 31 31 30 29 29 29 30 30 30 30 30 30 30 29
33 33 32 32 32 31 32 33 34 34 34 34 35 35 35 34 34 35 34 33 32 32 33 33 32 31 31 31 30 29 30 30 29 29 29 29 29 30 30 30 29 29 29 29
32 31 30 30 31 31 32 33 33 33 33 33 33 33 33 33 33 33 33 33 32 31 31 31 31 30 30 29 29 29 29 29 29 29 29 29 29 29 29 28 28 29 29 30
31 31 31 30 30 30 31 31 32 32 32 33 32 32 33 33 32 32 31 30 30 30 30 30 29 29 29 29 29 29 29 28 28 28 28 27 27 27 27 28 27 27 28 29
29 29 29 29 29 29 29 30 30 30 31 31 31 30 30 30 30 29 29 29 29 28 28 28 28 28 28 28 27 27 27 27 27 27 26 26 26 26 27 27 27 27 27 27
28 28 28 28 28 28 28 28 28 28 28 28 29 28 27 27 27 28 27 27 27 27 27 27 27 26 27 26 25 25 25 26 26 26 26 26 26 26 27 27 27 26 26 27
26 27 27 27 26 26 26 26 26 26 25 25 25 25 25 25 25 25 25 25 25 25 25 24 24 24 24 24 24 24 25 24 24 24 25 25 25 26 26 26 26 26 27 27
24 24 25 25 25 24 23 24 23 23 23 23 22 21 21 22 22 22 23 23 23 22 21 21 21 22 23 23 23 23 23 24 24 25 24 25 25 25 25 25 25 26 26 26
22 22 22 22 22 22 22 22 21 20 20 20 20 20 20 20 20 19 19 19 20 19 19 20 20 20 21 21 22 22 22 23 23 23 24 24 24 24 24 25 25 25 25 25
18 19 19 20 20 19 19 18 18 18 18 18 18 17 17 17 17 17 16 16 16 16 16 17 18 19 19 19 20 21 21 21 22 22 23 23 23 24 24 24 24 25 25 26
14 14 15 16 16 16 15 15 15 15 15 15 15 14 14 15 15 14 14 13 13 14 15 16 16 17 17 18 18 19 19 20 20 21 22 22 23 23 24 25 25 25 25 25

GEFSNGP_500_meanwind_174.txt.gz
Wind_Speed
26 25 24 24 23 23 22 20 20 18 17 17 18 17 17 17 17 17 17 17 17 17 17 17 14 13 12 12 11 11 10 10 10 10 10 9 8 8 9 10 11 11 11 12
27 26 25 25 24 24 23 22 20 19 18 17 18 18 17 18 17 17 17 18 18 18 18 17 15 13 13 13 12 12 11 11 11 10 10 10 10 10 11 11 12 12 12 14
28 27 27 27 25 25 25 23 22 20 18 18 18 18 18 18 19 18 18 19 19 19 19 17 15 15 15 14 14 13 13 12 12 12 11 11 12 12 12 13 13 13 14 16
29 28 29 27 26 25 25 25 24 23 21 20 20 20 20 20 20 20 19 20 21 20 19 18 17 16 16 16 15 15 14 14 14 14 14 14 14 14 14 14 14 15 16 17
30 30 29 28 27 26 26 26 25 25 24 23 23 22 22 22 23 22 21 21 20 20 20 19 19 18 18 17 16 16 16 16 16 17 16 16 16 16 16 16 16 17 17 18
31 31 31 29 28 28 27 27 26 26 26 25 25 24 23 23 24 23 21 20 20 20 20 21 21 20 19 18 18 18 17 17 18 17 17 17 18 18 18 19 19 19 20 20
33 33 32 31 30 30 30 29 27 27 26 26 25 25 24 24 24 23 22 22 22 22 22 21 21 21 21 19 20 20 19 18 19 19 19 19 19 20 20 21 21 22 23 23
35 34 34 32 32 31 31 30 29 28 27 27 26 26 26 25 25 24 24 23 24 24 23 22 23 23 22 21 21 21 21 20 20 20 21 20 21 22 23 23 24 24 24 24
37 35 34 33 32 31 31 30 30 29 29 28 28 28 27 26 26 26 25 26 25 25 24 24 24 24 23 22 22 23 22 21 21 22 23 23 23 24 23 24 24 24 24 25
37 36 35 34 33 32 31 30 30 30 29 29 28 27 27 27 27 26 27 26 26 25 25 25 25 25 26 24 23 23 22 22 22 23 24 24 24 25 25 26 26 25 26 27
37 36 34 33 32 31 30 30 30 30 30 29 28 28 28 28 28 28 26 26 26 27 27 26 26 27 26 24 23 22 23 23 24 24 25 26 26 27 27 27 27 27 28 28
36 35 33 32 31 30 30 30 30 30 30 30 30 29 29 29 28 27 27 28 28 29 28 28 27 26 25 25 25 24 24 25 26 26 26 27 28 28 27 28 28 29 29 28
35 34 33 32 31 30 30 29 29 30 29 29 29 29 29 29 29 29 30 30 30 30 29 29 28 28 27 26 27 27 27 27 27 28 28 28 29 29 29 28 28 28 28 29
35 35 34 32 31 31 30 30 30 29 29 28 29 29 29 29 29 30 30 31 30 31 31 31 30 30 29 29 29 29 29 29 29 29 29 29 29 29 29 28 28 28 29 30
36 35 34 33 32 31 30 30 30 29 29 30 30 30 30 30 30 31 31 32 31 32 32 31 32 31 31 30 31 31 30 30 30 30 30 29 29 29 29 29 29 29 30 30
34 33 33 32 32 31 31 31 31 31 31 31 32 31 30 30 31 31 31 31 31 32 32 33 32 31 31 31 31 31 31 31 30 30 29 29 29 29 29 29 30 30 30 31
33 32 32 32 31 31 31 31 31 30 30 30 30 29 29 29 30 30 30 31 32 32 32 32 32 32 31 31 31 30 31 30 30 30 30 30 29 29 29 30 30 30 30 31
31 31 31 30 30 30 30 30 30 30 30 30 30 30 30 30 31 32 32 31 31 31 31 31 31 31 30 30 30 30 30 30 29 30 29 29 29 30 31 30 30 30 30 30
29 28 29 29 29 29 29 29 29 29 29 29 29 29 29 30 30 30 30 30 30 30 30 30 30 30 29 29 29 29 29 29 28 29 29 29 30 31 30 30 30 30 30 30
28 28 28 29 29 29 29 29 30 29 28 28 28 28 28 28 29 29 29 29 29 29 29 29 28 28 28 28 28 28 28 28 28 28 29 29 29 30 29 28 28 29 29 29
27 27 27 27 28 28 28 28 28 28 28 28 28 28 28 28 28 27 27 27 27 27 27 27 27 27 27 27 27 27 27 27 27 27 28 28 28 28 27 27 28 28 28 28
27 27 27 27 27 27 27 27 26 26 26 27 27 27 27 26 26 26 26 26 26 26 26 26 26 27 26 26 26 26 26 27 26 27 27 27 27 27 27 27 27 27 27 28
26 26 26 26 26 26 26 26 25 26 26 26 26 25 25 26 25 25 25 25 25 25 25 26 26 25 25 25 25 25 25 24 24 25 26 25 26 26 26 27 27 27 28 28
23 23 24 24 23 23 23 23 24 24 24 24 23 23 23 24 24 23 23 24 23 23 23 23 23 23 23 23 23 23 23 23 23 24 24 25 25 25 26 26 27 27 28 28
22 22 22 21 22 22 22 22 22 22 22 22 22 22 21 21 21 21 21 21 21 21 21 21 20 20 21 21 22 22 22 22 23 23 23 24 24 24 25 25 26 27 27 28
20 20 20 20 20 21 20 20 20 20 20 20 20 20 20 20 19 19 19 19 19 19 19 19 19 19 19 19 20 20 20 21 21 21 22 23 24 24 25 25 25 26 27 27
18 18 18 18 18 19 19 19 19 19 19 18 18 18 19 18 18 17 17 17 17 17 17 17 17 18 18 18 18 19 19 20 20 21 21 23 23 24 24 25 26 26 27 27

GEFSNGP_500_meanwind_180.txt.gz
Wind_Speed
27 27 25 24 23 21 20 18 16 15 14 14 14 14 14 14 13 14 14 15 16 17 17 17 17 17 16 15 14 14 13 12 12 13 12 12 12 12 12 12 12 12 13 14
29 28 26 25 25 23 21 20 19 17 16 16 15 15 15 15 14 15 15 16 17 18 18 18 18 18 17 16 16 15 14 14 13 14 14 13 13 13 13 13 13 13 14 15
28 28 27 27 25 24 22 20 19 18 18 17 17 16 16 16 16 15 16 17 18 18 18 18 18 18 18 17 16 16 16 16 16 15 15 15 15 15 14 14 14 15 15 17
27 29 28 26 25 24 22 21 21 20 19 18 18 18 18 17 17 18 18 18 17 18 18 19 19 19 19 19 19 18 18 18 17 17 17 17 17 17 16 16 16 17 18 19
29 28 28 28 25 24 23 22 22 21 21 20 20 19 20 19 19 20 20 19 20 20 20 21 21 20 20 20 20 20 20 19 19 19 19 19 18 19 19 19 19 19 20 21
30 28 26 27 26 25 24 24 23 22 22 22 21 21 21 21 21 21 21 21 22 22 22 22 22 22 21 21 21 21 21 21 20 20 20 20 21 20 21 21 21 21 22 22
30 29 27 28 26 25 25 25 24 23 23 23 23 24 23 23 23 23 24 24 24 24 23 23 23 23 23 22 23 23 22 21 21 22 22 22 22 21 21 22 22 23 23 24
30 28 28 29 27 27 27 26 25 25 25 25 25 25 24 24 24 24 24 24 25 25 24 24 24 24 24 24 24 24 23 23 22 22 23 23 23 23 22 22 22 23 24 25
32 31 31 29 28 27 27 27 27 27 27 27 26 26 26 26 26 25 25 26 26 26 26 26 26 26 26 26 25 25 25 24 24 24 24 24 24 24 23 23 23 24 25 25
33 33 32 30 29 28 28 28 28 28 28 27 27 27 27 27 28 28 27 27 27 27 28 28 28 27 27 26 26 26 26 26 26 26 25 25 25 25 25 24 24 25 26 26
34 33 32 32 30 29 29 29 29 29 29 29 28 28 28 28 28 28 28 28 29 29 29 29 28 27 28 27 28 27 27 27 26 26 25 25 25 26 26 25 25 26 26 27
34 33 32 32 31 31 30 30 30 30 30 30 30 29 29 28 28 28 28 28 29 29 30 29 29 29 29 29 29 29 29 29 28 26 26 27 27 27 27 27 27 28 28 29
34 33 33 33 33 32 32 31 31 31 30 30 29 29 29 28 28 28 28 29 29 29 29 29 29 29 29 29 29 30 30 30 28 28 28 28 29 28 28 28 28 29 30 31
33 33 33 33 32 31 31 31 30 29 29 29 29 29 29 29 29 29 29 29 30 30 30 30 30 30 30 31 31 31 31 30 30 29 29 29 29 29 30 30 30 30 31 31
33 33 32 32 31 31 30 30 29 29 29 30 30 29 29 29 29 30 30 30 30 30 30 30 30 30 31 31 31 32 32 31 31 30 30 30 30 30 30 30 31 31 31 31
33 33 32 32 31 31 30 30 29 30 30 30 30 29 29 29 29 29 30 30 30 30 30 30 30 30 30 31 31 31 31 31 31 31 30 30 31 31 31 31 31 31 32 32
32 32 32 32 31 30 29 30 30 29 29 29 29 29 29 29 29 30 30 30 30 30 29 29 30 30 30 31 32 32 31 31 31 31 31 31 31 31 30 30 30 30 31 31
31 31 31 30 30 30 30 30 30 30 29 29 29 29 30 31 31 31 31 31 30 30 29 29 30 30 31 32 32 31 31 31 31 31 31 31 30 30 30 30 30 30 30 29
29 30 30 30 30 30 29 29 29 29 29 29 30 30 31 31 31 30 30 30 30 30 30 30 31 31 31 31 31 31 31 31 30 30 30 29 29 29 29 29 29 29 30 30
28 28 28 28 28 28 28 28 27 27 27 28 29 29 29 29 29 29 29 30 30 30 31 31 31 31 31 31 30 30 30 30 29 29 29 28 28 28 29 29 30 30 30 30
27 27 26 26 26 26 26 26 27 27 27 27 27 27 27 27 27 27 27 28 29 29 29 30 30 30 30 30 29 29 29 29 28 28 28 28 28 29 29 30 30 29 29 29
24 25 25 25 25 25 25 25 25 25 25 25 25 25 25 25 25 26 26 26 27 27 28 28 28 28 28 28 28 28 28 28 27 27 27 28 28 29 29 29 29 29 29 28
24 24 24 24 24 24 23 24 24 24 24 23 23 23 23 24 24 24 24 25 25 25 25 25 25 26 25 26 26 26 26 26 26 26 27 27 28 29 28 28 28 28 28 28
22 22 23 23 23 23 22 22 23 23 23 22 22 23 23 23 23 23 24 23 23 23 23 23 24 24 24 25 25 24 24 24 24 25 26 26 26 26 26 26 26 26 26 27
21 21 21 21 22 21 21 21 21 21 22 21 21 22 22 22 23 22 22 22 22 22 23 23 23 24 23 23 22 22 22 23 23 24 24 24 24 24 24 24 24 25 26 27
20 20 20 20 20 20 20 21 21 21 21 20 20 20 21 21 21 21 22 22 22 22 22 22 22 22 22 22 22 22 22 22 22 23 23 23 24 24 24 24 25 26 26 27
18 19 19 19 19 20 20 20 20 20 20 20 20 20 20 20 20 21 21 21 21 21 21 21 21 21 21 21 21 21 21 21 21 22 22 23 23 23 23 24 25 26 26 27

GEFSNGP_500_meanwind_186.txt.gz
Wind_Speed
28 21 19 19 19 20 21 19 17 16 18 20 20 21 20 19 18 18 17 17 17 18 18 19 19 20 20 20 19 19 19 18 18 17 16 16 15 15 15 16 16 16 16 17
30 26 21 21 20 21 21 21 19 18 18 20 21 21 22 20 19 19 18 18 17 18 19 19 20 20 20 20 20 20 20 20 19 19 18 17 17 17 17 18 18 18 19 18
30 27 24 24 23 21 21 21 21 22 21 22 24 24 22 20 20 19 19 19 18 19 19 20 21 21 21 21 21 21 22 21 20 20 20 19 18 18 19 19 20 20 20 19
29 28 29 26 23 23 22 22 23 24 25 26 27 26 24 22 21 20 20 20 20 20 20 21 22 22 22 23 23 22 22 22 22 21 21 21 21 20 20 20 21 21 21 21
30 28 28 27 26 25 24 25 25 25 26 26 27 27 26 23 22 22 22 22 22 22 23 23 23 24 24 24 24 24 24 24 23 23 23 22 23 22 21 21 22 22 22 22
32 29 28 28 26 24 24 28 28 28 28 28 28 27 26 24 23 23 23 23 24 24 25 25 24 25 26 26 25 25 25 25 25 25 24 24 24 23 23 22 23 23 23 23
33 31 29 27 26 25 27 29 29 28 27 26 27 27 26 24 24 24 24 25 25 26 26 27 26 26 27 27 27 27 27 27 27 26 26 25 25 24 24 25 25 25 25 24
33 31 31 30 27 27 28 29 28 28 28 28 28 26 26 26 26 26 27 26 26 26 27 27 27 27 27 27 28 29 29 28 28 27 27 27 26 26 26 26 25 26 26 26
34 35 34 32 31 31 31 30 29 29 30 29 28 28 28 27 27 28 28 28 27 27 27 27 28 28 29 29 30 30 29 29 28 28 28 27 27 27 27 27 26 26 26 26
35 35 35 35 34 33 32 31 30 29 29 29 29 28 28 29 29 29 29 29 28 28 28 29 29 30 29 30 30 30 29 29 29 28 28 28 28 28 28 27 27 27 28 28
37 37 35 36 35 33 31 32 32 30 29 30 30 29 30 30 30 30 30 30 30 30 30 30 30 30 30 31 31 30 29 29 29 29 29 30 29 29 29 28 28 29 29 29
38 38 37 35 34 35 34 33 33 33 32 32 32 32 32 32 31 31 32 31 31 31 31 30 30 30 31 31 30 30 30 30 30 30 30 30 29 30 30 30 30 30 30 31
38 37 36 36 34 35 34 32 33 32 32 33 33 33 33 33 32 33 33 32 32 32 31 31 30 30 30 30 30 30 30 31 31 31 31 30 30 30 31 31 31 31 32 32
37 37 36 35 34 35 35 35 34 34 33 33 33 33 33 33 33 33 33 32 32 32 32 31 31 31 31 30 30 30 31 31 31 31 31 31 31 31 32 32 32 32 33 33
36 37 37 36 35 34 33 34 34 34 34 33 33 33 33 33 33 33 33 32 32 32 32 32 31 31 31 30 30 30 30 30 31 31 31 32 32 32 32 32 32 32 32 32
34 35 35 35 34 35 35 34 33 33 32 32 32 32 33 33 32 32 32 33 33 32 32 32 32 31 30 30 30 30 30 30 31 31 32 32 32 32 32 32 32 32 33 33
34 34 35 33 33 35 35 34 34 33 32 32 32 32 32 32 32 32 33 33 32 32 31 31 31 31 31 31 30 30 30 31 32 32 32 32 32 32 32 33 33 32 33 33
32 34 34 33 33 33 33 33 34 33 33 33 33 33 33 33 33 33 33 32 32 32 32 31 31 31 31 31 31 32 32 32 32 32 32 32 32 32 32 32 32 32 32 33
31 32 33 34 33 34 33 33 34 34 34 34 33 34 34 34 33 33 33 33 32 32 32 31 31 32 32 32 32 32 32 32 32 32 32 33 33 33 32 32 32 32 32 33
30 28 30 32 33 32 33 33 34 34 34 33 33 33 33 33 33 33 32 32 32 31 31 31 32 32 32 32 32 32 32 32 32 32 32 33 32 32 32 32 32 32 32 33
29 28 29 30 31 31 31 31 32 32 32 32 32 32 32 32 32 32 31 31 30 30 31 31 30 30 31 30 30 30 30 30 31 31 31 31 31 31 31 31 32 32 32 32
27 28 28 28 28 28 29 30 30 30 30 30 30 30 30 30 30 30 29 29 28 28 29 29 29 29 29 29 29 29 29 29 29 29 30 30 30 30 30 31 31 31 31 31
26 27 27 26 26 27 28 28 29 29 28 28 28 28 28 28 29 29 28 27 27 27 27 27 27 28 28 28 28 28 28 28 28 28 28 28 29 29 30 30 30 30 30 30
25 25 25 25 26 27 27 28 27 27 27 27 27 27 27 27 27 27 26 26 26 27 27 27 27 27 27 28 27 27 27 27 27 27 27 28 28 29 29 29 29 29 29 28
23 24 24 24 24 24 24 25 25 26 26 26 26 26 26 26 26 26 26 26 26 26 26 27 27 27 27 27 26 26 26 26 26 26 27 28 28 28 29 29 28 28 28 28
22 22 22 23 24 24 24 24 24 24 24 24 25 25 25 25 25 25 25 25 25 25 26 26 26 25 25 25 25 25 26 26 26 26 27 27 28 28 28 27 27 27 28 28
21 21 22 22 22 22 22 22 23 23 23 23 23 23 24 24 24 24 24 24 24 24 24 24 24 24 24 24 24 24 24 25 25 26 26 26 26 26 25 25 26 27 27 28

GEFSNGP_500_meanwind_192.txt.gz
Wind_Speed
29 27 26 25 23 22 22 21 21 20 20 18 16 15 14 15 14 14 15 14 14 15 15 16 17 17 17 17 17 17 18 18 17 17 17 16 15 15 14 14 14 14 14 14
30 29 28 27 25 23 23 22 21 21 21 19 18 17 17 17 16 16 16 15 15 16 16 16 17 17 17 17 17 18 19 19 19 19 18 18 17 16 16 16 16 16 15 16
33 32 30 29 27 26 25 23 23 23 22 22 22 21 20 19 18 18 17 17 16 17 17 17 18 18 18 19 19 19 20 20 20 20 20 19 19 18 18 18 17 17 17 17
34 34 35 31 28 28 28 26 25 25 25 24 23 23 23 22 20 19 18 18 18 19 19 19 20 20 21 21 21 21 20 21 20 21 21 21 20 20 20 19 19 18 18 19
35 36 36 33 30 29 29 28 27 27 27 26 25 25 25 23 21 22 21 20 21 21 20 20 21 21 22 23 23 23 22 22 22 22 22 22 22 21 20 20 20 20 20 20
36 36 37 33 32 31 31 30 29 29 29 28 27 28 26 25 23 23 22 22 22 22 22 21 21 22 23 24 24 24 24 24 24 24 24 24 23 22 22 22 22 22 21 21
36 36 37 35 34 33 34 32 30 30 29 28 28 28 27 27 25 25 24 23 23 24 23 23 23 24 25 25 25 26 26 26 26 25 26 25 24 24 23 23 23 23 23 22
36 36 36 35 35 35 34 32 32 31 30 28 28 29 29 28 27 26 25 24 24 25 24 25 25 25 26 26 27 27 27 27 26 26 26 25 25 25 24 24 24 24 23 23
38 38 36 36 37 36 35 33 32 31 30 29 29 29 29 29 28 26 26 26 26 26 26 26 26 27 27 27 27 27 27 26 26 26 26 25 25 25 25 24 24 24 24 25
38 38 37 37 36 36 35 34 32 31 30 30 29 28 29 29 27 27 26 26 26 27 27 28 27 28 28 28 28 27 27 27 26 27 26 26 26 26 26 26 26 26 26 26
38 37 38 36 35 34 35 35 34 33 32 31 30 30 29 27 27 27 26 26 27 27 28 29 29 28 29 29 29 28 28 28 28 27 27 27 26 26 27 27 27 27 27 27
38 36 36 34 34 34 34 34 33 32 32 32 31 32 31 31 30 29 28 28 28 28 28 29 29 29 30 30 29 29 28 28 28 27 27 27 27 27 28 28 28 27 27 26
37 36 35 34 34 34 33 33 34 33 33 33 33 33 32 31 30 31 30 30 30 29 30 30 31 31 31 30 30 29 29 28 28 28 28 28 28 28 29 29 29 28 27 27
35 35 36 35 34 34 34 34 34 34 34 34 33 32 32 31 30 30 30 30 30 31 31 31 31 31 31 30 30 30 30 29 29 29 29 29 29 29 29 29 28 28 28 27
37 36 34 33 33 31 32 32 33 33 32 32 32 31 31 30 30 29 30 30 31 31 31 31 31 31 31 31 31 30 30 30 30 29 30 30 30 30 29 29 28 28 28 28
36 35 34 34 34 33 32 32 32 32 32 30 30 31 30 30 30 29 30 30 30 30 30 30 30 30 30 30 31 31 31 31 30 30 31 30 30 30 29 29 29 29 29 29
34 34 34 34 34 32 32 33 33 32 32 31 30 30 30 30 28 28 29 29 29 29 30 30 30 31 31 31 30 30 30 30 30 30 30 29 29 29 29 29 29 29 29 29
32 32 32 32 33 34 33 33 33 32 32 31 31 31 30 28 27 28 29 29 29 30 30 30 30 30 30 30 30 30 30 29 29 29 28 28 28 28 29 29 29 29 29 29
29 29 29 29 30 30 30 30 30 30 30 30 30 30 30 29 28 29 29 30 30 30 30 30 30 30 30 30 30 30 29 29 29 28 28 28 28 28 28 28 29 29 29 29
27 28 28 28 29 29 26 26 27 27 28 29 30 30 30 30 30 30 30 30 30 30 30 30 30 30 30 30 29 29 29 28 28 28 27 27 27 28 28 29 29 29 29 29
23 24 26 27 26 25 25 24 24 25 26 28 29 29 29 29 29 29 29 29 29 29 29 28 28 29 29 29 29 29 28 27 27 27 26 26 27 28 28 29 29 29 29 29
22 22 23 25 26 24 23 23 23 24 25 26 26 27 27 27 27 27 27 27 27 27 26 26 27 27 26 26 26 26 26 27 27 26 26 26 27 28 28 28 28 28 29 28
19 20 21 21 22 23 22 22 22 22 23 24 25 24 24 25 25 25 26 26 26 25 25 25 26 26 25 26 26 26 26 26 26 26 26 26 27 27 27 27 28 28 28 28
18 19 19 20 21 21 22 22 22 23 23 23 23 23 23 23 24 24 25 25 24 24 25 25 25 25 25 26 26 26 26 26 26 26 27 27 27 27 26 26 27 27 28 28
19 19 19 19 20 21 21 22 22 22 22 22 22 23 23 23 23 24 24 24 24 25 25 25 25 25 25 25 25 25 25 25 25 26 26 26 26 26 26 26 27 27 27 27
19 19 19 19 19 20 20 21 21 21 21 22 22 22 22 23 23 23 24 24 24 25 25 25 24 24 24 24 24 24 24 25 25 26 26 25 25 25 25 25 25 26 26 26
18 18 18 18 18 18 19 20 20 21 21 22 22 22 23 23 23 23 24 24 24 24 24 24 23 23 23 23 23 24 24 24 24 24 24 24 24 24 24 25 26 26 26 26

GEFSNGP_500_meanwind_198.txt.gz
Wind_Speed
28 28 27 27 27 26 26 25 24 22 21 19 18 17 16 15 15 14 14 13 13 14 15 15 15 16 16 16 16 17 17 17 18 18 19 19 19 18 18 17 17 17 17 17
30 29 29 29 28 27 27 26 25 24 22 21 20 19 17 15 15 15 14 14 15 15 16 16 16 16 17 17 18 18 18 19 20 20 21 20 21 20 19 19 18 18 18 18
32 31 32 32 30 29 29 27 26 25 23 21 20 19 19 17 17 16 15 15 16 17 17 17 17 17 18 19 19 20 20 21 21 22 22 22 23 21 20 20 19 19 19 19
32 31 32 30 30 30 30 29 28 27 25 23 21 20 19 19 18 17 17 18 19 19 19 19 19 19 19 20 20 21 21 21 22 23 23 23 23 22 21 21 21 20 21 21
34 33 32 30 30 31 31 31 30 29 27 26 23 23 22 21 21 20 20 21 20 21 21 20 20 20 20 20 21 22 21 22 23 24 24 24 24 23 22 22 21 21 22 22
35 35 34 32 31 32 32 32 30 30 28 27 25 25 23 23 23 22 22 22 22 22 22 21 21 21 21 21 22 22 23 24 24 25 25 25 25 25 24 23 22 22 23 23
35 35 35 33 32 32 33 32 30 31 30 28 27 26 25 24 24 23 23 24 24 24 23 22 22 22 22 22 23 24 25 25 25 26 26 26 26 25 24 24 23 23 23 23
36 35 35 33 33 32 33 32 32 30 29 28 28 27 26 25 24 24 25 25 25 24 24 24 24 23 23 24 25 26 26 26 26 26 26 26 26 25 25 25 24 24 24 24
37 36 35 33 33 32 32 31 31 30 29 30 30 28 28 28 27 25 25 25 26 26 27 27 26 25 25 25 26 27 27 27 26 26 26 26 26 25 25 24 24 24 25 25
38 37 36 34 33 32 31 31 31 31 31 31 31 31 30 30 29 28 27 27 28 28 28 27 26 25 26 26 27 27 26 26 26 26 27 26 25 25 25 25 25 25 26 26
38 37 36 35 34 33 32 32 33 33 33 32 32 32 31 31 30 29 29 28 28 28 28 29 27 26 26 27 28 27 27 26 27 28 28 27 26 25 25 26 26 26 26 26
38 37 36 34 34 33 31 31 32 33 33 32 32 32 31 30 30 29 29 29 29 28 29 29 29 27 26 27 28 28 28 28 28 29 28 28 27 27 26 27 27 28 28 27
38 38 36 34 33 33 31 30 30 31 32 33 32 31 31 31 30 30 30 29 28 28 30 30 29 29 28 29 30 30 29 29 28 29 29 29 28 28 27 27 28 29 29 29
38 38 36 34 33 32 32 31 30 31 31 31 31 30 30 31 30 29 29 29 29 30 30 29 29 29 30 30 30 30 30 29 29 29 29 29 28 28 28 29 29 29 30 30
36 37 36 35 33 32 32 32 32 31 30 30 30 29 29 29 28 28 29 29 30 30 29 29 29 29 29 29 29 30 30 30 29 29 29 29 28 29 29 30 30 30 30 29
35 35 35 34 32 31 31 31 31 31 31 30 28 29 29 29 29 28 29 29 29 29 29 30 30 30 29 30 30 29 29 29 29 29 29 29 29 29 29 30 30 29 29 29
33 33 33 32 32 31 30 30 31 30 30 29 29 29 30 30 30 30 29 29 28 28 29 30 31 29 29 29 29 29 29 29 29 29 30 30 29 29 29 29 29 29 29 29
30 30 31 31 31 31 30 30 31 30 30 29 30 30 31 31 31 31 30 29 29 29 29 29 29 29 29 30 30 30 29 29 29 29 30 30 30 30 30 30 30 30 29 29
28 27 28 29 29 30 31 31 30 29 29 29 30 31 31 31 32 31 31 30 29 28 27 28 28 27 28 28 28 28 28 28 29 30 30 30 30 30 30 30 30 30 29 29
26 26 27 26 26 27 28 29 29 30 29 29 28 28 30 31 30 29 29 29 28 28 28 28 27 27 27 27 27 27 28 28 29 30 30 30 30 29 29 29 29 29 29 29
24 24 24 24 24 25 26 27 29 28 26 26 26 27 28 28 27 27 28 28 27 26 27 27 27 26 26 27 26 27 27 28 29 29 30 30 29 29 29 29 29 29 29 29
23 23 24 23 23 24 25 25 24 24 24 24 25 25 25 25 25 26 26 26 26 26 26 27 26 26 26 26 26 27 28 29 29 29 29 29 29 29 29 29 29 29 30 30
22 22 23 23 22 22 23 24 24 23 24 24 24 23 23 23 24 25 24 24 25 26 27 27 26 26 26 26 26 27 28 28 29 29 29 29 29 29 29 29 29 30 30 30
19 20 20 20 20 20 21 23 24 23 22 23 23 23 23 24 24 24 24 25 25 26 26 26 26 26 26 26 27 27 28 28 28 28 28 29 29 29 29 29 29 30 30 30
16 17 18 19 19 19 19 20 20 20 21 21 21 21 21 22 22 22 22 23 23 23 24 25 25 26 26 27 27 28 28 27 27 28 28 29 28 28 29 29 29 29 29 29
16 16 17 17 17 18 18 19 18 19 19 20 20 20 20 20 21 22 22 23 23 24 24 25 25 26 26 27 27 27 27 27 27 27 28 28 28 28 28 27 28 28 27 28
16 16 16 16 16 17 18 18 19 19 20 20 20 21 21 21 21 22 23 24 24 24 24 24 25 26 26 27 27 27 27 27 27 27 27 27 27 27 27 27 27 27 27 28

GEFSNGP_500_meanwind_204.txt.gz
Wind_Speed
28 27 26 27 26 26 25 23 21 20 19 17 17 15 15 15 14 14 14 14 14 14 15 15 15 16 16 16 16 16 16 16 16 16 17 17 17 16 16 16 17 17 16 16
30 29 28 28 27 27 26 26 24 23 21 19 18 18 17 17 16 16 16 16 16 16 17 16 16 17 17 17 17 17 17 17 17 17 18 18 18 17 17 18 18 18 19 19
30 30 29 29 29 28 27 27 26 25 22 21 20 20 19 18 18 17 17 17 17 17 17 17 17 18 18 18 18 17 18 18 18 18 18 18 18 19 19 19 20 20 20 20
30 31 31 30 29 28 28 27 26 25 24 23 22 21 21 20 20 19 19 18 18 18 18 19 19 19 20 21 21 19 19 19 19 19 19 20 20 20 20 21 21 22 22 21
31 31 31 31 30 29 28 28 27 27 26 25 24 24 23 22 22 21 21 20 20 20 19 19 20 21 22 23 24 23 22 20 20 21 21 22 22 22 22 22 23 23 22 22
33 31 31 32 30 29 29 29 28 27 27 26 26 26 26 24 24 23 22 22 22 22 21 21 22 22 23 23 23 23 21 21 22 22 23 23 24 24 24 24 24 23 23 23
33 32 31 31 31 30 30 29 28 27 27 27 27 27 27 26 25 24 24 24 24 24 24 23 23 24 24 24 24 23 23 23 24 25 25 25 25 25 25 25 24 24 24 24
33 32 32 32 31 31 30 29 28 27 27 27 27 28 27 27 27 26 26 26 26 25 25 25 25 25 25 25 25 25 25 24 25 26 27 27 26 26 25 25 24 25 24 24
34 34 33 32 31 30 30 29 28 28 28 28 28 28 29 28 28 28 27 27 27 27 27 26 26 26 26 25 25 26 26 26 26 26 27 26 26 26 25 25 25 25 25 25
35 34 33 32 31 30 31 30 30 29 29 29 29 30 31 31 30 30 29 29 29 28 27 27 27 26 26 26 26 27 27 27 26 26 26 26 27 27 25 25 26 26 26 25
35 34 33 32 32 32 31 31 31 30 30 30 31 31 31 32 32 31 31 31 31 30 29 27 27 25 26 27 27 28 27 27 26 26 26 26 26 26 26 25 26 26 26 25
34 34 34 33 33 32 32 31 30 31 31 30 30 30 31 31 32 32 32 32 31 29 28 28 27 27 27 28 28 28 27 27 27 27 27 27 27 27 26 26 26 26 25 25
33 33 33 33 33 33 32 32 31 31 31 32 32 31 31 32 32 33 32 31 30 29 28 28 28 28 29 29 28 28 28 28 27 27 27 27 27 27 27 26 26 26 26 25
32 33 33 33 33 33 33 33 32 31 32 32 31 31 31 32 32 32 31 30 30 30 29 29 29 29 29 29 28 28 27 26 26 26 27 27 27 27 27 27 27 27 26 26
32 33 33 33 33 32 32 32 32 31 31 31 30 30 31 31 32 31 30 29 30 30 29 29 29 29 30 30 29 29 28 27 26 27 27 27 27 27 27 27 28 27 26 26
31 32 32 33 33 32 32 32 32 31 30 30 30 30 31 30 30 29 29 28 28 28 29 29 29 30 30 30 30 30 30 28 27 27 27 27 28 28 28 28 28 27 27 27
30 31 31 32 32 31 31 31 31 31 30 30 30 30 30 30 30 30 29 29 29 29 29 29 30 31 31 30 31 30 29 28 27 27 27 27 27 28 28 28 28 28 28 28
28 28 28 29 29 29 29 29 29 30 30 29 30 30 30 29 29 29 29 29 29 29 30 30 31 31 30 30 31 30 29 29 28 28 27 28 28 28 28 28 28 29 29 29
26 26 26 26 27 28 28 28 28 28 28 27 28 29 29 29 28 28 29 29 29 29 30 30 30 30 30 30 30 30 29 28 29 29 29 28 28 28 28 28 28 29 29 29
24 24 24 24 25 26 26 25 25 26 26 26 27 27 27 27 28 28 28 29 29 29 29 30 30 29 29 30 30 29 29 29 29 28 28 29 29 29 29 28 29 29 29 30
20 21 22 22 23 24 25 25 26 26 25 25 25 25 25 25 26 27 28 28 28 29 29 30 30 30 30 30 29 29 29 29 28 27 28 29 29 29 29 29 29 29 29 30
17 18 19 19 20 22 23 23 24 24 24 23 23 24 24 25 25 25 26 27 28 28 29 30 30 30 30 28 27 27 27 27 28 29 29 29 29 28 29 29 29 29 29 30
15 15 16 17 18 18 20 21 22 22 22 22 21 22 24 25 25 26 26 27 28 28 30 31 30 30 28 27 27 28 28 28 29 29 29 29 28 28 29 30 30 30 30 30
15 15 17 18 18 19 19 20 21 21 23 23 22 23 24 25 26 26 26 26 27 28 28 27 27 27 28 28 28 29 29 29 29 29 29 28 28 28 29 29 30 29 29 29
16 16 17 18 19 19 19 20 21 21 22 23 23 23 23 24 24 25 26 26 27 27 27 27 27 27 28 28 28 28 28 28 28 28 28 28 29 29 29 29 29 30 30 30
16 17 18 18 19 19 19 20 20 21 21 21 22 22 23 23 23 23 24 24 24 25 26 26 26 26 27 28 28 28 28 28 28 28 28 28 29 29 29 29 30 30 30 29
16 16 17 18 18 18 19 19 21 21 21 21 22 23 23 23 24 24 24 24 23 24 24 24 24 25 26 27 27 28 28 28 28 27 27 28 28 29 29 29 30 30 30 30

GEFSNGP_500_meanwind_210.txt.gz
Wind_Speed
28 23 21 21 20 20 21 22 21 21 22 22 21 21 18 17 17 17 17 17 17 16 16 17 17 16 17 18 18 18 18 18 19 19 20 21 21 22 21 20 20 20 20 20
31 29 25 23 22 21 21 23 23 23 24 25 25 25 21 19 18 18 19 19 19 18 18 18 18 18 19 20 20 20 19 19 20 20 21 22 22 22 22 22 21 22 21 21
31 29 28 29 25 23 23 24 24 25 25 27 27 25 24 23 22 21 21 21 20 20 20 20 20 20 21 21 21 21 21 21 20 20 21 22 22 22 23 23 23 23 23 23
31 29 31 30 28 25 25 26 27 28 27 27 28 28 28 27 25 23 22 23 22 22 22 21 22 22 23 22 22 22 22 23 23 22 22 22 23 23 24 24 24 24 24 24
30 30 30 28 27 27 27 27 29 30 29 29 29 30 29 28 27 25 24 25 24 24 24 23 23 23 24 23 22 23 23 23 23 23 23 23 24 24 24 25 25 25 25 24
32 30 29 29 29 29 29 30 31 29 29 30 30 30 30 28 27 27 26 25 25 25 26 25 25 25 25 24 24 24 25 24 25 25 25 25 25 25 26 26 26 25 25 25
32 31 30 31 30 28 30 32 30 30 30 30 30 31 32 30 29 28 26 26 26 27 27 27 27 27 26 26 25 25 26 26 26 26 26 26 27 26 27 26 26 25 25 25
34 33 32 33 32 31 32 31 31 31 31 31 30 31 32 32 30 29 28 28 28 28 28 28 29 28 28 27 26 27 27 27 27 27 27 28 28 27 27 26 26 25 25 25
34 35 35 34 33 33 34 33 31 31 31 31 31 32 32 32 31 30 30 30 29 29 29 29 29 29 29 28 29 29 29 29 29 28 29 29 28 27 27 27 27 26 26 26
35 35 35 35 34 33 32 31 32 33 32 32 32 32 32 32 32 32 31 31 31 31 31 30 30 30 31 31 30 30 30 30 30 30 30 29 29 28 27 27 27 26 27 26
34 35 35 35 35 34 33 33 33 32 32 32 33 34 34 33 32 32 33 32 33 33 33 32 32 31 31 31 31 31 32 31 31 31 30 30 29 29 29 28 28 28 28 27
35 35 35 34 34 34 34 35 35 35 33 34 35 34 33 32 32 32 32 32 33 34 34 33 33 32 32 32 32 31 31 31 31 30 30 30 30 30 30 29 29 28 28 28
33 34 36 36 36 36 35 35 35 35 34 34 34 34 33 33 32 32 33 33 33 33 34 34 33 32 32 32 32 32 32 31 31 31 30 30 30 30 30 30 29 29 29 28
33 33 34 34 35 35 35 35 34 34 34 34 34 34 33 33 33 32 32 33 33 33 34 33 33 32 32 33 32 32 32 31 31 30 30 31 30 30 30 30 29 29 28 28
32 32 31 31 32 33 33 34 33 32 32 33 33 33 33 33 33 33 33 33 32 32 32 33 33 33 32 32 31 31 31 31 31 31 32 32 32 32 31 30 29 29 28 28
32 30 29 30 32 32 32 32 32 32 32 33 33 33 33 34 33 33 32 32 32 33 32 32 32 32 31 31 31 31 31 31 32 32 32 33 32 31 31 29 29 28 28 28
30 30 29 28 29 29 30 30 31 31 31 31 32 33 33 34 33 32 32 32 32 32 32 32 33 32 32 32 31 31 31 32 32 32 32 32 32 30 30 29 28 28 28 29
29 29 29 28 29 29 29 29 30 31 32 32 31 32 32 32 32 32 31 31 31 32 32 32 32 32 32 32 31 31 31 31 32 32 32 32 32 31 30 30 30 29 29 29
28 28 28 28 29 29 30 30 30 31 32 32 31 31 30 30 30 31 30 30 30 30 30 30 31 32 32 32 32 31 31 32 32 32 32 32 32 32 31 31 30 30 30 30
28 27 27 28 28 29 28 29 30 30 30 30 30 29 29 29 29 29 29 29 29 30 29 29 29 30 30 30 30 30 31 31 31 31 32 32 32 32 32 31 30 30 30 30
26 26 26 26 27 27 27 27 28 27 27 27 28 28 28 28 27 28 27 26 26 27 27 27 27 27 28 28 28 29 29 30 29 29 30 31 31 31 31 31 30 30 30 30
22 22 22 23 24 24 24 24 23 23 24 25 25 25 25 25 25 25 24 24 24 25 25 26 26 27 27 27 27 28 28 29 29 29 30 30 31 31 31 31 30 30 30 30
19 20 20 20 20 21 22 22 22 22 22 22 23 23 23 23 23 23 23 23 23 24 25 26 27 27 27 28 28 29 29 29 29 29 30 30 30 30 30 30 29 30 30 30
19 18 18 18 18 18 19 19 20 21 21 22 22 22 23 23 23 23 23 23 23 24 25 26 26 27 27 28 28 28 28 28 29 29 29 29 29 29 29 29 29 30 30 30
17 16 16 16 16 16 16 18 19 19 20 20 21 22 23 22 22 22 23 24 24 25 25 26 26 27 27 27 28 27 27 28 28 29 29 29 29 30 30 30 30 31 31 31
15 14 14 14 14 14 15 15 16 17 17 18 19 21 22 22 22 22 23 23 23 24 25 25 25 26 27 27 28 28 28 28 28 29 29 29 30 30 30 30 31 31 32 31
14 14 14 13 13 14 15 15 16 16 17 18 19 20 21 21 21 22 22 23 23 23 24 25 26 26 27 27 27 27 28 28 29 30 30 30 30 30 30 31 31 31 31 32

GEFSNGP_500_meanwind_216.txt.gz
Wind_Speed
30 30 29 28 27 26 26 25 25 24 24 22 20 19 18 18 17 17 14 13 12 11 12 13 13 14 15 15 16 16 17 17 17 18 17 16 16 16 16 16 16 16 16 17
30 31 31 30 28 28 28 28 26 25 24 23 21 20 20 20 20 19 18 16 16 16 15 14 15 15 16 17 17 18 18 18 18 19 18 17 16 17 18 18 18 17 18 18
32 32 32 32 30 29 28 28 28 27 26 25 23 22 22 23 22 21 20 20 20 19 18 17 17 17 18 18 19 19 19 19 19 19 18 17 17 18 19 19 19 19 19 19
34 33 33 32 30 31 30 30 30 30 28 27 26 24 22 22 22 22 22 21 21 21 21 19 19 19 19 20 21 20 21 21 21 21 20 19 19 19 20 20 20 20 20 21
35 36 35 34 32 33 32 31 30 31 30 30 28 27 25 23 23 24 23 22 22 22 22 22 21 21 21 21 22 22 22 21 21 21 21 20 20 21 20 21 21 20 21 20
35 36 37 35 34 34 34 34 32 31 31 30 29 29 26 25 25 26 26 25 25 25 24 23 22 23 23 23 22 22 21 21 21 21 21 21 21 21 21 22 22 21 21 21
35 36 36 35 35 35 36 35 33 33 33 31 31 28 27 27 27 27 28 27 26 25 24 23 23 24 24 23 23 23 23 23 23 22 22 22 22 22 22 23 24 23 23 22
34 35 35 34 34 35 35 35 34 34 33 32 31 30 30 30 29 28 27 26 26 26 25 24 25 25 24 24 24 24 25 24 24 24 24 24 24 25 25 25 25 25 24 24
35 35 34 33 33 34 35 35 34 33 33 32 31 31 31 31 30 30 29 26 26 27 26 25 25 25 25 25 26 26 26 26 25 26 26 27 26 26 27 26 26 26 25 24
35 35 35 34 34 35 36 36 35 33 33 33 32 32 32 32 31 30 29 27 27 26 26 26 26 26 26 26 27 27 28 27 26 27 27 28 28 28 28 27 26 26 25 25
34 34 34 34 35 36 34 33 33 33 32 32 32 32 33 33 31 30 31 31 29 29 29 29 28 28 28 29 29 29 29 30 28 28 28 29 29 28 28 27 26 25 25 25
35 34 34 33 33 34 34 33 32 33 33 32 33 33 34 34 34 33 33 33 32 30 30 30 30 30 30 30 30 30 30 31 31 29 29 29 28 28 28 28 27 27 26 26
35 35 35 34 33 34 35 34 33 33 33 33 34 34 35 34 33 33 34 33 32 32 32 31 31 31 31 31 32 32 32 33 33 31 30 29 29 28 28 28 29 28 28 27
35 35 35 34 33 33 34 34 34 34 34 34 34 33 34 34 34 34 34 33 33 33 33 32 32 31 32 33 33 34 33 33 33 32 32 30 29 28 29 29 29 29 28 26
35 35 35 34 33 34 34 34 34 33 33 34 34 34 34 34 33 33 33 33 32 32 32 32 32 32 33 34 34 34 34 33 32 32 32 30 29 29 29 29 29 28 28 27
34 34 35 34 34 33 34 34 35 33 33 32 33 33 33 34 33 32 32 31 31 31 31 32 32 33 33 33 33 33 32 32 32 31 31 30 29 29 29 29 29 29 28 28
33 32 32 33 33 32 33 34 33 31 31 32 32 33 33 32 32 31 30 30 30 30 31 32 31 32 32 31 31 31 30 30 31 31 30 29 29 29 29 29 29 29 28 28
30 30 30 30 30 30 30 30 30 30 30 31 30 29 30 31 31 31 30 30 30 30 30 30 30 31 31 31 31 30 30 30 30 29 29 29 29 29 28 28 28 28 27 26
27 28 29 28 26 27 30 30 29 29 28 28 28 28 29 30 31 31 29 29 29 29 30 30 30 31 31 30 29 30 30 30 30 30 29 29 29 29 28 28 28 27 27 26
25 27 28 27 27 26 27 26 25 25 25 26 27 28 28 28 28 28 28 28 28 27 28 28 28 28 27 28 29 29 30 30 29 29 28 28 28 29 29 28 28 27 26 26
24 25 25 24 25 25 25 24 23 23 24 25 25 26 27 27 27 27 27 27 27 27 27 27 27 27 27 28 28 28 28 28 28 27 28 27 27 28 28 28 27 27 26 27
21 22 22 22 24 24 23 23 22 22 23 23 23 24 25 26 26 26 26 27 27 27 27 27 27 28 28 28 28 28 28 28 27 27 27 27 27 28 28 28 27 26 27 28
18 19 19 19 19 20 20 20 20 21 21 22 22 23 24 24 24 24 25 26 26 27 27 27 27 27 27 27 27 27 27 27 27 27 28 27 27 27 27 27 27 27 27 27
16 15 16 17 18 18 18 19 19 20 21 21 21 22 23 22 22 23 24 24 25 25 26 26 26 27 27 27 26 26 27 28 28 29 28 28 27 27 27 27 27 27 27 27
15 14 14 15 16 17 18 18 19 20 20 20 20 20 20 20 20 21 22 22 22 23 23 24 25 25 26 27 26 27 28 29 29 28 28 28 28 28 28 28 28 27 27 28
14 13 13 14 14 14 15 16 17 17 17 17 17 17 17 18 19 19 20 20 21 21 22 22 23 24 25 25 26 27 28 29 29 28 28 28 28 28 28 28 28 27 27 27
11 12 12 12 12 12 13 14 15 16 16 16 17 17 18 18 19 20 21 21 21 22 22 23 23 24 24 25 26 26 26 26 26 26 27 28 28 28 28 28 28 28 28 28

GEFSNGP_500_meanwind_222.txt.gz
Wind_Speed
30 29 29 29 28 27 27 27 26 24 23 21 20 19 18 16 16 16 16 16 16 16 16 16 15 15 15 15 16 16 16 16 17 17 17 16 16 16 16 15 15 15 15 15
31 30 30 30 29 29 28 28 27 25 24 23 21 21 19 18 18 18 18 18 17 17 18 19 18 17 17 17 17 17 18 18 19 19 19 17 17 17 16 16 16 15 16 16
33 32 31 32 30 30 29 29 28 28 26 25 24 22 20 19 20 19 19 17 19 19 20 20 20 19 19 19 19 19 20 20 20 21 20 18 18 17 16 16 16 17 17 17
34 33 34 32 31 31 30 29 29 28 27 27 26 25 23 22 22 21 20 21 21 21 22 22 21 21 21 20 21 21 21 22 22 21 20 19 19 18 18 18 18 18 18 18
37 37 36 34 32 31 31 31 31 30 28 27 27 26 26 25 24 24 23 23 23 23 24 24 23 23 23 22 22 22 22 23 22 22 22 21 21 20 20 19 19 19 19 20
36 38 38 36 34 32 32 32 31 31 30 29 29 29 27 27 26 26 25 24 26 25 24 24 24 25 25 24 23 24 23 23 23 23 23 23 22 21 20 21 21 21 21 21
34 35 36 34 34 33 34 33 31 31 31 31 30 29 28 27 26 26 26 25 26 26 26 25 26 26 26 25 25 25 25 25 26 25 23 24 23 22 22 22 22 22 23 23
33 33 33 32 32 32 32 31 31 31 31 31 31 30 29 29 28 27 28 27 27 27 27 27 27 27 27 27 27 27 27 27 27 26 25 25 24 23 23 23 24 24 24 23
33 33 32 32 31 31 31 32 32 32 32 32 32 32 31 31 30 30 29 28 28 28 28 28 28 28 28 28 28 28 27 27 27 27 27 27 25 25 25 25 25 26 25 25
33 33 32 32 32 32 32 32 33 33 33 33 33 33 32 32 32 31 30 29 29 29 29 29 30 30 30 29 28 28 28 27 27 27 27 28 28 27 27 27 27 27 27 26
34 33 33 32 33 33 33 34 34 34 34 33 33 33 33 33 32 32 31 31 31 31 30 31 31 30 30 30 30 30 29 29 29 29 29 30 30 29 29 29 29 28 28 28
33 33 34 33 34 34 34 34 34 34 34 33 33 32 31 31 31 31 31 31 31 31 32 32 32 31 31 31 32 31 31 30 30 31 32 31 30 30 30 30 30 29 29 29
33 33 34 34 33 33 33 34 34 34 34 34 34 33 32 32 32 33 32 32 32 31 31 32 32 32 32 34 35 34 32 32 32 32 32 32 31 31 31 31 31 31 31 30
33 33 33 33 33 34 34 34 35 35 35 35 34 34 34 33 33 34 34 34 33 33 32 32 32 32 33 34 34 33 33 32 32 32 33 33 32 32 32 32 32 32 31 31
33 34 34 34 34 35 35 35 35 35 35 35 34 33 34 34 33 33 34 34 33 33 32 32 32 32 32 32 32 32 33 32 33 33 33 33 33 33 32 32 32 31 31 31
34 34 34 35 34 34 35 35 35 35 35 35 34 34 34 34 33 33 33 33 34 33 33 33 32 31 31 31 32 33 33 33 33 34 34 33 33 33 32 32 32 32 32 31
33 33 34 34 34 33 33 34 34 34 34 35 34 34 33 33 33 33 33 33 32 32 32 32 31 31 30 31 32 33 33 32 32 33 33 33 33 33 32 32 32 31 31 31
31 32 32 32 33 33 33 33 33 32 33 33 32 31 31 30 31 32 32 33 32 31 30 30 30 30 31 31 32 32 32 32 32 33 33 34 33 32 32 32 32 31 30 30
29 29 30 30 31 31 31 31 30 29 29 29 30 29 29 28 29 31 32 31 31 30 29 29 30 31 31 31 31 31 30 31 32 33 32 32 32 32 32 31 31 31 29 29
26 27 27 27 28 28 28 27 27 26 26 27 28 27 26 27 27 29 30 29 29 29 29 30 30 30 30 29 29 29 29 29 30 30 31 32 31 31 31 31 31 31 31 31
24 24 24 25 25 25 25 25 25 25 26 25 26 26 25 24 25 26 27 28 28 28 28 28 29 29 29 30 30 29 29 29 30 30 30 30 30 31 32 32 32 32 31 31
22 22 22 23 23 23 24 24 23 23 23 23 22 23 23 23 24 24 25 26 26 26 25 26 26 26 27 28 28 29 29 30 30 30 30 31 31 32 33 33 33 33 33 32
20 20 21 21 21 20 20 21 21 20 21 20 19 20 20 21 22 22 23 23 23 23 24 24 24 25 26 27 28 29 29 30 30 31 31 31 31 32 32 32 32 32 32 31
18 18 18 18 18 18 18 18 18 18 18 18 17 17 18 19 20 21 21 21 22 22 23 24 24 26 27 29 29 29 29 29 30 30 30 31 31 31 31 31 31 30 30 30
14 16 16 16 16 16 16 17 18 18 17 17 17 18 19 19 20 20 20 21 21 22 23 24 26 27 28 28 27 28 28 29 29 29 29 29 29 29 29 30 30 30 30 30
10 11 13 14 14 14 15 16 16 16 16 17 18 18 18 19 19 20 20 21 22 22 23 24 26 26 26 26 26 27 27 27 28 28 28 28 28 29 30 30 30 30 30 30
8 9 10 11 12 12 13 14 15 16 16 17 17 17 18 18 19 20 20 21 21 22 23 24 24 25 25 25 26 26 26 27 27 28 28 28 28 29 29 29 29 29 30 30

GEFSNGP_500_meanwind_228.txt.gz
Wind_Speed
28 27 26 26 27 27 26 25 23 23 22 22 20 18 17 16 15 14 14 14 15 15 15 16 16 15 15 15 15 16 17 17 17 17 17 18 18 18 17 18 18 19 18 17
30 29 28 28 28 27 27 26 26 25 25 23 21 19 18 17 16 16 16 16 16 16 17 18 18 18 17 17 17 17 17 17 18 18 18 18 19 20 19 19 20 18 18 18
30 30 29 30 29 29 28 27 26 26 25 24 23 22 21 20 19 18 18 18 18 18 18 18 19 19 20 19 19 19 19 19 19 20 20 20 20 20 20 20 20 19 19 19
29 31 31 30 29 29 28 28 28 27 25 25 24 23 23 22 22 21 20 20 20 20 20 20 21 22 21 22 21 21 21 21 21 22 22 22 22 21 22 22 21 21 21 21
30 30 30 30 29 28 28 29 28 27 26 25 25 24 24 24 23 23 22 22 22 22 22 22 22 23 24 23 23 23 23 23 23 24 24 24 23 23 23 23 23 22 22 22
31 29 29 30 29 28 29 30 29 28 27 27 26 26 26 25 25 25 24 23 24 24 25 25 25 25 25 25 25 24 24 24 25 25 25 25 25 25 25 24 24 23 23 22
31 30 30 31 30 29 30 30 29 29 29 29 29 29 28 27 27 26 26 26 26 26 27 27 26 26 26 26 26 25 25 26 25 25 26 26 27 26 26 26 25 24 24 24
30 30 30 32 31 31 31 30 30 30 30 30 31 30 30 29 28 28 27 27 27 27 27 27 27 27 27 27 26 26 27 28 27 27 28 28 29 28 27 26 26 25 25 25
30 31 31 31 31 31 30 30 31 31 31 32 32 31 30 30 29 29 29 29 29 29 28 28 28 28 28 27 26 27 28 28 28 29 30 30 30 29 28 27 26 26 25 26
31 31 31 30 30 30 30 31 32 32 32 32 31 31 31 31 31 31 31 31 30 30 30 30 30 30 28 28 29 29 29 29 30 30 30 31 31 31 30 29 27 27 27 28
32 31 31 31 31 31 31 32 32 32 31 31 31 32 32 32 32 32 32 32 32 32 31 31 31 31 30 30 30 30 29 29 30 30 31 31 32 31 31 31 30 29 29 29
31 31 31 31 30 31 31 32 32 32 31 31 32 32 32 33 33 32 32 32 32 32 32 32 32 32 32 32 31 31 31 31 30 31 32 32 32 32 32 31 30 30 30 31
30 30 30 30 31 31 31 31 31 32 32 31 32 32 32 32 32 33 33 33 33 33 33 33 33 33 33 33 33 32 32 32 32 32 33 33 33 32 32 31 31 32 32 32
30 29 30 30 30 29 30 31 31 31 32 32 32 33 33 32 32 33 33 34 33 33 34 34 34 35 34 34 33 32 32 32 32 33 33 33 32 32 31 32 32 33 32 32
30 30 30 30 30 30 30 30 30 30 31 32 32 33 33 33 33 33 33 34 34 34 34 35 35 35 35 34 34 34 33 33 33 33 33 33 32 32 31 32 32 32 32 32
30 30 29 29 29 30 30 30 31 31 31 31 32 32 32 33 33 33 33 34 34 34 35 34 33 33 34 34 34 34 34 34 34 34 33 32 32 32 32 32 32 32 32 33
29 28 28 28 29 29 30 31 31 31 31 31 30 30 31 32 32 33 33 33 33 33 34 34 33 33 33 33 33 33 33 33 33 33 33 32 32 32 33 33 33 33 33 33
28 28 28 28 28 29 29 30 30 30 30 30 29 29 30 31 31 32 32 32 32 32 33 33 33 33 33 33 33 33 33 32 31 32 32 32 32 33 33 34 34 34 34 33
26 26 26 27 28 28 29 29 29 29 29 28 28 28 29 30 30 30 30 30 31 32 32 32 32 32 32 32 32 33 32 32 32 32 32 32 32 33 33 33 34 34 34 33
23 24 24 24 25 25 26 26 26 27 27 27 27 28 29 29 29 29 28 28 29 29 30 30 30 30 31 31 31 31 32 32 32 32 33 33 33 34 34 34 34 33 33 33
21 21 22 22 21 22 23 23 24 25 25 25 26 26 26 27 26 26 26 26 27 27 28 29 29 29 30 30 31 31 31 31 31 32 33 33 33 34 34 35 34 34 34 34
18 18 18 19 20 20 21 21 21 22 22 22 23 23 23 23 24 24 24 25 25 26 26 27 27 28 28 29 29 29 29 30 31 32 32 32 33 33 33 33 33 33 33 33
15 16 16 16 17 18 18 19 19 19 20 20 21 21 20 20 21 22 22 23 24 24 25 26 26 26 27 27 27 27 28 29 30 30 30 31 32 32 33 33 33 33 31 31
14 14 14 14 14 15 15 16 16 17 17 18 18 18 18 19 20 21 22 23 24 24 24 24 24 24 25 25 25 26 26 27 27 28 29 30 31 31 32 32 32 32 31 30
11 12 13 13 14 14 15 15 15 16 17 17 18 19 19 20 21 21 21 22 23 23 22 22 22 22 24 24 24 25 25 26 27 28 29 30 30 30 31 30 30 29 29 29
11 11 12 12 13 13 13 14 14 15 16 16 17 18 19 19 20 20 21 21 21 22 22 22 22 23 23 23 24 24 25 26 27 28 28 29 29 29 29 29 28 28 28 29
10 10 11 11 11 12 12 12 12 13 14 14 15 16 17 17 18 18 18 19 19 20 20 21 22 23 23 23 24 25 26 26 27 27 28 28 28 28 28 28 28 28 28 28

GEFSNGP_500_meanwind_234.txt.gz
Wind_Speed
27 23 21 22 22 22 23 23 24 23 24 25 24 21 20 18 19 19 18 17 18 18 18 18 19 19 18 18 19 19 19 19 19 19 18 18 18 18 19 19 20 20 21 21
27 25 23 23 23 23 23 23 24 24 24 25 27 24 24 22 21 19 19 19 19 19 20 20 20 20 20 20 20 21 20 21 21 21 20 19 19 20 21 21 22 22 22 22
27 26 25 26 25 24 23 24 25 26 27 26 28 27 26 26 23 21 21 21 21 21 22 22 22 22 22 22 22 22 22 22 22 22 22 22 21 22 22 23 23 24 24 24
28 26 28 27 25 25 26 26 26 28 29 28 30 29 28 29 26 23 24 23 23 23 23 23 23 24 24 24 24 24 24 24 24 24 24 23 23 23 23 24 25 25 25 25
30 28 28 27 27 25 27 28 28 29 30 30 30 28 28 29 27 26 24 24 24 25 25 25 25 26 25 25 25 25 25 25 25 24 25 25 25 25 25 25 25 25 25 25
31 29 29 29 27 26 27 30 30 30 31 31 30 31 31 29 28 27 26 26 26 26 26 26 27 27 26 26 26 26 26 26 26 26 26 25 25 25 25 26 25 26 26 26
32 31 31 30 28 28 29 31 30 31 31 31 32 33 34 31 29 29 29 29 28 27 27 27 28 28 27 27 27 27 28 27 27 26 26 26 27 27 27 27 27 27 27 27
32 32 34 32 30 31 31 31 31 30 31 32 33 34 34 33 30 30 30 30 30 29 29 29 29 29 28 28 28 29 29 29 28 28 28 28 28 28 29 29 29 29 29 29
32 35 36 33 32 33 33 32 31 32 33 34 32 34 34 33 33 32 32 32 31 31 31 30 30 30 30 30 30 31 31 31 30 30 30 30 30 30 30 29 29 29 29 29
34 35 36 34 34 33 34 34 33 34 34 34 33 34 34 33 34 34 34 33 33 33 33 32 32 31 32 32 32 32 33 34 33 32 31 31 30 30 30 30 30 30 30 30
36 36 37 35 34 35 36 35 35 35 35 34 34 34 34 32 32 34 35 35 35 35 35 34 33 33 33 33 33 33 34 35 34 32 32 31 32 32 32 32 31 31 31 30
36 36 36 35 35 36 35 35 35 35 36 35 35 35 35 35 33 33 34 35 36 36 36 36 35 35 34 34 33 34 34 34 34 34 34 34 33 33 33 33 32 32 32 31
34 33 33 34 34 34 35 36 35 35 35 35 35 35 35 35 35 35 35 35 36 36 36 37 36 35 34 34 33 34 34 34 34 35 35 35 35 34 33 33 32 32 31 32
33 33 33 33 33 33 34 34 34 34 34 33 34 34 34 34 35 35 35 35 35 35 36 36 35 34 34 34 34 34 34 34 34 34 34 35 35 35 35 33 32 32 32 33
32 33 34 34 34 33 34 33 33 32 33 33 33 33 33 33 34 35 35 35 35 34 34 35 35 35 34 34 35 35 35 35 35 35 34 34 34 34 34 33 33 33 32 32
30 31 32 33 33 33 33 33 32 32 32 32 33 32 32 32 32 32 33 34 34 34 33 33 34 34 35 35 35 35 35 35 35 35 34 34 34 34 34 33 33 33 33 32
30 30 30 31 31 32 32 31 31 31 32 32 32 32 32 32 32 33 32 32 32 32 32 32 33 33 34 34 34 35 35 35 35 35 35 35 34 34 34 33 33 33 33 33
29 29 29 29 29 30 30 30 30 30 31 31 32 32 32 32 32 31 31 31 31 31 31 31 32 32 33 33 33 34 34 35 35 35 35 35 35 34 33 33 34 34 34 34
27 27 27 27 27 29 29 29 29 30 31 31 31 31 31 30 30 30 30 30 30 30 30 30 31 31 31 32 33 33 33 33 33 33 33 33 33 33 33 33 34 34 35 35
26 25 25 25 26 26 26 27 27 28 29 28 28 28 28 28 28 28 29 29 29 30 30 30 30 30 31 31 31 31 32 32 32 31 32 31 31 32 32 33 34 34 35 35
23 24 24 24 24 24 24 25 25 26 26 26 26 27 27 27 28 28 28 28 29 28 28 29 30 30 30 31 31 30 30 31 31 30 30 30 31 31 32 33 33 33 34 35
21 22 22 22 22 22 22 23 23 24 24 24 25 26 27 27 27 27 27 27 27 27 27 28 28 28 28 28 28 29 29 30 30 30 30 30 31 31 32 32 32 33 33 34
19 19 19 19 19 19 19 21 21 22 22 23 24 24 24 25 25 25 25 25 25 26 26 27 28 28 27 27 28 28 28 28 28 29 29 30 31 32 32 32 32 32 32 32
18 17 16 16 16 17 18 18 19 20 20 20 21 21 22 22 23 23 23 23 23 23 24 24 25 26 26 27 27 27 28 28 28 28 29 30 31 31 31 31 31 32 32 33
16 15 15 15 15 16 16 17 17 18 19 19 19 19 19 20 20 20 20 21 21 21 22 23 24 25 25 26 26 27 27 27 27 28 29 30 31 31 30 30 30 31 31 32
13 13 14 15 15 15 15 15 15 16 17 17 17 17 17 17 17 18 19 20 20 21 22 22 23 24 25 25 25 26 27 27 27 28 29 30 29 29 29 29 29 30 31 32
11 12 13 14 14 14 14 14 14 14 14 15 15 15 16 16 16 18 19 20 20 20 21 21 22 23 24 25 26 27 27 28 28 28 29 29 29 29 29 30 30 30 31 31